[[{"header":{"parameterUnit":"m.s-1","parameterCategory":1,"la1":30.6,"la2":29.2853,"lo1":-89.7004,"lo2":-87.6739,"dy":0.0162,"dx":0.0183,"nx":112,"ny":82,"refTime":"2023-09-05T06:00:00:Z","depth":0,"parameterNumber":2,"parameterNumberName":"U-component_of_WINDS"},"data":[0.0,0.0,0.0,0.0,0.0,0.0,0.0,0.0,0.0,0.0,0.0,0.0,0.0,0.0,0.0,0.0,0.0,0.0,0.0,0.0,0.0,0.0,0.0,0.0,0.0,0.0,0.0,0.0,0.0,0.0,0.0,0.0,0.0,0.0,0.0,0.0,0.0,0.0,0.0,0.0,0.0,0.0,0.0,0.0,0.0,0.0,0.0,0.0,0.0,0.0,0.0,0.0,0.0,0.0,0.0,0.0,0.0,0.0,0.0,0.0,0.0,0.0,0.0,0.0,0.0,0.0,0.0,0.0,0.0,0.0,0.0,0.0,0.0,0.0,0.0,0.0,0.0,0.0,0.0,0.0,0.0,0.0,0.0,0.0,0.0,0.0,0.0,0.0,0.0,0.0,-3.0439,-3.0963,-3.1812,-3.1724,-3.0229,-3.1027,-3.0449,-2.7715,0.0,0.0,0.0,0.0,0.0,0.0,0.0,0.0,0.0,0.0,0.0,0.0,0.0,0.0,0.0,0.0,0.0,0.0,0.0,0.0,0.0,0.0,0.0,0.0,0.0,0.0,0.0,0.0,0.0,0.0,0.0,0.0,0.0,0.0,0.0,0.0,0.0,0.0,0.0,0.0,0.0,0.0,0.0,0.0,0.0,0.0,0.0,0.0,0.0,0.0,0.0,0.0,0.0,0.0,0.0,0.0,0.0,0.0,0.0,0.0,0.0,0.0,0.0,0.0,0.0,0.0,0.0,0.0,0.0,0.0,0.0,0.0,0.0,0.0,0.0,0.0,0.0,0.0,0.0,0.0,0.0,0.0,0.0,0.0,0.0,0.0,0.0,0.0,0.0,0.0,0.0,0.0,0.0,0.0,0.0,0.0,0.0,0.0,0.0,0.0,0.0,0.0,0.0,0.0,-2.9739,-3.0226,-3.1041,-3.1172,-3.0176,-3.1027,-3.0651,-2.8404,0.0,0.0,0.0,0.0,0.0,0.0,0.0,0.0,0.0,0.0,0.0,0.0,0.0,0.0,0.0,0.0,0.0,0.0,0.0,0.0,0.0,0.0,0.0,0.0,0.0,0.0,0.0,0.0,0.0,0.0,0.0,0.0,0.0,0.0,0.0,0.0,0.0,0.0,0.0,0.0,0.0,0.0,0.0,0.0,0.0,0.0,0.0,0.0,0.0,0.0,0.0,0.0,0.0,0.0,0.0,0.0,0.0,0.0,0.0,0.0,0.0,0.0,0.0,0.0,0.0,0.0,0.0,0.0,0.0,0.0,0.0,0.0,0.0,0.0,0.0,0.0,0.0,0.0,0.0,0.0,0.0,0.0,0.0,0.0,0.0,0.0,0.0,0.0,0.0,0.0,0.0,0.0,0.0,0.0,0.0,0.0,0.0,0.0,0.0,0.0,0.0,0.0,0.0,-3.0201,-3.0474,-3.0717,-3.1492,-3.1748,-3.1183,-3.1727,-3.1143,-2.8907,-2.7656,0.0,0.0,0.0,0.0,0.0,0.0,0.0,0.0,0.0,0.0,0.0,0.0,0.0,0.0,0.0,0.0,0.0,0.0,0.0,0.0,0.0,0.0,0.0,0.0,0.0,0.0,0.0,0.0,0.0,0.0,0.0,0.0,0.0,0.0,0.0,0.0,0.0,0.0,0.0,0.0,0.0,0.0,0.0,0.0,0.0,0.0,0.0,0.0,0.0,0.0,0.0,0.0,0.0,0.0,0.0,0.0,0.0,0.0,0.0,0.0,0.0,0.0,0.0,0.0,0.0,0.0,0.0,0.0,0.0,0.0,0.0,0.0,0.0,0.0,0.0,0.0,0.0,0.0,0.0,0.0,0.0,0.0,0.0,0.0,0.0,0.0,0.0,0.0,0.0,0.0,0.0,0.0,0.0,0.0,0.0,0.0,0.0,0.0,0.0,0.0,0.0,0.0,-3.0787,-3.1196,-3.1144,-3.1957,-3.2312,-3.1873,-3.2074,-3.1394,-2.9453,-2.7948,0.0,0.0,0.0,0.0,0.0,0.0,0.0,0.0,0.0,0.0,0.0,0.0,0.0,0.0,0.0,0.0,0.0,0.0,0.0,0.0,0.0,0.0,0.0,0.0,0.0,0.0,0.0,0.0,0.0,0.0,0.0,0.0,0.0,0.0,0.0,0.0,0.0,0.0,0.0,0.0,0.0,0.0,0.0,0.0,0.0,0.0,0.0,0.0,0.0,0.0,0.0,0.0,0.0,0.0,0.0,0.0,0.0,0.0,0.0,0.0,0.0,0.0,0.0,0.0,0.0,0.0,0.0,0.0,0.0,0.0,0.0,0.0,0.0,0.0,0.0,0.0,0.0,0.0,0.0,0.0,0.0,0.0,0.0,0.0,0.0,0.0,0.0,0.0,0.0,0.0,0.0,0.0,0.0,0.0,0.0,0.0,0.0,0.0,0.0,0.0,0.0,0.0,-3.0532,-3.1137,-3.0697,-3.1757,-3.2182,-3.1402,-3.1434,-3.1046,-2.9997,-2.7693,0.0,0.0,0.0,0.0,0.0,0.0,0.0,0.0,0.0,0.0,0.0,0.0,0.0,0.0,0.0,0.0,0.0,0.0,0.0,0.0,0.0,0.0,0.0,0.0,0.0,0.0,0.0,0.0,0.0,0.0,0.0,0.0,0.0,0.0,0.0,0.0,0.0,0.0,0.0,0.0,0.0,0.0,0.0,0.0,0.0,0.0,0.0,0.0,0.0,0.0,0.0,0.0,0.0,0.0,0.0,0.0,0.0,0.0,0.0,0.0,0.0,0.0,0.0,0.0,0.0,0.0,0.0,0.0,0.0,0.0,0.0,0.0,0.0,0.0,0.0,0.0,0.0,0.0,0.0,0.0,0.0,0.0,0.0,0.0,0.0,0.0,0.0,0.0,0.0,0.0,0.0,0.0,0.0,0.0,0.0,0.0,0.0,0.0,0.0,0.0,0.0,0.0,-3.0287,-3.1165,0.0,-3.1564,-3.2175,-3.246,-3.1975,-3.1462,-3.1031,0.0,0.0,0.0,0.0,0.0,0.0,0.0,0.0,0.0,0.0,0.0,0.0,0.0,0.0,0.0,0.0,0.0,0.0,0.0,0.0,0.0,0.0,0.0,0.0,0.0,0.0,0.0,0.0,0.0,0.0,0.0,0.0,0.0,0.0,0.0,0.0,0.0,0.0,0.0,0.0,0.0,0.0,0.0,0.0,0.0,0.0,0.0,0.0,0.0,0.0,0.0,0.0,0.0,0.0,0.0,0.0,0.0,0.0,0.0,0.0,0.0,0.0,0.0,0.0,0.0,0.0,0.0,0.0,0.0,0.0,0.0,0.0,0.0,0.0,0.0,0.0,0.0,0.0,0.0,0.0,0.0,0.0,0.0,0.0,0.0,0.0,0.0,0.0,0.0,0.0,0.0,0.0,0.0,0.0,0.0,0.0,0.0,0.0,0.0,0.0,0.0,0.0,-2.8587,-2.999,-3.0967,0.0,-3.1181,-3.1845,-3.2679,-3.174,-3.12,-3.1399,0.0,0.0,0.0,0.0,0.0,0.0,0.0,0.0,0.0,0.0,0.0,0.0,0.0,0.0,0.0,0.0,0.0,0.0,0.0,0.0,0.0,0.0,0.0,0.0,0.0,0.0,0.0,0.0,0.0,0.0,0.0,0.0,0.0,0.0,0.0,0.0,0.0,0.0,0.0,0.0,0.0,0.0,0.0,0.0,0.0,0.0,0.0,0.0,0.0,0.0,0.0,0.0,0.0,0.0,0.0,0.0,0.0,0.0,0.0,0.0,0.0,0.0,0.0,0.0,0.0,0.0,0.0,0.0,0.0,0.0,0.0,0.0,0.0,0.0,0.0,0.0,0.0,0.0,0.0,0.0,0.0,0.0,0.0,0.0,0.0,0.0,0.0,0.0,0.0,0.0,0.0,0.0,0.0,0.0,0.0,0.0,0.0,0.0,0.0,0.0,0.0,0.0,-2.8576,-2.9654,-3.0429,-3.0276,-3.065,-3.1111,-3.1718,-3.0439,-3.0006,0.0,0.0,0.0,0.0,0.0,0.0,0.0,0.0,0.0,0.0,0.0,0.0,0.0,0.0,0.0,0.0,0.0,0.0,0.0,0.0,0.0,0.0,0.0,0.0,0.0,0.0,0.0,0.0,0.0,0.0,0.0,0.0,0.0,0.0,0.0,0.0,0.0,0.0,0.0,0.0,0.0,0.0,0.0,0.0,0.0,0.0,0.0,0.0,0.0,0.0,0.0,0.0,0.0,0.0,0.0,0.0,0.0,0.0,0.0,0.0,0.0,0.0,0.0,0.0,0.0,0.0,0.0,0.0,0.0,0.0,0.0,0.0,0.0,0.0,0.0,0.0,0.0,0.0,0.0,0.0,0.0,0.0,0.0,0.0,0.0,0.0,0.0,0.0,0.0,0.0,0.0,0.0,0.0,0.0,0.0,0.0,0.0,0.0,0.0,0.0,0.0,0.0,0.0,-2.7891,-2.8989,-2.9408,-2.8442,-2.9142,-2.9697,-2.9686,-2.9363,-2.9639,-3.0729,0.0,0.0,0.0,0.0,0.0,0.0,0.0,0.0,0.0,0.0,0.0,0.0,0.0,0.0,0.0,0.0,0.0,0.0,0.0,0.0,0.0,0.0,0.0,0.0,0.0,0.0,0.0,0.0,0.0,0.0,0.0,0.0,0.0,0.0,0.0,0.0,0.0,0.0,0.0,0.0,0.0,0.0,0.0,0.0,0.0,0.0,0.0,0.0,0.0,0.0,0.0,0.0,0.0,0.0,0.0,0.0,0.0,0.0,0.0,0.0,0.0,0.0,0.0,0.0,0.0,0.0,0.0,0.0,0.0,0.0,0.0,0.0,0.0,0.0,0.0,0.0,0.0,0.0,0.0,0.0,0.0,0.0,0.0,0.0,0.0,0.0,0.0,0.0,0.0,0.0,0.0,0.0,0.0,0.0,0.0,0.0,0.0,0.0,0.0,0.0,0.0,0.0,-2.7599,-2.8283,-2.8406,-2.7589,-2.7884,-2.8168,-2.8232,-2.8237,-2.8526,-2.9223,0.0,0.0,0.0,0.0,0.0,0.0,0.0,0.0,0.0,0.0,0.0,0.0,0.0,0.0,0.0,0.0,0.0,0.0,0.0,0.0,0.0,0.0,0.0,0.0,0.0,0.0,0.0,0.0,0.0,0.0,0.0,0.0,0.0,0.0,0.0,0.0,0.0,0.0,0.0,0.0,0.0,0.0,0.0,0.0,0.0,0.0,0.0,0.0,0.0,0.0,0.0,0.0,0.0,0.0,0.0,0.0,0.0,0.0,0.0,0.0,0.0,0.0,0.0,0.0,0.0,0.0,0.0,0.0,0.0,0.0,0.0,0.0,0.0,0.0,0.0,0.0,0.0,0.0,0.0,0.0,0.0,0.0,0.0,0.0,0.0,0.0,0.0,0.0,0.0,0.0,0.0,0.0,0.0,0.0,0.0,0.0,0.0,0.0,0.0,0.0,0.0,0.0,-2.7482,-2.7484,-2.7464,-2.7334,-2.6877,-2.6782,-2.7278,-2.7114,-2.7059,-2.7182,0.0,0.0,0.0,0.0,0.0,0.0,0.0,0.0,0.0,0.0,0.0,0.0,0.0,0.0,0.0,0.0,0.0,0.0,0.0,0.0,0.0,0.0,0.0,0.0,0.0,0.0,0.0,0.0,0.0,0.0,0.0,0.0,0.0,0.0,0.0,0.0,0.0,0.0,0.0,0.0,0.0,0.0,0.0,0.0,0.0,0.0,0.0,0.0,0.0,0.0,0.0,0.0,0.0,0.0,0.0,0.0,0.0,0.0,0.0,0.0,-3.4828,0.0,0.0,0.0,0.0,0.0,0.0,0.0,0.0,0.0,0.0,0.0,0.0,0.0,0.0,0.0,0.0,0.0,0.0,0.0,0.0,0.0,0.0,0.0,0.0,0.0,0.0,0.0,0.0,0.0,0.0,0.0,0.0,0.0,0.0,0.0,0.0,0.0,0.0,0.0,0.0,0.0,-2.6657,-2.6747,-2.6538,-2.5979,-2.6689,-2.7039,-2.6651,-2.6486,-2.683,-2.7813,-2.6685,0.0,0.0,0.0,0.0,0.0,0.0,0.0,0.0,0.0,0.0,0.0,0.0,0.0,0.0,0.0,0.0,0.0,0.0,0.0,0.0,0.0,0.0,0.0,0.0,0.0,0.0,0.0,0.0,0.0,0.0,0.0,0.0,0.0,0.0,0.0,0.0,0.0,0.0,0.0,0.0,0.0,0.0,0.0,0.0,0.0,0.0,0.0,0.0,0.0,0.0,0.0,0.0,0.0,0.0,0.0,0.0,0.0,0.0,0.0,0.0,-3.4493,0.0,0.0,0.0,0.0,0.0,0.0,0.0,0.0,0.0,0.0,0.0,0.0,0.0,0.0,0.0,0.0,0.0,0.0,0.0,0.0,0.0,0.0,0.0,0.0,0.0,0.0,0.0,0.0,0.0,0.0,0.0,0.0,0.0,0.0,0.0,0.0,0.0,0.0,0.0,0.0,-2.6876,-2.6117,-2.5367,-2.5015,-2.5026,-2.5062,-2.5007,-2.4946,-2.5149,-2.5771,-2.5675,0.0,0.0,0.0,0.0,0.0,0.0,0.0,0.0,0.0,0.0,0.0,0.0,0.0,0.0,0.0,0.0,0.0,0.0,0.0,0.0,0.0,0.0,0.0,0.0,0.0,0.0,0.0,0.0,0.0,0.0,0.0,0.0,0.0,0.0,0.0,0.0,0.0,0.0,0.0,0.0,0.0,0.0,0.0,0.0,0.0,0.0,0.0,0.0,0.0,0.0,0.0,0.0,0.0,-3.3565,-3.3833,-3.4588,-3.414,-3.3856,-3.3745,-3.2732,-3.309,-3.432,0.0,0.0,0.0,0.0,0.0,0.0,0.0,0.0,0.0,0.0,0.0,0.0,0.0,0.0,0.0,0.0,0.0,0.0,0.0,0.0,0.0,0.0,0.0,0.0,0.0,-3.0208,-2.9896,0.0,0.0,0.0,0.0,0.0,0.0,0.0,0.0,0.0,0.0,0.0,0.0,-2.6875,-2.5438,-2.4368,-2.4368,-2.3527,-2.3142,-2.3648,-2.3595,-2.3524,-2.3509,-2.4591,-2.4855,0.0,0.0,0.0,0.0,0.0,0.0,0.0,0.0,0.0,0.0,0.0,0.0,0.0,0.0,0.0,0.0,0.0,0.0,0.0,0.0,0.0,0.0,0.0,0.0,0.0,0.0,0.0,0.0,0.0,0.0,0.0,0.0,-3.395,-3.4482,0.0,0.0,0.0,0.0,0.0,0.0,0.0,0.0,0.0,0.0,0.0,0.0,0.0,-3.2041,-3.2374,-3.3237,-3.3543,-3.3255,-3.3631,-3.339,-3.2565,-3.2488,-3.2225,-3.1767,-3.1614,0.0,-3.3536,-3.3371,0.0,0.0,0.0,0.0,0.0,0.0,0.0,0.0,0.0,0.0,0.0,0.0,0.0,0.0,0.0,0.0,0.0,0.0,0.0,0.0,0.0,0.0,-2.8919,-2.85,-2.8616,-2.8716,0.0,-2.9225,-2.9696,-2.9025,-2.8597,0.0,0.0,0.0,0.0,0.0,0.0,0.0,-2.4769,-2.4483,-2.4304,-2.4304,-2.4286,-2.4289,-2.4368,-2.3945,-2.386,-2.4312,-2.4992,-2.5796,-2.6723,-2.5743,0.0,0.0,0.0,0.0,0.0,0.0,0.0,0.0,0.0,0.0,0.0,0.0,0.0,0.0,0.0,0.0,0.0,0.0,0.0,0.0,0.0,0.0,0.0,0.0,0.0,0.0,0.0,0.0,0.0,-3.3051,-3.4341,-3.3627,-3.4569,-3.4645,0.0,0.0,0.0,0.0,0.0,0.0,0.0,0.0,0.0,-3.0763,-3.0767,-3.1009,-3.1668,-3.2419,-3.3027,-3.3533,-3.3144,-3.2867,-3.2679,-3.2039,-3.1625,-3.1386,-3.1386,-3.1569,-3.1847,-3.1847,-3.1638,-3.1379,0.0,0.0,0.0,0.0,-3.2454,-3.2206,-3.1806,-3.1797,0.0,-3.0662,0.0,0.0,0.0,0.0,0.0,0.0,0.0,0.0,0.0,0.0,0.0,-2.8624,-2.8413,-2.8289,-2.8289,-2.8347,-2.849,0.0,-2.8915,-2.8853,-2.8601,0.0,0.0,0.0,0.0,-2.5576,-2.5342,-2.4632,-2.3992,-2.3658,-2.3152,-2.2948,-2.3286,-2.2567,-2.2317,-2.2896,-2.3488,-2.4263,-2.5243,-2.539,-2.5795,0.0,0.0,0.0,0.0,0.0,0.0,0.0,0.0,0.0,0.0,0.0,0.0,0.0,0.0,0.0,0.0,0.0,0.0,0.0,0.0,0.0,0.0,0.0,0.0,0.0,0.0,0.0,0.0,-3.3707,-3.4702,-3.3305,-3.484,-3.5104,0.0,0.0,0.0,0.0,0.0,0.0,-3.1165,-2.9636,-2.8838,-2.9136,-2.9482,-3.0014,-3.0652,-3.1193,-3.211,-3.3417,-3.2395,-3.2256,-3.283,-3.1989,-3.1313,-3.0741,-3.0741,-3.0281,-2.9613,-3.0306,-3.0713,-3.0833,-3.0833,-3.1267,-3.1852,-3.1556,-3.1241,-3.0906,-3.0285,-3.0375,-3.0499,-2.9082,0.0,-3.0276,-2.9048,0.0,0.0,0.0,0.0,-2.866,-2.9376,-2.9151,-2.8712,-2.8712,-2.8185,-2.772,-2.7871,-2.7457,-2.7385,0.0,-2.8531,-2.8452,-2.8368,0.0,0.0,0.0,0.0,-2.5497,-2.5341,-2.4407,-2.3615,-2.3145,-2.2146,-2.1675,-2.2132,-2.1315,-2.1046,-2.1642,-2.2416,-2.3153,-2.3863,-2.4736,-2.5654,-2.6554,0.0,0.0,0.0,0.0,0.0,0.0,0.0,0.0,0.0,0.0,0.0,0.0,0.0,0.0,0.0,0.0,0.0,0.0,0.0,0.0,0.0,0.0,0.0,0.0,0.0,0.0,0.0,0.0,0.0,-3.4681,-3.6928,0.0,0.0,0.0,0.0,-3.057,-3.0798,-3.0726,-3.0023,-2.8753,-2.847,-2.9448,-2.9171,-2.926,-2.9783,-3.0116,-3.0939,-3.2168,-3.155,-3.1605,-3.2252,-3.2202,-3.1025,-2.9039,-2.9039,-2.8158,-2.6921,-2.9508,-3.0333,-2.9856,-2.9856,-2.9895,-2.9805,-2.8743,-2.8295,-2.8243,-2.7683,-2.7163,-2.6949,-2.7829,-2.7533,-2.6741,-2.6662,-2.626,0.0,0.0,-2.777,-2.7633,-2.8674,-2.8561,-2.8147,-2.8147,-2.7318,-2.6725,-2.7241,-2.6927,-2.671,0.0,-2.6517,-2.5975,-2.6535,0.0,-2.4935,-2.4992,-2.4501,-2.3903,-2.3319,-2.3188,-2.3133,-2.3108,-2.2146,-2.1521,-2.1536,-2.1095,-2.1033,-2.1574,-2.2819,-2.3796,-2.4334,-2.4417,-2.511,-2.6479,-2.3877,0.0,0.0,0.0,0.0,0.0,0.0,0.0,0.0,0.0,0.0,0.0,0.0,0.0,0.0,0.0,0.0,0.0,0.0,0.0,0.0,0.0,0.0,0.0,0.0,0.0,0.0,0.0,0.0,-3.2376,-3.3637,0.0,-3.0436,-3.1008,-3.1083,-3.0068,-3.0016,-2.9786,-2.9219,-2.8307,-2.7842,-2.7872,-2.7773,-2.8015,-2.8705,-2.8855,-2.9426,-3.0354,-2.9804,-2.9466,-2.9445,-2.9075,-2.8328,-2.7351,-2.7351,-2.7053,-2.6618,-2.831,-2.8897,-2.8767,-2.9495,-2.9792,-2.9663,-2.8518,-2.8298,-2.8362,-2.6666,-2.6702,-2.7552,-2.7586,-2.7105,-2.6524,-2.6524,-2.6349,-2.6441,-2.7756,-2.7715,-2.7555,-2.8611,-2.826,-2.7582,-2.7582,-2.6521,-2.5748,-2.6599,-2.6126,-2.5795,-2.6634,-2.6751,-2.6515,-2.6021,-2.531,-2.4788,-2.4788,-2.4356,-2.3916,-2.3715,-2.369,-2.3414,-2.2656,-2.1933,-2.1343,-2.1018,-2.0486,-2.0399,-2.0974,-2.178,-2.2706,-2.3701,-2.4144,-2.4627,-2.5192,-2.3798,-2.3281,0.0,0.0,0.0,0.0,0.0,0.0,0.0,0.0,0.0,0.0,0.0,0.0,0.0,0.0,0.0,0.0,0.0,0.0,0.0,0.0,0.0,0.0,0.0,0.0,0.0,0.0,-3.1503,-3.0917,-3.1969,-3.1845,-2.9518,-3.0047,-3.0293,-2.9812,-2.9629,-2.9256,-2.8461,-2.7946,-2.7461,-2.7021,-2.726,-2.7482,-2.7611,-2.7873,-2.8168,-2.8567,-2.8203,-2.7933,-2.7671,-2.7346,-2.6721,-2.5933,-2.5933,-2.5724,-2.5431,-2.6532,-2.6982,-2.7186,-2.9067,-2.9792,-2.9663,-2.8518,-2.831,-2.831,-2.6011,-2.572,-2.6357,-2.6002,-2.5647,-2.5358,-2.5358,-2.5358,-2.5566,-2.6493,-2.6655,-2.6655,-2.7616,-2.7454,-2.704,-2.704,-2.5856,-2.5048,-2.623,-2.5296,-2.4625,-2.5946,-2.665,-2.6738,-2.5762,-2.5172,-2.4788,-2.4788,-2.4161,-2.3778,-2.3966,-2.3828,-2.3427,-2.2644,-2.2096,-2.1619,-2.1282,-2.0865,-2.0815,-2.1192,-2.1732,-2.2414,-2.3246,-2.3677,-2.4066,-2.4422,-2.3752,-2.3054,-2.2314,0.0,0.0,0.0,0.0,0.0,0.0,0.0,0.0,0.0,0.0,0.0,0.0,0.0,0.0,0.0,0.0,0.0,0.0,0.0,0.0,0.0,0.0,0.0,-3.0277,-3.144,-3.1706,-3.0643,-3.2367,-3.2641,-3.0105,-3.092,-3.097,-2.9534,-2.9523,-2.9024,-2.7721,-2.7679,-2.7474,-2.7033,-2.7756,-2.759,-2.6467,-2.716,-2.7311,-2.6861,-2.685,-2.6988,-2.7191,-2.7222,-2.6298,-2.4745,-2.4745,-2.4125,-2.3178,-2.4339,-2.4787,-2.5126,-2.841,-2.9714,-2.9585,-2.8426,-2.7964,-2.7631,-2.5493,-2.4006,-2.3091,-2.3091,-2.3091,-2.3091,-2.3091,-2.3091,-2.3254,-2.4044,-2.4497,-2.4975,-2.5651,-2.6148,-2.6452,-2.6452,-2.5261,-2.4571,-2.6086,-2.4436,-2.3222,-2.5163,-2.6008,-2.623,-2.5649,-2.5134,-2.4763,-2.4705,-2.3779,0.0,-2.3829,-2.3385,-2.3035,-2.3078,-2.2602,-2.2293,-2.2309,-2.2309,-2.2309,-2.2309,-2.2769,-2.307,-2.3108,-2.3083,-2.3458,-2.4208,-2.3657,-2.2298,-2.0221,0.0,0.0,0.0,0.0,0.0,0.0,0.0,0.0,0.0,0.0,0.0,0.0,0.0,0.0,0.0,0.0,0.0,0.0,0.0,0.0,0.0,0.0,-2.9418,-3.0877,-3.0378,-3.005,-3.0777,-3.0523,-2.9832,-2.8847,-2.8798,-2.8603,-2.8209,-2.791,-2.7449,-2.6808,-2.6738,-2.6973,-2.7421,-2.6766,-2.6657,-2.7263,-2.6585,-2.6137,-2.6008,-2.5727,-2.5454,-2.5198,-2.4917,-2.4311,-2.3551,-2.3551,-2.3387,-2.3178,-2.4339,-2.4787,-2.4957,-2.6719,-2.7395,-2.7261,-2.6119,-2.5157,-2.4382,-2.38,-2.3343,-2.3091,-2.3091,-2.3091,-2.3091,-2.3091,-2.3091,-2.3384,-2.4809,-2.5006,-2.514,-2.6542,-2.616,-2.5406,-2.5406,-2.3957,-2.2908,-2.4074,-2.3183,-2.257,-2.3818,-2.4221,-2.4366,-2.4432,-2.4318,-2.3891,-2.2863,-2.2423,0.0,-2.1582,-2.1383,-2.1522,-2.2156,-2.2097,-2.2097,-2.2289,-2.2309,-2.2309,-2.2309,-2.2083,-2.2297,-2.307,-2.2719,-2.2623,-2.2856,-2.206,-2.1371,0.0,0.0,0.0,0.0,0.0,0.0,0.0,0.0,0.0,0.0,0.0,0.0,0.0,0.0,0.0,0.0,0.0,0.0,0.0,0.0,0.0,0.0,-2.8835,-2.978,-3.0685,-2.987,-2.951,-3.0309,-2.9506,-2.875,-2.833,-2.7744,-2.7471,-2.7708,-2.7266,-2.6836,-2.6406,-2.6553,-2.6943,-2.7563,-2.6897,-2.6849,-2.7589,-2.6849,-2.6146,-2.5449,-2.501,-2.457,-2.4141,-2.3711,-2.3379,0.0,-2.3091,-2.3091,-2.3135,-2.38,-2.4082,0.0,0.0,0.0,0.0,0.0,-2.4798,-2.38,-2.38,-2.3507,-2.3091,-2.3091,-2.3091,-2.3091,-2.3091,-2.3091,-2.3215,-2.3856,-2.4106,-2.4309,-2.4939,-2.4738,-2.4373,-2.4373,-2.3147,-2.2291,-2.3294,-2.2414,-2.1759,-2.2918,-2.2812,0.0,-2.3041,-2.345,-2.3376,-2.2376,-2.2051,-2.1667,-2.1,-2.0746,-2.0782,-2.1302,-2.1365,-2.1561,-2.2096,-2.234,0.0,0.0,0.0,-2.2181,-2.2586,-2.2303,0.0,0.0,0.0,-2.1082,-2.0495,0.0,0.0,0.0,-2.0682,-2.1144,0.0,0.0,0.0,0.0,0.0,0.0,0.0,0.0,0.0,0.0,0.0,0.0,0.0,0.0,0.0,0.0,-2.9082,-2.9785,-3.0215,-2.9912,-2.9675,-2.9636,-2.915,-2.8701,-2.833,-2.7559,-2.7246,-2.7689,-2.7217,-2.6787,-2.6406,0.0,0.0,0.0,0.0,-2.7447,-2.7589,-2.7458,-2.6615,-2.5106,-2.4619,-2.4199,-2.3769,-2.3296,-2.3091,-2.3091,-2.3091,-2.3091,-2.3091,-2.3091,-2.3091,-2.3299,-2.5305,-2.6099,-2.6099,-2.6099,-2.5473,-2.4628,-2.4628,0.0,0.0,-2.3091,-2.3091,-2.3091,-2.3091,-2.3091,-2.2959,-2.2235,-2.2646,-2.3113,-2.2383,-2.2739,-2.3331,-2.3331,-2.259,-2.2075,-2.2962,-2.1821,-2.0968,-2.2234,-2.1748,-2.1282,-2.1728,-2.2627,-2.3079,-2.2462,-2.2067,-2.1649,-2.1096,-2.0599,-2.0355,-2.054,0.0,0.0,-2.1929,-2.2528,-2.2924,-2.3085,-2.279,-2.2341,-2.1682,-2.1717,-2.1842,-2.2005,-2.1726,-2.0953,-1.9634,-1.9328,-1.8754,-1.8018,-1.9151,-2.0194,0.0,0.0,0.0,0.0,0.0,0.0,0.0,0.0,0.0,0.0,0.0,0.0,0.0,0.0,0.0,-2.8633,-2.9512,-3.0234,-3.0693,-3.0361,-2.9951,-2.9665,-2.8887,-2.8389,-2.8301,-2.7832,-2.7578,-2.7708,-2.6953,-2.6475,-2.6396,-2.6133,-2.6473,-2.7552,-2.662,-2.6572,-2.7589,-2.6572,-2.5738,-2.5106,0.0,0.0,-2.3769,-2.3296,-2.3091,-2.3091,-2.3091,-2.3091,-2.3091,-2.3091,-2.3091,-2.3135,-2.3594,-2.3767,-2.3767,-2.3767,-2.3637,-2.343,-2.343,-2.3256,-2.3091,-2.3091,-2.3091,-2.3091,-2.3091,-2.3091,0.0,-2.3043,-2.3171,-2.3271,-2.3213,-2.2739,-2.2291,-2.2291,-2.1555,-2.0934,-2.1126,-2.0867,-2.0692,-2.0939,-2.0843,-2.0855,-2.1256,-2.2443,-2.2656,-2.0714,-2.103,-2.0809,-1.8883,-1.858,-1.892,-2.0084,-2.082,-2.1611,-2.2475,-2.3264,-2.3555,-2.3145,-2.245,-2.146,-2.0183,-2.0588,-2.064,-2.0209,-1.9951,-1.9458,-1.8744,-1.8408,-1.8168,-1.8008,-1.8256,-1.8666,0.0,0.0,0.0,0.0,0.0,0.0,0.0,0.0,0.0,0.0,0.0,-2.8371,-2.8461,0.0,-2.8652,-2.9736,-3.0068,-3.0273,-3.0508,-3.0166,-2.9805,-2.959,-2.8994,-2.8525,-2.831,-2.7963,-2.7718,-2.7718,-2.707,-2.6611,-2.6396,-2.6182,-2.6523,-2.7552,-2.6342,-2.6294,-2.7589,-2.6342,-2.5518,-2.5106,-2.4619,-2.4199,-2.3769,-2.3296,-2.3091,-2.3091,-2.3091,-2.3091,-2.3091,-2.3091,-2.3091,-2.3091,-2.3091,-2.3091,-2.3091,-2.3091,-2.3091,-2.3091,-2.3091,-2.3091,-2.3091,-2.3091,-2.3091,-2.3091,-2.3091,-2.3091,-2.3085,-2.2964,-2.2736,-2.2574,-2.239,-2.1817,-2.1298,-2.1298,-2.0934,-2.0605,-2.0605,-2.0605,-2.0605,-2.0605,-2.0605,-2.0643,-2.0863,-2.1859,-2.2271,-2.114,-2.1372,-2.1329,-2.0252,-1.9496,-1.9308,-2.0028,-2.0243,-2.0698,-2.1576,-2.2816,-2.3059,-2.1908,-2.1479,-2.0733,-1.9554,-1.9781,-2.0018,-2.0147,-1.9598,-1.9161,-1.8898,-1.8285,-1.8008,-1.8018,-1.8223,-1.852,0.0,0.0,0.0,0.0,0.0,0.0,0.0,-2.6336,-2.6116,-2.8125,-2.8747,-2.9042,-2.9129,-2.917,-2.9521,-3.0586,-3.0439,-3.0166,-3.0088,-2.9785,-2.9597,-2.9453,-2.9131,-2.875,-2.833,-2.7988,-2.7806,-2.7728,-2.7266,-2.6836,-2.6406,-2.6309,-2.6575,-2.7231,-2.6245,-2.6197,-2.722,-2.6156,-2.5381,-2.4941,-2.4502,-2.4072,-2.3652,-2.3257,-2.3091,-2.3091,-2.3091,-2.3091,-2.3091,-2.3091,-2.3091,-2.3091,-2.3091,-2.3091,-2.3091,-2.3091,-2.3091,-2.3091,-2.3091,-2.3091,-2.3091,-2.3091,-2.3091,-2.3091,-2.3091,-2.3091,-2.2994,-2.2529,-2.2148,-2.1768,-2.124,-2.084,-2.0605,-2.0605,-2.0605,-2.0605,-2.0605,-2.0605,-2.0605,-2.0605,-2.0605,-2.0605,-2.0605,-2.1221,-2.1744,-2.1861,-2.2043,-2.216,-2.2071,-2.1146,-2.042,-2.0204,-2.006,-2.027,-2.1005,-2.231,-2.2463,-2.0942,-2.0687,-2.0204,-1.9342,-1.9144,-1.9365,-2.0074,-1.9398,-1.9044,-1.9044,-1.8327,-1.8008,-1.8018,-1.8403,-1.8792,-2.585,-2.4546,-2.3555,-2.372,-2.2839,-2.2753,0.0,-2.6504,-2.6653,-2.7678,-2.907,-3.0042,-3.0029,-3.0049,-3.0098,-3.0244,-3.0234,-3.0068,-2.9697,-2.9655,-2.9434,-2.9033,-2.8945,-2.875,-2.833,-2.8252,-2.8066,-2.7748,-2.7266,-2.6836,-2.6406,-2.6016,-2.583,-2.5927,-2.5781,-2.5781,-2.5927,-2.5437,-2.4922,-2.4482,-2.4062,-2.3633,-2.3169,-2.312,-2.3091,-2.3091,-2.3091,-2.3091,-2.3091,-2.3091,-2.3091,-2.3091,-2.3091,-2.3091,-2.3091,-2.3091,-2.3091,-2.3091,-2.3091,-2.3091,-2.3091,-2.3091,-2.3091,-2.3091,-2.3091,-2.3091,-2.2925,-2.2178,-2.1924,-2.1699,-2.0899,-2.0644,-2.0605,-2.0605,-2.0605,-2.0605,-2.0605,-2.0605,-2.0605,-2.0605,-2.0605,-2.0605,-2.0605,-2.0683,-2.0918,-2.1392,-2.221,-2.2464,-2.1587,-2.1778,-2.161,-2.064,-2.1601,-2.2472,-2.2787,-2.2975,-2.2732,-2.1815,-2.1037,-2.0204,-1.9342,-1.8563,-1.8202,-1.8303,-1.8202,-1.8144,-1.8144,-1.8042,-1.8008,-1.8018,-1.8403,-1.8627,-2.4126,-2.3385,-2.2884,-2.3398,-2.2919,-2.2855,-2.5019,-2.4891,-2.4786,-2.6398,-2.8047,-2.9133,-2.9133,-2.9929,-3.0605,0.0,-3.0166,-2.9766,-2.959,-2.9346,-2.8945,-2.8271,-2.8623,-2.875,-2.833,-2.8291,-2.8223,-2.8047,-2.7402,-2.6943,-2.6768,-2.6054,-2.5693,-2.5693,-2.5693,-2.5693,-2.5693,-2.5293,-2.4844,-2.4414,-2.3984,-2.3555,-2.3091,-2.3091,-2.3091,-2.3091,-2.3091,-2.3091,-2.3091,-2.3091,-2.3091,-2.3091,-2.3091,-2.3091,-2.3091,-2.3091,-2.3091,-2.3091,-2.3091,-2.3091,-2.3091,-2.3091,-2.3091,-2.3091,-2.3091,-2.3091,-2.2974,-2.2412,-2.207,-2.1738,-2.1113,-2.0762,-2.0605,-2.0605,-2.0605,-2.0605,-2.0605,-2.0605,-2.0605,-2.0605,-2.0605,-2.0605,-2.0605,-2.0605,-2.0874,-2.1636,-2.2593,-2.3328,-2.3479,-2.3432,-2.282,-2.1216,-2.1601,-2.1846,-2.1651,-2.2125,-2.1834,-2.0462,-2.0526,-1.9977,-1.8586,-1.8202,-1.8008,-1.8008,-1.8008,-1.8008,-1.8008,-1.8008,-1.8008,-1.8018,-1.8403,-1.8471,-2.1907,-2.1917,-2.2169,-2.2377,-2.2285,-2.2392,-2.3471,-2.3329,-2.3414,-2.5035,-2.6961,-2.8417,-2.8417,-2.9776,-3.085,-3.0723,-3.0166,-2.9658,-2.9424,-2.9014,-2.8476,-2.7806,-2.8203,-2.8447,-2.8144,-2.8223,-2.8242,-2.8125,-2.7432,-2.6963,-2.6846,-2.6093,-2.5693,-2.5693,-2.5693,-2.5625,-2.5557,-2.5107,-2.4668,-2.4238,-2.3818,-2.3447,-2.3091,-2.3091,-2.3091,-2.3091,-2.3091,-2.3091,-2.3091,-2.3091,-2.3091,-2.3091,-2.3091,-2.3091,-2.3091,-2.3091,-2.3091,-2.3091,-2.3091,-2.3091,-2.3091,-2.3091,-2.3091,-2.3091,-2.3091,-2.3091,-2.2984,-2.249,-2.2119,-2.1758,-2.1201,-2.081,-2.0635,-2.0723,-2.0752,-2.0752,-2.0752,-2.0752,-2.0713,-2.0625,-2.0703,-2.0752,-2.0752,-2.0752,-2.1016,-2.1673,-2.2537,-2.3396,-2.4258,-2.3944,-2.3119,-2.17,-2.143,-2.115,-2.0635,-2.1175,-2.1005,-1.9759,-2.0042,-1.9694,-1.8395,-1.8144,-1.8008,-1.8008,-1.8008,-1.8008,-1.8008,-1.8008,-1.8066,-1.8159,-1.8461,-1.85,-1.9246,-1.9591,-2.0395,-1.9715,-2.014,-2.0859,-2.1141,-2.2438,-2.3606,-2.3628,-2.6183,-2.8417,-2.8417,-2.9776,-3.0742,-3.0293,-3.0195,-2.9893,-2.9053,-2.8574,-2.8144,-2.7767,-2.7738,-2.7748,0.0,-2.8057,-2.8125,-2.7767,-2.7266,-2.6836,-2.6426,-2.5977,-2.5693,-2.5693,-2.5693,-2.5527,-2.5135,-2.4648,-2.4228,-2.3799,-2.3325,-2.311,-2.3091,-2.3091,-2.3091,-2.3091,-2.3091,-2.3091,-2.3091,-2.3091,-2.3091,-2.3091,-2.3091,-2.3091,-2.3091,-2.3091,-2.3091,-2.3091,-2.3091,-2.3091,-2.3091,-2.3091,-2.3091,-2.3091,-2.3091,-2.3091,-2.2925,-2.2139,-2.1894,-2.1689,-2.085,-2.0615,-2.0713,-2.1073,-2.1171,-2.1171,-2.1171,-2.1171,-2.1084,-2.0693,-2.0918,-2.1171,-2.1171,-2.1171,-2.1171,-2.1211,-2.1698,-2.2232,-2.2722,-2.2302,-2.1989,-2.199,-2.152,-2.104,-2.0624,-2.0623,-2.0623,-2.0558,-1.9781,-1.9299,-1.9276,-1.8462,-1.8008,-1.8008,-1.8008,-1.8008,-1.8008,-1.8008,-1.8188,-1.8588,-1.8598,-1.8857,-1.8448,-1.8642,-1.9463,-1.9623,-2.0167,-2.0702,-2.0802,-2.1401,-2.1908,-2.1908,-2.4284,-2.6262,-2.5965,-2.8171,-2.9971,-2.9805,-2.9541,-2.9346,-2.9346,-2.874,-2.8135,-2.7767,-2.7963,0.0,0.0,0.0,0.0,-2.8096,-2.7685,-2.7256,-2.6826,-2.6406,-2.6035,-2.5703,-2.5693,-2.5518,-2.5116,-2.4639,-2.4209,-2.3779,-2.3305,-2.3091,-2.3091,-2.3091,-2.3091,-2.3091,-2.3091,-2.3091,-2.3091,-2.3091,-2.3091,-2.3091,-2.3091,-2.3091,-2.3091,-2.3091,-2.3091,-2.3091,-2.3091,-2.3091,-2.3091,-2.3091,-2.3091,-2.3091,-2.3091,-2.3091,-2.2974,-2.2461,-2.21,-2.1748,-2.1162,-2.1016,-2.1045,-2.1161,-2.1455,-2.167,-2.167,-2.1405,-2.1151,-2.1035,-2.1093,-2.1103,-2.084,-2.1035,-2.1093,-2.083,-2.1476,-2.2312,-2.3109,-2.305,-2.2526,-2.1336,-2.1062,-2.0368,-1.8983,-1.9398,-1.9497,-1.8911,-1.9144,-1.9044,-1.8462,-1.8168,-1.8008,-1.8008,-1.8008,-1.8008,-1.8008,-1.8008,-1.8223,-1.8598,-1.8598,-1.8831,-1.7981,-1.8163,-1.8911,-1.9499,-2.0007,-2.0414,-2.0628,-2.0822,-2.0955,-2.0955,-2.2759,-2.4435,-2.4547,-2.6793,-2.8713,-2.9085,-2.9004,-2.8965,-2.9092,-2.8506,-2.7969,-2.7748,-2.791,-2.7959,0.0,0.0,0.0,-2.8086,-2.7676,-2.7246,-2.6816,-2.6387,-2.6025,-2.5693,-2.5693,-2.5449,-2.4844,-2.456,-2.4131,-2.3555,-2.3227,-2.3091,-2.3091,-2.3091,-2.3091,-2.3091,-2.3091,-2.3091,-2.3091,-2.3091,-2.3091,-2.3091,-2.3091,-2.3091,-2.3091,-2.3091,-2.3091,-2.3091,-2.3091,-2.3091,-2.3091,-2.3091,-2.3091,-2.3091,-2.3091,-2.3091,-2.3013,-2.2627,-2.2207,-2.1787,-2.1307,-2.119,-2.1239,-2.1385,-2.1797,-2.2109,-2.2109,-2.1768,-2.1385,-2.122,-2.1317,-2.1328,-2.0879,-2.1045,-2.1093,-2.085,-2.1227,-2.1745,-2.2376,-2.2339,-2.1723,-2.0411,-2.0124,-1.9454,-1.81,-1.8529,-1.8596,-1.8042,-1.8529,-1.8596,-1.8008,-1.8008,-1.8008,-1.8008,-1.8008,-1.8008,-1.8008,-1.812,-1.8412,-1.8831,-1.8987,-1.9326,-1.7787,-1.8016,-1.8604,-1.9216,-1.9519,-1.988,-2.0434,-2.0601,-2.0628,-2.0615,-2.169,-2.2961,-2.3902,-2.5626,-2.7188,-2.8028,-2.8608,-2.8809,-2.8418,-2.7998,-2.7777,0.0,0.0,0.0,0.0,0.0,0.0,-2.7748,0.0,-2.6885,-2.6445,-2.6025,-2.5732,-2.5693,-2.5693,-2.5274,-2.4453,-2.4404,-2.3919,-2.3091,-2.3091,-2.3091,-2.3091,-2.3091,-2.3091,-2.3091,-2.3091,-2.3091,-2.3091,-2.3091,-2.3091,-2.3091,-2.3091,-2.3091,-2.3091,-2.3091,-2.3091,-2.3091,-2.3091,-2.3091,-2.3091,-2.3091,-2.3091,-2.3091,-2.3091,-2.3091,-2.3013,-2.2656,-2.2227,-2.1787,-2.1337,-2.1229,-2.1327,-2.1787,-2.2217,-2.2549,-2.2549,-2.2217,-2.1797,-2.1337,-2.1621,-2.1768,-2.1327,-2.1239,-2.122,-2.12,-2.0869,-2.0635,-2.0605,-2.0185,-1.9756,-1.9336,-1.8896,-1.8432,-1.8047,-1.8008,-1.8008,-1.8008,-1.8008,-1.8008,-1.8008,-1.8008,-1.8008,-1.8008,-1.8008,-1.8008,-1.8008,-1.8393,-1.8822,-1.9297,-1.9717,-2.0146,-1.7903,-1.7869,-1.8142,-1.8295,-1.8604,-1.8865,-1.9018,-1.9553,-1.996,-1.9746,-2.0886,-2.1782,-2.1528,-2.4213,-2.6528,-2.6763,-2.8294,0.0,-2.9258,-2.8867,0.0,-2.8164,-2.8135,-2.8135,-2.8135,-2.8232,0.0,0.0,-2.7851,-2.7646,-2.6894,-2.6748,-2.6347,-2.5703,-2.5693,-2.5469,-2.4912,-2.4268,-2.3682,-2.3091,-2.3091,-2.3091,-2.3091,-2.3091,-2.3091,-2.3091,-2.3091,-2.3091,-2.3091,-2.3091,-2.3091,-2.3091,-2.3091,-2.3091,-2.3091,-2.3091,-2.3091,-2.3091,-2.3091,-2.3091,-2.3091,-2.3091,-2.3091,-2.3091,-2.3091,-2.3091,-2.3071,-2.2964,-2.2451,-2.1865,-2.1748,-2.1719,-2.1748,-2.1865,-2.2441,-2.2935,-2.2935,-2.2646,-2.2314,-2.2207,-2.2021,-2.1953,-2.2158,-2.1924,-2.1611,-2.1239,-2.1103,-2.0947,-2.0644,-2.0185,-1.9756,-1.9336,-1.8896,-1.8432,-1.8047,-1.8008,-1.8008,-1.8008,-1.8008,-1.8008,-1.8008,-1.8008,-1.8008,-1.8008,-1.8008,-1.8008,-1.8008,-1.8393,-1.8822,-1.9297,-1.9717,-2.0146,-1.7786,-1.7709,-1.7842,-1.7842,-1.7869,-1.8131,-1.8917,-1.9055,-1.9149,-1.9528,-1.9815,-2.0039,-2.0117,-2.2295,-2.4427,-2.5576,-2.715,-2.848,-2.9167,-2.8916,-2.8623,-2.8574,-2.8408,0.0,-2.8291,-2.8291,-2.8193,0.0,-2.7988,-2.7646,-2.6787,-2.6738,-2.6435,-2.5713,-2.5693,-2.5518,-2.5116,-2.4033,-2.3477,-2.3418,-2.3188,-2.3091,-2.3091,-2.3091,-2.3091,-2.3091,0.0,-2.3091,-2.3091,-2.3091,-2.3091,-2.3091,-2.3091,-2.3091,-2.3091,-2.3091,-2.3091,-2.3091,-2.3091,-2.3091,-2.3091,-2.3091,-2.3091,-2.3091,-2.3091,-2.3091,-2.3091,-2.3091,-2.2666,-2.2158,-2.2158,-2.2158,-2.2158,-2.2158,-2.2656,-2.3091,-2.3091,-2.2769,-2.251,-2.251,-2.2168,-2.208,-2.2643,-2.2129,-2.1582,-2.1533,-2.1191,-2.085,-2.0635,-2.0185,-1.9756,-1.9336,-1.8896,-1.8432,-1.8047,-1.8008,-1.8008,-1.8008,-1.8008,-1.8008,-1.8008,-1.8184,-1.8159,-1.8018,-1.8159,-1.8193,-1.8008,-1.8393,-1.8822,-1.9297,-1.9717,-2.0146,-1.7582,-1.7522,-1.7475,-1.7515,-1.7333,-1.7527,-1.9329,-1.8776,-1.8224,-1.9475,-1.8758,-1.8204,-1.9117,-2.0284,-2.1892,-2.4192,-2.572,-2.7076,-2.848,-2.8631,-2.8623,-2.8809,-2.8564,-2.8359,-2.8301,-2.834,-2.8359,-2.8301,-2.8008,-2.7461,-2.6602,-2.6504,-2.624,-2.5703,-2.5693,-2.5518,-2.5116,-2.3896,-2.3467,-2.3779,-2.3305,-2.3091,-2.3091,-2.3091,-2.3091,-2.3091,0.0,0.0,-2.3091,-2.3091,-2.3091,-2.3091,-2.3091,-2.3091,-2.3091,-2.3091,-2.3091,-2.3091,-2.3091,-2.3091,-2.3091,-2.3091,-2.3091,-2.3091,-2.3091,-2.3091,-2.3091,-2.3091,-2.2789,-2.251,-2.251,-2.251,-2.251,-2.251,-2.2789,-2.3091,-2.3091,-2.2808,-2.2578,-2.2519,-2.2266,-2.2266,-2.2896,-2.2048,-2.1445,-2.1826,-2.1173,-2.0605,-2.0605,-2.0185,-1.9775,-1.9404,-1.8984,-1.852,-1.8091,-1.8096,-1.8066,-1.8018,-1.8008,-1.8037,-1.8086,-1.8403,-1.8461,-1.8184,-1.85,-1.851,-1.8174,-1.8568,-1.8968,-1.9375,-1.9805,-2.0205,-1.7582,-1.7228,-1.6921,-1.7213,-1.6871,-1.6852,-1.8381,-1.8027,-1.7589,-1.8569,-1.818,-1.7674,-1.763,-1.9239,-2.101,-2.2173,-2.4949,-2.7112,-2.7384,-2.8814,-2.9502,-2.8516,-2.8643,-2.8672,-2.833,-2.8603,0.0,0.0,0.0,-2.833,-2.7542,-2.71,-2.6543,-2.5713,-2.5693,-2.5518,-2.5116,-2.4482,-2.4062,-2.3779,-2.3305,-2.3091,-2.3091,-2.3091,-2.3091,-2.3091,-2.3091,0.0,-2.3091,-2.3091,-2.3091,-2.3091,-2.3091,-2.3091,-2.3091,-2.3091,-2.3091,-2.3091,-2.3091,-2.3091,-2.3091,-2.3091,-2.3091,-2.3091,-2.3091,-2.3091,-2.3091,-2.3091,-2.2789,-2.251,-2.251,-2.251,-2.251,-2.251,-2.2789,-2.3091,-2.3091,-2.3042,-2.2886,-2.2578,-2.2691,-2.2818,-2.2656,-2.2148,-2.1797,-2.1875,-2.1173,-2.0605,-2.0605,-2.0185,-1.9883,-1.9814,-1.9424,-1.8994,-1.8529,-1.849,-1.8344,-1.8037,-1.8008,-1.8164,-1.8481,-1.8559,-1.8734,-1.9062,-1.9131,-1.9141,-1.9072,-1.9492,-1.9727,-1.9814,-2.0254,-2.0537,-1.8411,-1.8322,-1.8203,-1.9089,-1.8304,-1.7686,-1.9016,-1.7853,-1.6757,-1.7849,-1.7471,-1.686,-1.677,-1.7953,-1.9389,-2.0649,-2.3264,-2.5558,-2.6642,-2.817,-2.9062,-2.8662,-2.8789,-2.8838,-2.8643,-2.8799,-2.8838,0.0,0.0,-2.832,-2.7748,-2.7051,-2.6396,-2.5703,-2.5508,-2.54,-2.541,-2.4531,-2.4102,-2.4111,-2.3413,-2.3091,-2.3091,-2.3091,-2.3091,-2.3091,-2.3091,0.0,-2.3091,-2.3091,-2.3091,-2.3091,-2.3091,-2.3091,-2.3091,-2.3091,-2.3091,-2.3091,-2.3091,-2.3091,-2.3091,-2.3091,-2.3091,-2.3091,-2.3091,-2.3091,-2.3091,-2.3091,-2.2955,-2.2789,-2.2789,-2.2789,-2.2789,-2.2789,-2.2945,-2.3091,-2.3091,-2.3091,-2.2974,-2.2598,-2.2676,-2.2711,-2.2549,-2.1973,-2.1699,-2.2148,-2.1269,-2.0693,-2.0889,-2.0527,-2.0166,-1.9941,-1.9541,-1.9111,-1.8637,-1.8403,-1.8223,-1.8018,-1.8213,-1.8393,-1.8598,-1.9026,-1.9297,-1.9287,-1.9502,-1.9502,-1.9287,-1.9492,-1.9697,-1.9922,-2.0127,-2.039,-1.9118,-1.9388,-1.9559,-2.0949,-1.9998,-1.8933,-1.9983,-1.8135,-1.648,-1.7505,-1.6963,-1.6321,-1.6321,-1.6834,-1.7836,-1.9324,-2.1592,-2.3756,-2.5646,-2.7371,-2.8516,-2.875,-2.8867,0.0,-2.8789,-2.8867,0.0,0.0,0.0,0.0,-2.7549,-2.6894,-2.6279,-2.5703,-2.54,-2.5381,-2.5684,-2.4531,-2.4092,-2.4404,-2.35,-2.3091,-2.3091,-2.3091,-2.3091,-2.3091,-2.3091,0.0,0.0,-2.3091,-2.3091,-2.3091,-2.3091,-2.3091,-2.3091,-2.3091,-2.3091,-2.3091,-2.3091,-2.3091,-2.3091,-2.3091,-2.3091,-2.3091,-2.3091,-2.3091,-2.3091,-2.3091,-2.3091,-2.3091,-2.3091,-2.3091,-2.3091,-2.3091,-2.3023,-2.2984,-2.3081,-2.3023,-2.2867,-2.2578,-2.2588,-2.2617,-2.2529,-2.1885,-2.1561,-2.2275,-2.1348,-2.0693,-2.1045,-2.0781,-2.0478,-2.0088,-1.9756,-1.9385,-1.8909,-1.8568,-1.8379,-1.8291,-1.8594,-1.8783,-1.887,-1.9551,-1.9805,-1.957,-1.9883,-1.9893,-1.9597,-1.9597,-1.9727,-2.0059,-2.0059,-2.0293,-1.8914,-1.9388,-1.9613,-2.1267,-2.0801,-2.006,-2.0446,-1.8965,-1.7552,-1.7692,-1.6963,-1.6321,-1.6321,-1.6388,-1.679,-1.8009,-2.0464,-2.2659,-2.3861,-2.6811,-2.874,-2.8389,0.0,0.0,-2.8389,-2.8701,0.0,0.0,0.0,0.0,-2.71,-2.7002,-2.6582,-2.5713,-2.5645,-2.5645,-2.5693,-2.4824,-2.4375,-2.4404,-2.35,-2.3091,-2.3091,-2.3091,-2.3091,-2.3091,-2.3091,0.0,0.0,-2.3091,-2.3091,-2.3091,-2.3091,-2.3091,-2.3091,-2.3091,-2.3091,-2.3091,-2.3091,-2.3091,-2.3091,-2.3091,-2.3091,-2.3091,-2.3091,-2.3091,-2.3091,-2.3091,-2.3091,-2.3091,-2.3091,-2.3091,-2.3091,-2.3091,-2.2808,-2.2676,-2.3013,-2.2789,-2.2559,-2.2519,-2.2779,-2.2916,-2.2578,-2.2129,-2.1846,-2.1934,-2.1192,-2.0615,-2.0664,-2.0635,-2.0586,-2.0546,-2.0507,-2.0273,-1.9834,-1.9766,-1.958,-1.9189,-1.9209,-1.9394,-1.9785,-1.9873,-2.0078,-2.0478,-2.0527,-2.0527,-2.0488,-2.0488,-2.0507,-2.0546,-2.0546,-2.0742,-2.0248,-2.14,-2.2469,-2.4673,-2.3413,-2.1808,-2.2702,-2.0766,-1.8772,-1.8772,-1.8512,-1.8232,-1.8232,-1.7635,-1.7591,-1.9053,-2.0183,-2.1531,-2.3244,-2.5512,-2.7129,-2.748,-2.8125,0.0,0.0,0.0,0.0,0.0,0.0,0.0,-2.7041,-2.6777,-2.6367,-2.5703,-2.5693,-2.5693,-2.5693,-2.4863,-2.4414,-2.4404,-2.35,-2.3091,-2.3091,-2.3091,-2.3091,-2.3091,-2.3091,0.0,0.0,-2.3091,-2.3091,-2.3091,-2.3091,-2.3091,-2.3091,-2.3091,-2.3091,-2.3091,-2.3091,-2.3091,-2.3091,-2.3091,-2.3091,-2.3091,-2.3091,-2.3091,-2.3091,-2.3091,-2.3091,-2.3091,-2.3091,-2.3091,-2.3091,-2.3091,-2.2974,-2.2896,-2.3062,-2.2964,-2.2769,-2.2568,-2.2646,-2.2705,-2.2539,-2.1943,-2.167,-2.2187,-2.1289,-2.0703,-2.0937,-2.0732,-2.0605,-2.0605,-2.037,-2.0098,-1.9932,-1.9678,-1.9463,-1.9297,-1.9531,-1.9736,-1.9902,-2.0166,-2.0429,-2.0595,-2.0605,-2.0605,-2.0605,-2.0605,-2.0605,-2.0615,-2.084,-2.1064,-2.0819,-2.2322,-2.3714,-2.6388,-2.5067,-2.3252,-2.3744,-2.1871,-1.9943,-1.9579,-1.9497,-1.9497,-1.9497,-1.8818,-1.8613,-1.9827,-2.0399,-2.1324,-2.3151,-2.4733,-2.6005,-2.6914,0.0,-2.7917,0.0,-2.7972,0.0,0.0,0.0,0.0,-2.7031,-2.6494,-2.6055,-2.5703,-2.5693,-2.5693,-2.5693,-2.4863,-2.4414,-2.4404,-2.35,-2.3091,-2.3091,-2.3091,-2.3091,-2.3091,0.0,0.0,0.0,-2.3091,-2.3091,-2.3091,-2.3091,-2.3091,-2.3091,-2.3091,-2.3091,-2.3047,-2.2677,-2.2589,-2.2589,-2.2589,-2.2315,-2.2183,-2.2862,-2.3091,-2.3091,-2.3091,-2.3091,-2.3091,-2.3091,-2.3091,-2.3091,-2.3091,-2.3003,-2.2945,-2.3062,-2.3003,-2.2818,-2.2568,-2.2617,-2.2656,-2.2539,-2.197,-2.1736,-2.2256,-2.1435,-2.083,-2.1016,-2.0762,-2.0605,-2.0605,-2.0293,-2.0107,-2.0107,-1.9834,-1.9668,-1.9668,-1.9941,-2.0107,-2.0107,-2.0439,-2.0605,-2.0605,-2.0605,-2.0605,-2.0605,-2.0605,-2.0605,-2.0615,-2.1025,-2.1327,-2.0127,-2.147,-2.2357,-2.5069,-2.5068,-2.4081,-2.2887,-2.1925,-2.0935,-1.9761,-1.9497,-1.9497,-1.9497,-1.9497,-1.9566,-1.9874,-2.1076,-2.2386,-2.352,-2.4864,-2.6005,0.0,0.0,-2.6601,-2.553,0.0,0.0,0.0,0.0,0.0,-2.7012,-2.6161,-2.5693,-2.5693,-2.5693,-2.5693,-2.5693,-2.4863,-2.4414,-2.4404,-2.35,-2.3091,-2.3091,-2.3091,-2.3091,0.0,0.0,0.0,0.0,-2.3091,-2.3091,-2.3091,-2.3091,-2.3091,-2.3091,-2.3091,-2.3091,-2.2916,-2.1712,-2.1337,-2.1337,-2.1337,-2.0531,-1.9988,-2.2359,-2.3091,-2.3091,-2.3091,-2.3091,-2.3091,-2.3091,-2.3091,-2.3091,-2.3091,-2.2822,-2.2637,-2.3003,-2.2769,-2.2519,-2.251,-2.2808,-2.2955,-2.2588,-2.251,-2.2353,-2.1953,-2.1514,-2.1064,-2.0664,-2.0605,-2.0605,-2.0605,-2.0595,-2.0595,-2.0595,-2.0595,-2.0595,-2.0595,-2.0595,-2.0595,-2.0595,-2.0605,-2.0605,-2.0605,-2.0605,-2.0605,-2.0605,-2.0605,-2.0605,-2.0615,-2.1025,-2.1648,-2.1626,-2.2772,-2.3966,-2.5659,-2.5027,-2.411,-2.4546,-2.3531,-2.2403,-2.2041,-2.1952,-2.1952,-2.1952,-2.1311,-2.1202,-2.2714,-2.2419,-2.263,-2.4392,-2.5237,0.0,-2.5371,-2.5263,-2.5362,0.0,0.0,0.0,0.0,0.0,0.0,0.0,-2.5996,-2.5693,-2.5693,-2.5693,-2.5596,-2.5283,-2.4707,-2.4277,-2.3984,-2.3408,-2.3091,-2.3091,-2.3091,0.0,0.0,0.0,0.0,0.0,-2.3091,-2.3091,-2.3091,-2.3091,-2.3091,-2.3091,-2.3091,-2.3091,-2.2916,-2.1702,-2.1845,-2.2262,-2.0621,-2.035,-2.089,-2.1623,-2.1302,-2.0809,-2.1623,-2.2448,-2.3091,-2.3091,-2.3091,-2.3091,-2.3091,-2.2994,-2.2935,-2.3062,-2.2994,-2.2896,-2.2896,-2.2769,-2.2754,-2.2867,-2.2175,-2.1699,-2.1865,-2.125,-2.0723,-2.0625,-2.0605,-2.0605,-2.0605,-2.0605,-2.0605,-2.0605,-2.0605,-2.0605,-2.0605,-2.0605,-2.0605,-2.0605,-2.0605,-2.0605,-2.0605,-2.0605,-2.0605,-2.0605,-2.0869,-2.1328,-2.1894,-2.2041,-2.236,-2.2278,-2.2917,-2.3978,-2.5245,-2.4661,-2.4004,-2.4764,-2.3991,-2.3091,-2.3091,-2.3091,-2.3091,-2.3091,-2.2492,-2.2387,-2.3703,-2.2785,-2.2677,-2.48,0.0,0.0,-2.4938,0.0,0.0,0.0,0.0,0.0,0.0,0.0,0.0,0.0,-2.5977,-2.5412,-2.4792,-2.5237,-2.5352,-2.5116,-2.4046,-2.3385,-2.3138,-2.2656,-2.2403,-2.2448,-2.2906,0.0,0.0,0.0,0.0,0.0,-2.3091,-2.3091,-2.3091,-2.3091,-2.3091,-2.3091,-2.3091,-2.3091,-2.2916,-2.1702,-2.18,-2.2145,-2.0508,-2.0766,-2.1607,-2.0846,-2.0711,-2.0989,-2.1756,-2.2536,-2.3091,-2.3091,-2.3091,-2.3091,-2.3091,-2.3091,-2.3091,-2.3091,-2.2974,-2.2808,-2.2695,-2.2451,-2.2353,-2.2617,-2.2012,-2.1572,-2.1846,-2.1279,-2.0752,-2.0625,-2.0605,-2.0605,-2.0605,-2.0605,-2.0605,-2.0605,-2.0605,-2.0605,-2.0605,-2.0605,-2.0605,-2.0605,-2.0605,-2.0605,-2.0605,-2.0605,-2.0683,-2.082,-2.1269,-2.1836,-2.251,-2.251,-2.2744,0.0,-2.2242,-2.2757,-2.3994,-2.4033,-2.374,-2.374,-2.3428,0.0,-2.3091,-2.3091,-2.3091,-2.3091,-2.3091,-2.311,-2.314,-2.2406,-2.263,0.0,-2.4628,0.0,0.0,-2.423,0.0,0.0,0.0,0.0,0.0,0.0,0.0,0.0,-2.5859,-2.4879,-2.3365,-2.425,-2.4754,-2.4725,-2.2815,-2.1869,-2.1934,-2.1527,-2.1337,-2.148,-2.2589,0.0,0.0,0.0,0.0,0.0,-2.3091,-2.3091,-2.3091,-2.3091,-2.3091,-2.3091,-2.3091,-2.3091,-2.2916,-2.1702,-2.1319,-2.1327,-2.0833,-2.1497,-2.205,-2.021,-2.1266,-2.3091,-2.3003,-2.3047,-2.3091,-2.3091,-2.3091,-2.3091,-2.3091,-2.3091,-2.3091,-2.3091,-2.2769,-2.2402,-2.2012,-2.1875,-2.1846,-2.1875,-2.1836,-2.1807,-2.1836,-2.1465,-2.1035,-2.0664,-2.0635,-2.0635,-2.0605,-2.0635,-2.0635,-2.0605,-2.0635,-2.0654,-2.0654,-2.0674,-2.0683,-2.0654,-2.0683,-2.0683,-2.0654,-2.0683,-2.0879,-2.1288,-2.1728,-2.2129,-2.251,-2.2539,-2.2711,-2.29,0.0,-2.3028,-2.3349,-2.3325,-2.3247,0.0,-2.3169,-2.3091,-2.3091,-2.3091,-2.3091,-2.3091,-2.3091,-2.3198,-2.3584,-2.287,-2.3043,-2.5257,0.0,0.0,-2.3845,-2.2013,0.0,0.0,0.0,0.0,0.0,0.0,-2.624,0.0,-2.4763,-2.3914,-2.3317,-2.2215,-2.1518,-2.1272,-2.0772,-2.0865,-2.1446,-2.1338,-2.18,-2.2677,-2.296,0.0,0.0,0.0,0.0,-2.3091,-2.3091,-2.3091,-2.3091,-2.3091,-2.3091,-2.3091,-2.3091,-2.3091,-2.2916,-2.1702,-2.1695,-2.2059,-2.1012,-2.1098,-2.1504,-2.1025,-2.1917,-2.2916,-2.1987,-2.2403,-2.3091,-2.3091,-2.3091,-2.3091,-2.3091,-2.3091,-2.3091,-2.3091,-2.2769,-2.248,-2.2383,-2.1836,-2.1494,-2.1826,-2.1368,-2.0996,-2.1338,-2.1006,-2.0723,-2.0615,-2.0869,-2.0947,-2.0644,-2.0869,-2.0937,-2.0635,-2.0879,-2.1074,-2.1074,-2.1396,-2.1426,-2.1094,-2.1396,-2.1416,-2.1084,-2.1406,-2.1787,-2.2207,-2.2314,-2.2412,-2.2519,-2.2799,-2.2828,-2.3091,-2.3091,-2.3091,-2.3091,-2.3091,-2.3091,-2.3091,-2.3091,-2.3091,-2.3091,-2.3091,-2.3091,-2.3091,-2.3257,-2.3516,-2.375,-2.3327,0.0,0.0,0.0,-2.3345,-2.2767,-2.1524,0.0,0.0,0.0,0.0,0.0,0.0,0.0,0.0,-2.4221,-2.3005,-2.1852,-2.0334,-1.9709,-2.0118,-1.9355,-1.9502,-2.0486,-2.0486,-2.1123,-2.2306,-2.2862,-2.3091,0.0,0.0,0.0,-2.3091,-2.3091,-2.3091,-2.3091,-2.3091,-2.3091,-2.3091,-2.3091,-2.3091,-2.3003,-2.235,-2.2269,-2.2411,-2.1962,-2.182,-2.1886,-2.2082,-2.2599,-2.296,-2.2306,-2.2589,-2.3091,-2.3091,-2.3091,-2.3091,-2.3091,-2.3091,-2.3091,-2.3091,-2.2769,-2.251,-2.251,-2.1785,-2.1395,-2.206,-2.1279,-2.083,-2.1435,-2.0977,-2.0605,-2.0605,-2.0957,-2.1103,-2.0898,-2.1269,-2.1435,-2.1231,-2.1572,-2.1609,-2.122,-2.1455,-2.1572,-2.1533,-2.1768,-2.1777,-2.1543,-2.1953,-2.2285,-2.251,-2.251,-2.251,-2.2519,-2.2701,-2.2734,-2.3091,-2.314,-2.3179,-2.311,-2.3091,-2.3091,-2.3091,-2.3091,-2.3091,-2.3091,-2.3091,-2.3076,-2.2915,-2.3402,-2.3673,-2.336,0.0,0.0,-2.3002,-2.3149,-2.2798,-2.1481,0.0,0.0,0.0,0.0,0.0,0.0,0.0,0.0,0.0,-2.3742,-2.2097,-2.0135,-1.8719,-1.8466,-1.9428,-1.8092,-1.8087,-1.9497,-1.9497,-2.0215,-2.1614,-2.2633,-2.3091,0.0,0.0,0.0,-2.3091,-2.3091,-2.3091,-2.3091,-2.3091,-2.3091,-2.3091,-2.3091,-2.3091,-2.3081,-2.3023,-2.2808,-2.2656,-2.2906,-2.2808,-2.2676,-2.2984,-2.3091,-2.3091,-2.3091,-2.3091,-2.3091,-2.3091,-2.3091,-2.3091,-2.3091,-2.3091,-2.3091,-2.3091,-2.2769,-2.251,-2.251,-2.1834,-2.1522,-2.2295,-2.1445,-2.0928,-2.168,-2.1094,-2.0605,-2.0605,-2.1016,-2.1268,-2.12,-2.168,-2.1953,-2.1894,-2.2207,-2.2139,-2.1434,-2.1453,-2.1689,-2.206,-2.2012,-2.2012,-2.207,-2.2432,-2.2607,-2.2607,-2.2607,-2.2578,-2.251,-2.251,-2.251,-2.3091,-2.3408,-2.3603,-2.3188,-2.3091,-2.3091,-2.3091,-2.3091,-2.3091,-2.3091,-2.3091,-2.289,-2.2144,-2.3009,-2.3151,-2.1255,0.0,-2.1831,0.0,0.0,-2.1267,0.0,0.0,0.0,0.0,0.0,0.0,0.0,0.0,0.0,0.0,-2.2836,-2.1116,-2.0143,-1.7827,-1.6574,-1.6448,-1.6224,-1.7257,-1.9497,-1.9497,-2.0674,-2.2818,-2.3003,-2.3091,0.0,0.0,-2.3091,-2.3091,-2.3091,-2.3091,-2.3091,-2.3091,-2.3091,-2.3091,-2.3091,-2.3091,-2.3042,-2.2691,-2.275,-2.2955,-2.2705,-2.276,-2.3013,-2.3081,-2.3091,-2.3091,-2.3091,-2.3091,-2.3091,-2.3091,-2.3091,-2.3091,-2.3091,-2.3091,-2.3091,-2.3091,-2.2769,-2.251,-2.251,-2.2119,-2.1826,-2.1963,-2.1514,-2.1142,-2.1278,-2.0898,-2.0605,-2.0605,-2.1279,-2.1641,-2.1239,-2.1902,-2.2275,-2.1914,-2.1943,-2.208,-2.2305,-2.2604,-2.2828,-2.2896,-2.2607,-2.2578,-2.2896,-2.2964,-2.3003,-2.3003,-2.3003,-2.2818,-2.251,-2.251,-2.251,-2.212,-2.1814,-2.1454,-2.1391,-2.2421,-2.3428,-2.3149,-2.3091,-2.3091,-2.3091,-2.3091,-2.2821,-2.1952,-2.2602,-2.2937,-2.2044,0.0,-2.104,-2.0478,-2.0083,0.0,0.0,0.0,0.0,0.0,0.0,0.0,0.0,0.0,0.0,0.0,0.0,-2.0376,-1.9799,-1.7334,-1.5965,-1.5784,-1.5784,-1.707,-1.9497,-1.9497,-2.0764,-2.3091,-2.3091,-2.2721,-2.212,0.0,-2.212,-2.212,-2.212,-2.2492,-2.3091,-2.3091,-2.3091,-2.3091,-2.3091,-2.3091,-2.3062,-2.2877,-2.2935,-2.3023,-2.2646,-2.275,-2.3052,-2.2828,-2.2916,-2.3091,-2.3091,-2.3091,-2.3091,-2.3091,-2.3091,-2.3091,-2.3091,-2.3091,-2.3091,-2.3091,-2.2945,-2.2808,-2.2808,-2.251,-2.2295,-2.2519,-2.2021,-2.1582,-2.1582,-2.1211,-2.0928,-2.0928,-2.1494,-2.1894,-2.1882,-2.248,-2.273,-2.2578,-2.2568,-2.2549,-2.251,-2.2867,-2.3091,-2.3091,-2.2906,-2.2896,-2.3091,-2.3091,-2.3091,-2.3091,-2.2867,-2.2705,-2.251,-2.251,-2.251,-2.0908,-2.051,-2.0037,-1.9851,-2.1533,-2.3182,-2.2968,-2.3084,-2.3276,-2.3374,-2.3162,-2.2666,-2.1673,-2.1533,-2.1786,-2.2366,-2.1169,-2.0303,-2.0735,0.0,0.0,0.0,0.0,0.0,0.0,0.0,0.0,0.0,0.0,0.0,0.0,0.0,-1.9767,-1.9101,-1.6936,-1.5784,-1.5784,-1.5784,-1.707,-1.9497,-1.9497,-2.0764,-2.3091,-2.2818,-2.2164,-2.1293,-2.098,-2.089,-2.089,-2.1159,-2.1845,-2.2721,-2.3003,-2.3091,-2.3091,-2.3091,-2.3091,-2.3091,-2.3091,-2.3091,-2.3023,-2.2646,-2.275,-2.2969,-2.2274,-2.2351,-2.2633,-2.2315,-2.2271,-2.2413,-2.296,-2.3091,-2.3091,-2.3091,-2.3091,-2.3091,-2.3091,-2.3091,-2.3091,-2.3091,-2.2838,-2.2625,-2.2673,-2.2074,-2.1514,-2.1117,-2.0999,-2.0883,-2.0828,-2.1525,-2.2158,-2.248,-2.2847,-2.3091,-2.3091,-2.3091,-2.2868,-2.227,-2.2776,-2.3091,-2.3091,-2.3091,-2.3091,-2.3091,-2.3091,-2.3091,-2.3091,-2.2769,-2.2656,-2.2656,-2.2559,-2.2568,-1.985,-2.0717,-2.1431,-1.9887,-2.0529,-2.1662,-2.2304,-2.3128,-2.3857,-2.4248,-2.3327,-2.2099,-2.0912,-1.9192,-1.8492,-2.0083,-1.9568,-1.9162,0.0,0.0,0.0,0.0,0.0,0.0,0.0,0.0,0.0,0.0,0.0,0.0,0.0,0.0,0.0,-1.7878,-1.6527,-1.5784,-1.5784,-1.5784,-1.707,-1.9497,-1.9497,-2.0764,-2.3047,-2.1943,-2.1382,-2.1248,-2.0124,-1.9633,-1.9716,-2.0845,-2.1337,-2.1525,-2.2677,-2.3091,-2.3091,-2.3091,-2.3091,-2.3091,-2.3091,-2.3091,-2.3023,-2.2646,-2.275,-2.2838,-2.1286,-2.1118,-2.1203,-2.0079,-1.977,-2.026,-2.2501,-2.3091,-2.3091,-2.3091,-2.3091,-2.3091,-2.3091,-2.3091,-2.3091,-2.3091,-2.3071,-2.2692,-2.1614,-2.1082,-2.0285,-1.8853,-1.9459,-1.9991,-1.9752,-2.1341,-2.248,-2.251,-2.2847,-2.3091,-2.3091,-2.3091,-2.2614,-2.1444,-2.2473,-2.3091,-2.3091,-2.3091,-2.3091,-2.3091,-2.3091,-2.3091,-2.3091,-2.3062,-2.3052,-2.3042,-2.2652,-2.2682,-1.8593,-1.8272,-1.8059,-1.7629,-1.8279,-1.9353,-2.0547,-2.1971,-2.3019,-2.2824,-2.2773,-2.214,-1.9982,-1.8518,-1.7834,-1.8668,-1.8707,-1.8698,0.0,0.0,0.0,0.0,0.0,0.0,0.0,0.0,0.0,0.0,0.0,0.0,0.0,0.0,0.0,-1.7738,-1.648,-1.5784,-1.5784,-1.5784,-1.6662,-1.8365,-1.8365,-1.9231,-2.0854,-2.0395,-1.9761,-1.9039,-1.8596,-1.8365,-1.8457,-1.967,-2.0621,-2.1436,-2.2633,-2.3091,-2.3091,-2.3091,-2.3091,-2.3091,-2.3091,-2.3091,-2.3023,-2.2646,-2.275,-2.2926,-2.2093,-2.1574,-2.1203,-2.0755,-2.0079,-1.9724,-2.0629,-2.14,-2.1987,-2.1987,-2.2536,-2.3091,-2.3091,-2.3091,-2.3091,-2.3091,-2.3091,-2.296,-2.2492,-2.2271,-2.1904,-2.1096,-2.1296,-2.1504,-2.1427,-2.2042,-2.2617,-2.2838,-2.3003,-2.3091,-2.3091,-2.3091,-2.2916,-2.2448,-2.2862,-2.2765,-2.2031,-2.2677,-2.3091,-2.3091,-2.3091,-2.2721,-2.1987,-2.1987,-2.1578,-2.0899,-2.1476,-2.1847,-1.7472,-1.703,-1.6845,-1.6265,-1.6989,-1.8018,-1.8757,-2.0492,-2.189,-2.1655,-2.1657,-2.0941,-1.8692,-1.7853,-1.7515,0.0,-1.817,0.0,0.0,0.0,0.0,0.0,0.0,0.0,0.0,0.0,0.0,0.0,0.0,0.0,0.0,0.0,0.0,0.0,-1.6244,-1.5784,-1.5784,-1.5784,-1.6251,-1.7084,-1.7084,-1.7948,-1.9497,-1.9093,-1.8503,-1.7692,-1.7271,-1.7084,-1.7217,-1.8856,-2.044,-2.1943,-2.2775,-2.3091,-2.3091,-2.3091,-2.3091,-2.3091,-2.3091,-2.3091,-2.3023,-2.2646,-2.275,-2.2969,-2.2188,-2.1355,-2.0657,-2.026,-1.9588,-1.8948,-1.8948,-2.0124,-2.1391,-2.18,-2.2492,-2.3091,-2.3091,-2.3091,-2.3091,-2.3091,-2.3091,-2.3003,-2.2589,-2.2536,-2.2261,-2.1553,-2.1815,-2.2078,-2.2031,-2.2403,-2.2779,-2.3062,-2.3091,-2.3091,-2.3091,-2.3091,-2.295,-2.2536,-2.2906,-2.2536,-2.1337,-2.2448,-2.2731,-2.1996,-2.2731,-2.2315,-2.0747,-2.1114,-2.0666,-1.9542,-2.035,-2.0944,-1.6579,-1.7576,-1.8856,-1.6426,-1.6942,-1.7826,-1.6932,-1.8739,-2.0677,-2.1081,-1.9846,-1.8311,-1.695,-1.6991,0.0,-1.7192,0.0,0.0,0.0,0.0,0.0,0.0,0.0,0.0,0.0,0.0,0.0,0.0,0.0,0.0,0.0,0.0,0.0,0.0,-1.5784,-1.5784,-1.5784,-1.5784,-1.5784,-1.5784,-1.5784,-1.707,-1.9405,-1.8226,-1.7684,-1.7591,-1.6339,-1.5778,-1.6008,-1.8442,-2.0908,-2.3057,-2.3091,-2.3091,-2.3091,-2.3091,-2.3091,-2.3091,-2.3091,-2.3091,-2.3023,-2.2656,-2.2803,-2.2785,-2.12,-2.0146,-1.9268,-1.8048,-1.7738,-1.7738,-1.7731,-1.9497,-2.1614,-2.2818,-2.3091,-2.3091,-2.3091,-2.3047,-2.3047,-2.3091,-2.3091,-2.2721,-2.1525,-2.1337,-2.0802,-1.9373,-2.0376,-2.1246,-2.0953,-2.2201,-2.3091,-2.3091,-2.3091,-2.3091,-2.3091,-2.3091,-2.2589,-2.1337,-2.2403,-2.2536,-2.1337,-2.2448,-2.1952,-1.9542,-2.1863,-2.1863,-1.9497,-2.0666,-2.0621,-1.9451,-1.9497,-2.0124,-1.6175,-1.6332,-1.6702,-1.5967,-1.6334,-1.6773,-1.6478,-1.8129,-1.9825,-2.0167,-1.9197,-1.795,-1.6909,-1.6613,0.0,-1.6583,0.0,0.0,0.0,0.0,0.0,0.0,0.0,0.0,0.0,0.0,0.0,0.0,0.0,0.0,0.0,0.0,0.0,0.0,-1.5784,-1.5784,-1.5784,-1.5784,-1.5784,-1.5784,-1.5784,-1.6197,-1.6875,-1.635,-1.6075,-1.6075,-1.5664,-1.5524,-1.5677,-1.7487,-1.9185,-2.0629,-2.1489,-2.1845,-2.1943,-2.2775,-2.3091,-2.3091,-2.3091,-2.3091,-2.3071,-2.2945,-2.2994,-2.3028,-2.2533,-2.162,-2.0702,-2.035,-1.9625,-1.9177,-2.0034,-2.0755,-2.1382,-2.1756,-2.1845,-2.1845,-2.1845,-2.1177,-2.0809,-2.1667,-2.1845,-2.1987,-2.2492,-2.2589,-2.241,-2.1979,-2.2284,-2.2541,-2.2461,-2.2829,-2.3091,-2.3091,-2.3091,-2.2775,-2.1926,-2.181,-2.1302,-2.0124,-2.035,-2.0404,-2.0034,-2.1212,-2.1123,-1.9542,-2.0223,-1.9815,-1.8226,-1.8588,-1.8126,-1.6929,-1.7816,-1.8411,-1.6162,-1.615,-1.6461,-1.6068,-1.6226,-1.6446,-1.6446,-1.7449,-1.8362,-1.8549,-1.7938,-1.7231,-1.6648,-1.6393,0.0,0.0,0.0,0.0,0.0,0.0,0.0,0.0,0.0,0.0,0.0,0.0,0.0,0.0,0.0,0.0,0.0,0.0,0.0,0.0,-1.5784,-1.5784,-1.5784,-1.5784,-1.5784,-1.5784,-1.5712,-1.5658,-1.5651,-1.5478,-1.5398,-1.5398,-1.5398,-1.5661,-1.6218,-1.7272,-1.8411,-1.9625,-2.0845,-2.1293,-2.1436,-2.2633,-2.3091,-2.3091,-2.3091,-2.2775,-2.2403,-2.2403,-2.2041,-2.1676,-2.1676,-2.0809,-1.9852,-1.9852,-1.936,-1.8948,-1.967,-2.0215,-2.0711,-2.1203,-2.1302,-2.1177,-2.0711,-2.0034,-1.9852,-2.1069,-2.1293,-2.1658,-2.2906,-2.3091,-2.3091,-2.3091,-2.3091,-2.3091,-2.3091,-2.3091,-2.3091,-2.3091,-2.2677,-2.2085,-2.1364,-2.0854,-2.026,-1.9542,-1.9497,-1.9268,-1.8818,-1.9943,-1.9798,-1.8072,-1.8993,-1.891,-1.7692,-1.8187,-1.8041,-1.7296,-1.8041,-1.868,-1.6303,-1.669,-1.7388,-1.649,-1.6486,-1.67,-1.6673,-1.6667,-1.6667,-1.6667,-1.646,-1.6321,-1.6321,-1.6301,-1.6233,0.0,0.0,0.0,0.0,0.0,0.0,0.0,0.0,0.0,0.0,0.0,0.0,0.0,0.0,0.0,0.0,0.0,0.0,-1.5784,-1.5784,-1.5784,-1.5784,-1.5784,-1.5784,0.0,-1.5565,-1.5438,-1.5431,-1.5351,-1.5331,-1.5357,-1.5357,-1.6,-1.7092,-1.7418,-1.818,-1.9306,-2.0621,-2.1159,-2.1293,-2.2633,-2.3091,-2.3091,-2.296,-2.2217,-2.1293,-2.1159,-2.0395,-1.9497,-1.9497,-1.8726,-1.787,-1.787,-1.787,-1.787,-1.787,-1.868,-1.9761,-2.089,-2.1132,-2.0872,-1.9906,-1.9579,-1.9852,-2.1069,-2.1293,-2.1658,-2.2906,-2.3091,-2.3091,-2.3091,-2.3091,-2.3091,-2.3091,-2.3091,-2.3047,-2.296,-2.1943,-2.1203,-2.098,-1.9988,-1.9314,-1.9169,-1.9169,-1.868,-1.7544,-1.868,-1.8211,-1.5825,-1.8025,-1.8634,-1.7552,-1.8726,-1.936,-1.936,-1.9451,-2.0079,-1.59,-1.619,-1.6525,-1.6357,-1.6486,-1.6647,-1.642,-1.6366,-1.6366,-1.6366,-1.6319,-1.6321,-1.6321,-1.6079,0.0,0.0,0.0,0.0,0.0,0.0,0.0,0.0,0.0,0.0,0.0,0.0,0.0,0.0,0.0,0.0,0.0,0.0,0.0,-1.5784,-1.5784,-1.5784,-1.5784,-1.5784,-1.5784,0.0,-1.5718,-1.5684,-1.5712,-1.5023,-1.4836,-1.5102,-1.5102,-1.5494,-1.6101,-1.617,-1.6386,-1.6835,-1.9031,-1.9898,-2.0169,-2.2315,-2.3091,-2.296,-2.2031,-2.1525,-2.1159,-2.0215,-1.9716,-1.9497,-1.9497,-1.9314,-1.9131,-1.9131,-1.9131,-1.9131,-1.9131,-1.9314,-1.9588,-1.9807,-1.9906,-2.0087,-2.0755,-2.0169,-1.9852,-2.1069,-2.1293,-2.1658,-2.2906,-2.3091,-2.3091,-2.3091,-2.3091,-2.3091,-2.3091,-2.3091,-2.2721,-2.18,-2.1426,-2.0522,-1.8634,-1.8234,-1.7677,-1.6655,-1.6608,-1.6473,-1.6197,-1.7404,-1.7358,-1.5832,-1.6332,-1.6473,-1.6204,-1.7451,-1.8095,-1.8095,-1.9039,-1.9625,-1.3932,-1.4521,-1.5348,-1.6135,-1.6386,-1.646,-1.6306,-1.6166,-1.6059,-1.6059,-1.6059,-1.6059,-1.6059,-1.5932,0.0,0.0,0.0,0.0,0.0,0.0,0.0,0.0,0.0,0.0,0.0,0.0,0.0,0.0,0.0,0.0,0.0,-1.5784,-1.5784,-1.5784,-1.5784,-1.5784,-1.5784,-1.5691,-1.5625,-1.5618,-1.5337,-1.513,-1.4997,-1.4957,-1.495,-1.5015,-1.5156,-1.5344,-1.5631,-1.5772,-1.5784,-1.5967,-1.7902,-1.8634,-1.8864,-2.0683,-2.1355,-2.1311,-2.0666,-2.0079,-1.9488,-1.8818,-1.8218,-1.7708,-1.7708,-1.7708,-1.7708,-1.7708,-1.7708,-1.7708,-1.7708,-1.7708,-1.7894,-1.8495,-1.9085,-1.967,-2.0305,-1.9943,-1.9852,-2.1069,-2.0845,-2.0989,-2.2775,-2.3091,-2.3091,-2.3091,-2.3091,-2.3091,-2.3091,-2.2589,-2.1987,-2.1382,-2.026,-1.9093,-1.7824,-1.7131,-1.6527,-1.5825,-1.5784,-1.5784,-1.5784,-1.7037,-1.7084,-1.5825,-1.6386,-1.6716,-1.6716,-1.7956,-1.8864,-1.9451,-2.0079,-2.035,-1.2237,-1.312,-1.4346,-1.5622,-1.6159,-1.627,-1.5969,-1.5855,-1.573,-1.5534,-1.5635,-1.5784,-1.5784,0.0,0.0,0.0,0.0,0.0,0.0,0.0,0.0,0.0,0.0,0.0,0.0,0.0,0.0,0.0,0.0,0.0,-1.5784,-1.5785,-1.5731,-1.5784,-1.5785,-1.5752,-1.5752,-1.5518,-1.5371,-1.5317,-1.483,-1.4469,-1.4269,-1.5044,-1.5237,-1.5022,-1.5271,-1.5424,-1.5491,-1.5732,-1.5784,-1.592,-1.7178,-1.7692,-1.787,-1.9039,-1.9497,-1.9488,-1.9268,-1.8549,-1.7645,-1.7458,-1.6669,-1.5784,-1.5784,-1.5784,-1.5784,-1.5784,-1.5784,-1.5784,-1.5784,-1.5784,-1.6103,-1.7412,-1.8457,-1.9268,-1.9451,-1.967,-2.0034,-2.0845,-2.0169,-2.0223,-2.2403,-2.2775,-2.2862,-2.3047,-2.3091,-2.3003,-2.2818,-2.1943,-2.1159,-2.0711,-1.891,-1.7598,-1.7412,-1.6433,-1.5784,-1.5784,-1.5784,-1.5784,-1.5784,-1.7037,-1.7178,-1.6157,-1.7358,-1.7917,-1.7692,-1.891,-1.9898,-2.0666,-2.089,-2.098,-1.3632,-1.4152,-1.4645,-1.4604,-1.5642,-1.6209,-1.457,-1.5029,-1.5486,0.0,-1.5045,-1.5784,0.0,0.0,0.0,0.0,0.0,0.0,0.0,0.0,0.0,0.0,0.0,0.0,0.0,0.0,0.0,0.0,-1.5784,0.0,-1.5784,-1.5591,-1.5571,-1.5771,-1.5585,-1.5451,-1.5451,-1.5418,-1.5271,-1.5068,-1.4988,-1.4928,-1.4901,-1.5231,-1.5237,-1.5022,-1.5271,-1.5538,-1.5724,-1.5764,-1.5784,-1.592,-1.7178,-1.7692,-1.787,-1.9039,-1.9497,-1.936,-1.8319,-1.7824,-1.7505,-1.6433,-1.592,-1.5784,-1.5784,-1.5784,-1.5784,-1.5784,-1.5784,-1.5784,-1.5784,-1.5784,-1.6103,-1.7412,-1.7824,-1.8234,-1.9268,-2.0305,-2.08,-1.9898,-1.9625,-1.9943,-2.1293,-2.1525,-2.1898,-2.295,-2.3091,-2.2721,-2.1658,-2.1391,-2.0486,-1.8411,-1.787,-1.7271,-1.6157,-1.592,-1.5784,-1.5784,-1.5784,-1.5784,-1.5784,-1.7037,-1.7638,-1.7458,-1.8634,-1.8726,-1.7692,-1.891,-1.9047,-1.8187,-1.9268,-1.9716,-1.2726,-1.2426,-1.2283,-1.2956,-1.4138,-1.4942,-1.4162,-1.4961,-1.5635,-1.5092,-1.5391,0.0,0.0,0.0,0.0,0.0,0.0,0.0,0.0,0.0,0.0,0.0,0.0,0.0,0.0,0.0,0.0,0.0,-1.5784,-1.5711,-1.5591,-1.5464,-1.5384,-1.5344,-1.5217,-1.5202,-1.5202,-1.5202,-1.5003,-1.471,-1.4549,-1.4519,-1.4482,-1.4776,-1.5017,-1.5224,-1.5511,-1.5712,-1.5784,-1.5784,-1.5784,-1.5879,-1.6433,-1.6622,-1.6716,-1.721,-1.7436,-1.7343,-1.6803,-1.6622,-1.6527,-1.5967,-1.5784,-1.5784,-1.5784,-1.5784,-1.5784,-1.5784,-1.5784,-1.5784,-1.5784,-1.5784,-1.592,-1.648,-1.7178,-1.7638,-1.7483,-1.894,-1.9943,-1.8726,-1.9039,-1.9679,-2.0215,-2.0845,-2.1712,-2.2906,-2.2536,-2.1889,-2.1382,-2.0124,-1.8864,-1.7824,-1.7037,-1.6433,-1.5825,-1.5784,-1.5784,-1.5784,-1.5784,-1.5784,-1.5784,-1.7037,-1.7692,-1.7692,-1.891,-1.891,-1.7692,-1.891,-1.8864,-1.7684,-1.8234,-1.8503,-1.1448,-1.0766,-1.0334,-1.1368,-1.2587,-1.3498,-1.3166,-1.4023,-1.4792,0.0,-1.4561,0.0,0.0,0.0,0.0,0.0,0.0,0.0,0.0,0.0,0.0,0.0,0.0,0.0,0.0,0.0,0.0,0.0,-1.5718,-1.5625,-1.5404,-1.5251,-1.511,-1.5015,-1.4934,-1.485,-1.485,-1.4821,-1.4629,-1.4409,-1.4195,-1.4128,-1.4208,-1.4502,-1.487,-1.5304,-1.5591,-1.5758,-1.5784,-1.5784,-1.5784,-1.5784,-1.5784,-1.5784,-1.5784,-1.5784,-1.5784,-1.5784,-1.5784,-1.5784,-1.5784,-1.5784,-1.5784,-1.5784,-1.5784,-1.5784,-1.5784,-1.5784,-1.5784,-1.5784,-1.5784,-1.5784,-1.5784,-1.5784,-1.6527,-1.7037,-1.6433,-1.7483,-1.8311,-1.7404,-1.7948,-1.8672,-1.8993,-1.9807,-2.08,-2.1996,-2.1445,-2.0747,-2.044,-1.8818,-1.7598,-1.7271,-1.6386,-1.5784,-1.5784,-1.5784,-1.5784,-1.5784,-1.5784,-1.5784,-1.5784,-1.6716,-1.7365,-1.7684,-1.8596,-1.8596,-1.7692,-1.8596,-1.8403,-1.7225,-1.7225,-1.7225,-1.0334,-1.0224,-1.0318,-1.0151,-1.1413,-1.2253,-1.0582,-1.1321,-1.1994,-1.0569,0.0,0.0,0.0,0.0,0.0,0.0,0.0,0.0,0.0,0.0,0.0,0.0,0.0,0.0,0.0,0.0,0.0,0.0,-1.5418,-1.5411,-1.5398,-1.487,-1.4689,-1.5001,-1.4689,-1.4543,-1.4543,-1.4269,-1.4122,-1.4108,-1.4095,-1.4229,-1.4502,-1.4803,-1.5001,-1.5048,-1.5291,-1.5578,-1.5784,-1.5784,-1.5784,-1.5784,-1.5784,-1.5784,-1.5784,-1.5784,-1.5784,-1.5784,-1.5784,-1.5784,-1.5784,-1.5784,-1.5784,-1.5784,-1.5784,-1.5784,-1.5784,-1.5784,-1.5784,-1.5784,-1.5784,-1.5784,-1.5784,-1.5784,-1.5825,-1.6204,-1.7365,-1.6756,-1.5967,-1.592,-1.5967,-1.6386,-1.7591,-1.787,-1.8319,-1.9497,-1.9633,-1.9177,-1.8048,-1.7777,-1.7225,-1.6015,-1.5825,-1.5784,-1.5784,-1.5784,-1.5784,-1.5784,-1.5784,-1.5784,-1.5784,-1.5872,-1.648,-1.7692,-1.7777,-1.7777,-1.7692,-1.7777,-1.7131,-1.592,-1.592,-1.592,-1.1415,-1.0391,-0.9669,-0.9045,-0.9937,-1.0784,-1.0271,-1.1114,-1.1845,-1.1326,0.0,0.0,0.0,0.0,0.0,0.0,0.0,0.0,0.0,0.0,0.0,0.0,0.0,0.0,0.0,0.0,0.0,0.0,0.0,-1.5037,-1.4843,-1.4636,-1.4482,-1.4402,-1.4295,-1.4335,-1.4516,-1.4229,-1.4182,-1.4362,-1.4175,-1.4242,-1.4516,-1.4436,-1.4646,-1.5015,-1.5115,-1.5284,-1.5565,-1.5752,-1.5784,-1.5784,-1.5784,-1.5784,-1.5784,-1.5784,-1.5784,-1.5784,-1.5784,-1.5784,-1.5784,-1.5784,-1.5784,-1.5784,-1.5784,-1.5784,-1.5784,-1.5784,-1.5784,-1.5784,-1.5784,-1.5784,-1.5784,-1.5784,-1.5784,-1.592,-1.6386,-1.6103,-1.5784,-1.5784,-1.5784,-1.6197,-1.7505,-1.7692,-1.8095,-1.9314,-1.8818,-1.8187,-1.7777,-1.699,-1.6298,-1.5825,-1.5784,-1.5784,-1.5784,-1.5784,-1.5784,-1.5784,-1.5784,-1.5784,-1.5784,-1.5784,-1.6015,-1.648,-1.648,-1.6897,-1.7692,-1.7692,-1.7037,-1.5784,-1.5784,-1.5784,-1.3119,-1.1717,-1.0393,-0.9168,-0.9496,-0.9954,-0.9562,-1.0083,-1.0663,-1.0596,0.0,0.0,0.0,0.0,0.0,0.0,0.0,0.0,0.0,0.0,0.0,0.0,0.0,0.0,0.0,0.0,0.0,0.0,0.0,0.0,-1.4529,-1.4429,-1.4282,-1.4095,-1.4088,-1.4182,-1.4369,-1.4182,-1.4229,-1.4516,-1.4322,-1.4382,-1.4663,-1.4469,-1.4543,-1.4823,-1.4961,-1.513,-1.5418,-1.5712,-1.5784,-1.5784,-1.5784,-1.5784,-1.5784,-1.5784,-1.5784,-1.5784,-1.5784,-1.5784,-1.5784,-1.5784,-1.5784,-1.5784,-1.5784,-1.5784,-1.5784,-1.5784,-1.5784,-1.5784,-1.5784,-1.5784,-1.5784,-1.5784,-1.5784,-1.5784,-1.5784,-1.5784,-1.5784,-1.5784,-1.5784,-1.6062,-1.6897,-1.7037,-1.7311,-1.8126,-1.7584,-1.7037,-1.7037,-1.6339,-1.5784,-1.5784,-1.5784,-1.5784,-1.5784,-1.5784,-1.5784,-1.5784,-1.5784,-1.5784,-1.5784,-1.5784,-1.5784,-1.5784,-1.5784,-1.6197,-1.7037,-1.7037,-1.6622,-1.5784,-1.5784,-1.5784,0.0,0.0,0.0,-1.0511,-1.0075,-0.9811,-0.8314,0.0,-0.8221,-0.8019,0.0,0.0,0.0,0.0,0.0,0.0,0.0,0.0,0.0,0.0,0.0,0.0,0.0,0.0,0.0,0.0,0.0,0.0,-1.4502,-1.4502,-1.4502,-1.4242,-1.4088,-1.4088,-1.4088,-1.4088,-1.4088,-1.4088,-1.4229,-1.4502,-1.4502,-1.4663,-1.4995,-1.4988,-1.4783,-1.4536,-1.4823,-1.511,-1.5391,-1.5638,-1.5758,-1.5758,-1.5764,-1.5764,-1.5771,-1.5778,-1.5784,-1.5784,-1.5784,-1.5784,-1.5784,-1.5784,-1.5784,-1.5784,-1.5784,-1.5784,-1.5784,-1.5784,-1.5784,-1.5784,-1.5784,-1.5784,-1.5784,-1.5784,-1.5784,-1.5784,-1.5784,-1.5784,-1.5784,-1.5784,-1.5784,-1.5784,-1.5784,-1.5784,-1.5784,-1.5784,-1.5784,-1.5784,-1.5791,-1.5832,-1.5784,-1.5791,-1.5832,-1.5784,-1.5791,-1.5832,-1.5784,-1.5791,-1.5832,-1.5784,-1.5784,-1.5784,-1.5784,-1.5784,-1.5784,-1.5784,-1.5784,-1.5784,-1.5784,-1.5784,-1.5784,-1.5784,-1.5144,0.0,0.0,0.0,0.0,0.0,0.0,0.0,-0.8092,-0.7998,0.0,0.0,0.0,0.0,0.0,0.0,0.0,0.0,0.0,0.0,0.0,0.0,0.0,0.0,0.0,0.0,0.0,0.0,-1.4208,-1.4208,-1.4208,-1.4128,-1.4088,-1.4088,-1.4088,-1.4088,-1.4088,-1.4088,-1.4128,-1.4208,-1.4208,-1.4355,-1.4636,-1.4429,-1.4396,-1.4522,-1.4609,-1.4689,-1.4783,-1.5084,-1.5204,-1.5224,-1.5431,-1.5518,-1.5538,-1.5752,-1.5784,-1.5784,-1.5784,-1.5784,-1.5784,-1.5784,-1.5784,-1.5784,-1.5784,-1.5784,-1.5784,-1.5784,-1.5784,-1.5784,-1.5784,-1.5784,-1.5784,-1.5784,-1.5784,-1.5784,-1.5784,-1.5784,-1.5784,-1.5784,-1.5784,-1.5784,-1.5784,-1.5784,-1.5784,-1.5784,-1.5784,-1.5905,-1.6119,-1.5965,-1.5912,-1.6126,-1.5959,-1.5919,-1.6132,-1.5952,-1.5919,-1.6139,-1.5945,-1.5784,-1.5784,-1.5784,-1.5784,-1.5784,-1.5784,-1.5784,-1.5784,-1.5784,-1.5784,-1.5784,-1.5784,-1.5784,-1.6982,-1.6178,-1.5126,-1.1739,0.0,0.0,-0.8254,-0.7504,-0.7316,0.0,0.0,0.0,0.0,0.0,0.0,0.0,0.0,0.0,0.0,0.0,0.0,0.0,0.0,0.0,0.0,-1.4703,-1.4583,-1.4289,-1.4269,-1.4215,-1.4095,-1.4088,-1.4088,-1.4088,-1.4088,-1.4028,-1.3901,-1.4021,-1.4088,-1.4088,-1.4208,-1.4355,-1.4466,-1.4342,-1.4295,-1.4342,-1.4342,-1.4342,-1.4355,-1.4529,-1.4861,-1.5164,-1.5331,-1.5471,-1.5598,-1.5718,-1.5784,-1.5784,-1.5784,-1.5784,-1.5784,-1.5784,-1.5784,-1.5784,-1.5784,-1.5784,-1.5784,-1.5784,-1.5784,-1.5784,-1.5784,-1.5784,-1.5784,-1.5784,-1.5784,-1.5784,-1.5784,-1.5784,-1.5784,-1.5784,-1.5784,-1.5784,-1.5784,-1.5784,-1.5872,-1.5999,-1.5905,-1.5939,-1.6239,-1.6012,-1.5844,-1.6072,-1.5932,-1.5899,-1.6072,-1.5925,-1.5905,-1.6079,-1.5925,-1.5784,-1.5784,-1.5784,-1.5784,-1.5784,-1.5784,-1.5784,-1.5784,-1.5784,-1.5784,-1.5784,-1.5784,-1.5784,-1.9574,-1.8676,-1.7162,-1.3894,0.0,0.0,-0.8393,-0.6991,-0.6484,0.0,0.0,0.0,0.0,0.0,0.0,0.0,0.0,0.0,0.0,0.0,0.0,0.0,0.0,0.0,-1.5037,-1.5055,-1.4877,-1.4543,-1.4489,-1.4355,-1.4102,-1.4088,-1.4088,-1.4088,-1.4055,-1.3908,-1.3606,-1.3874,-1.4008,-1.4041,-1.4302,-1.4442,-1.4476,-1.4476,-1.4335,-1.4088,-1.4088,-1.4088,-1.4088,-1.4088,-1.4549,-1.5257,-1.5324,-1.5484,-1.5644,-1.5744,-1.5758,-1.5738,-1.5771,-1.5784,-1.5784,-1.5784,-1.5784,-1.5784,-1.5784,-1.5784,-1.5784,-1.5784,-1.5784,-1.5784,-1.5784,-1.5784,-1.5784,-1.5784,-1.5784,-1.5784,-1.5784,-1.5784,-1.5784,-1.5784,-1.5784,-1.5784,-1.5784,-1.5784,-1.5919,-1.6186,-1.5999,-1.5939,-1.6239,-1.6012,-1.5791,-1.5872,-1.5798,-1.5804,-1.5871,-1.5844,-1.5892,-1.5878,-1.5844,-1.5865,-1.5784,-1.5784,-1.5784,-1.5784,-1.5784,-1.5784,-1.5784,-1.5784,-1.5784,-1.5784,-1.5784,-1.5784,0.0,0.0,0.0,0.0,0.0,0.0,-0.9677,-0.8238,-0.7537,0.0,0.0,0.0,0.0,0.0,0.0,0.0,0.0,0.0,0.0,0.0,0.0,0.0,0.0,0.0,-1.5245,-1.5311,-1.509,-1.4563,-1.4302,-1.4148,-1.4088,-1.4088,-1.4088,-1.4088,-1.3854,-1.366,-1.36,-1.3467,-1.35,-1.3693,-1.3746,-1.39,-1.4168,-1.4168,-1.4142,-1.4088,-1.4088,-1.4088,-1.4088,-1.4088,-1.4188,-1.4389,-1.4908,-1.4937,-1.4863,-1.5518,-1.5678,-1.5518,-1.5752,-1.5784,-1.5784,-1.5784,-1.5784,-1.5784,-1.5784,-1.5784,-1.5784,-1.5784,-1.5784,-1.5784,-1.5784,-1.5784,-1.5784,-1.5784,-1.5784,-1.5784,-1.5784,-1.5784,-1.5784,-1.5784,-1.5784,-1.5784,-1.5784,-1.5784,-1.5798,-1.5905,-1.5818,-1.5939,-1.6239,-1.6012,-1.5919,-1.6159,-1.5972,-1.6019,-1.6493,-1.6319,-1.6286,-1.652,-1.6313,-1.6079,-1.5791,-1.5784,-1.5784,-1.5784,-1.5784,-1.5784,-1.5784,-1.5784,-1.5784,-1.5784,-1.5784,-1.5784,0.0,0.0,0.0,-1.6296,0.0,0.0,0.0,-0.9587,-0.8422,-0.854,-0.7545,-0.6891,0.0,0.0,0.0,0.0,0.0,0.0,0.0,0.0,0.0,0.0,0.0,0.0,-1.5444,-1.5029,-1.4716,-1.4945,-1.4549,-1.4302,-1.4302,-1.4168,-1.4021,-1.3868,-1.3868,-1.3647,-1.32,-1.3494,-1.3574,-1.3387,-1.3728,-1.3941,-1.4088,-1.4088,-1.4088,-1.4088,-1.4088,-1.4088,-1.4088,-1.4088,-1.4088,-1.4128,-1.4569,-1.4743,-1.481,-1.5398,-1.5524,-1.5438,-1.5732,-1.5784,-1.5784,-1.5784,-1.5784,-1.5784,-1.5784,-1.5784,-1.5784,-1.5784,-1.5784,-1.5784,-1.5784,-1.5784,-1.5784,-1.5784,-1.5784,-1.5784,-1.5784,-1.5784,-1.5784,-1.5784,-1.5784,-1.5784,-1.5784,-1.5952,-1.6099,-1.6246,-1.6146,-1.6206,-1.6703,-1.6319,-1.6106,-1.6259,-1.6273,-1.6326,-1.648,-1.6359,-1.6382,-1.648,-1.6213,-1.5985,-1.5791,-1.5784,-1.5784,-1.5784,-1.5784,-1.5784,-1.5784,-1.5784,-1.5784,-1.5784,-1.5784,-1.5784,0.0,0.0,0.0,0.0,0.0,-1.4409,0.0,0.0,0.0,-1.0092,0.0,0.0,0.0,0.0,0.0,0.0,0.0,0.0,0.0,0.0,0.0,0.0,0.0,0.0,0.0,-1.4267,-1.4247,-1.5319,-1.4903,-1.4583,-1.4479,-1.4295,-1.4035,-1.37,-1.3854,-1.3594,-1.2965,-1.3568,-1.3647,-1.326,-1.3774,-1.4035,-1.4088,-1.4088,-1.4088,-1.4088,-1.4088,-1.4088,-1.4088,-1.4088,-1.4088,-1.4115,-1.4409,-1.4629,-1.4888,-1.5251,-1.5357,-1.5364,-1.5712,-1.5784,-1.5784,-1.5784,-1.5784,-1.5784,-1.5784,-1.5784,-1.5784,-1.5784,-1.5784,-1.5784,-1.5784,-1.5784,-1.5784,-1.5784,-1.5784,-1.5784,-1.5784,-1.5784,-1.5784,-1.5784,-1.5784,-1.5784,-1.5784,-1.6079,-1.6353,-1.6587,-1.6473,-1.6526,-1.7052,-1.6697,-1.6359,-1.6359,-1.6567,-1.6633,-1.6502,-1.6386,-1.6359,-1.6359,-1.6079,-1.5885,-1.5784,-1.5784,-1.5784,-1.5784,-1.5784,-1.5784,-1.5784,-1.5784,-1.5784,-1.5784,-1.5784,-1.5784,0.0,0.0,0.0,0.0,-1.7884,0.0,0.0,0.0,-1.3548,-1.3667,0.0,0.0,0.0,0.0,0.0,0.0,0.0,0.0,0.0,0.0,0.0,0.0,0.0,0.0,0.0,-1.3003,-1.3999,-1.5305,-1.5142,-1.4796,-1.4536,-1.4489,-1.4335,-1.4048,-1.3567,-1.3387,-1.35,-1.3152,-1.3133,-1.3553,-1.362,-1.3793,-1.4088,-1.4088,-1.4088,-1.4088,-1.4088,-1.4088,-1.4088,-1.4088,-1.4088,-1.4115,-1.4409,-1.4382,-1.4282,-1.5097,-1.5237,-1.5135,-1.5638,-1.5784,-1.5784,-1.5784,-1.5784,-1.5784,-1.5784,-1.5784,-1.5784,-1.5784,-1.5784,-1.5784,-1.5784,-1.5784,-1.5784,-1.5784,-1.5784,-1.5784,-1.5784,-1.5784,-1.5784,-1.5784,-1.5784,-1.5784,-1.5784,-1.6079,-1.6335,-1.6319,-1.6513,-1.668,-1.6747,-1.67,-1.6653,-1.6653,-1.6687,-1.68,-1.7079,-1.6807,-1.6653,-1.6653,-1.6386,-1.6106,-1.5791,-1.5784,-1.5784,-1.5784,-1.5784,-1.5784,-1.5784,-1.5784,-1.5784,-1.5784,-1.5784,-1.5784,0.0,0.0,0.0,0.0,0.0,0.0,-1.983,0.0,-1.7374,0.0,0.0,0.0,0.0,0.0,0.0,0.0,-0.6387,0.0,0.0,0.0,0.0,0.0,0.0,0.0,0.0,0.0,0.0,0.0,-1.4949,-1.509,-1.4796,-1.4616,-1.4309,-1.38,-1.3547,-1.34,-1.3353,-1.314,-1.3227,-1.36,-1.36,-1.3801,-1.4088,-1.4088,-1.4088,-1.4088,-1.4088,-1.4088,-1.4088,-1.4088,-1.4088,-1.4095,-1.4222,-1.4195,-1.4175,-1.4883,-1.5115,-1.5068,-1.5438,-1.5691,-1.5784,-1.5784,-1.5784,-1.5784,-1.5784,-1.5784,-1.5784,-1.5784,-1.5784,-1.5784,-1.5784,-1.5784,-1.5784,-1.5784,-1.5784,-1.5784,-1.5784,-1.5784,-1.5784,-1.5784,-1.5784,-1.5784,-1.5784,-1.6079,-1.6333,-1.65,-1.6627,-1.6827,-1.7168,-1.7068,-1.7018,-1.7018,-1.7114,-1.7194,-1.7206,-1.6874,-1.6707,-1.6707,-1.6273,-1.5959,-1.5832,-1.5784,-1.5784,-1.5784,-1.5784,-1.5784,-1.5784,-1.5784,-1.5784,-1.5784,-1.6005,-1.5999,-2.1976,0.0,0.0,0.0,0.0,0.0,0.0,0.0,0.0,0.0,0.0,0.0,0.0,0.0,0.0,0.0,0.0,-0.601,0.0,0.0,0.0,0.0,0.0,0.0,0.0,0.0,0.0,-1.4364,-1.5102,-1.5391,-1.5142,-1.4803,-1.4409,-1.386,-1.3686,-1.35,-1.3327,-1.3327,-1.3353,-1.3487,-1.3646,-1.3834,-1.3968,-1.4048,-1.4088,-1.4088,-1.4088,-1.4088,-1.4088,-1.4088,-1.4088,-1.4095,-1.4175,-1.4155,-1.4148,-1.4656,-1.4941,-1.5055,-1.5297,-1.5585,-1.5784,-1.5784,-1.5784,-1.5784,-1.5784,-1.5784,-1.5784,-1.5784,-1.5784,-1.5784,-1.5784,-1.5784,-1.5784,-1.5784,-1.5784,-1.5784,-1.5784,-1.5784,-1.5784,-1.5784,-1.5784,-1.5804,-1.5939,-1.6126,-1.6373,-1.666,-1.6774,-1.7007,-1.7515,-1.7454,-1.732,-1.732,-1.7455,-1.7495,-1.734,-1.6921,-1.6633,-1.6473,-1.6017,-1.5784,-1.5784,-1.5784,-1.5784,-1.5784,-1.5784,-1.5784,-1.5784,-1.5912,-1.5952,-1.5952,-1.6086,-1.6039,0.0,0.0,0.0,-2.3764,0.0,0.0,0.0,0.0,-2.2753,0.0,0.0,0.0,0.0,0.0,0.0,-1.0639,0.0,0.0,0.0,0.0,0.0,0.0,0.0,0.0,0.0,0.0,0.0,-1.554,-1.5771,-1.5691,-1.5398,-1.511,-1.481,-1.4502,-1.39,-1.36,-1.3586,-1.3586,-1.3453,-1.3233,-1.3801,-1.3928,-1.3626,-1.3955,-1.4088,-1.4088,-1.4088,-1.4088,-1.4088,-1.4088,-1.4088,-1.4115,-1.4396,-1.4335,-1.4122,-1.4422,-1.4716,-1.5055,-1.5297,-1.5585,-1.5784,-1.5784,-1.5784,-1.5784,-1.5784,-1.5784,-1.5784,-1.5784,-1.5784,-1.5784,-1.5784,-1.5784,-1.5784,-1.5784,-1.5784,-1.5784,-1.5784,-1.5784,-1.5784,-1.5784,-1.5784,-1.5919,-1.6213,-1.6315,-1.6373,-1.666,-1.6998,-1.7293,-1.7542,-1.7575,-1.7569,-1.7569,-1.7575,-1.7582,-1.7569,-1.7041,-1.6466,-1.5844,-1.5791,-1.5784,-1.5784,-1.5784,-1.5784,-1.5784,-1.5784,-1.5784,-1.5784,-1.6119,-1.6259,-1.6301,-1.5972,-1.5791,0.0,0.0,-2.3324,-2.4382,0.0,0.0,0.0,0.0,0.0,0.0,0.0,0.0,0.0,0.0,-1.5676,-1.3203,-1.1946,0.0,0.0,0.0,0.0,0.0,0.0,0.0,0.0,0.0,0.0,-1.4447,-1.5168,-1.5504,-1.5398,-1.5304,-1.5023,-1.4536,-1.4142,-1.3935,-1.3935,-1.3513,-1.35,-1.3794,-1.3794,-1.3841,-1.3941,-1.4041,-1.4088,-1.4088,-1.4088,-1.4088,-1.4088,-1.4088,-1.4088,-1.4095,-1.4195,-1.4175,-1.4122,-1.4409,-1.471,-1.5075,-1.5518,-1.5698,-1.5784,-1.5784,-1.5784,-1.5784,-1.5784,-1.5784,-1.5784,-1.5784,-1.5784,-1.5784,-1.5784,-1.5784,-1.5784,-1.5784,-1.5784,-1.5784,-1.5784,-1.5784,-1.5784,-1.5784,-1.5784,-1.5925,-1.6219,-1.6321,-1.6489,-1.6978,-1.7139,-1.7306,-1.7549,-1.7582,-1.7582,-1.7582,-1.7582,-1.7582,-1.7582,-1.7273,-1.6747,-1.6159,-1.6119,-1.6039,-1.5791,-1.5784,-1.5784,-1.5784,-1.5784,-1.5925,-1.6119,-1.6226,-1.6373,-1.656,-1.646,-1.6413,-2.304,-2.318,0.0,-2.4536,-2.4669,0.0,-2.5435,0.0,0.0,0.0,0.0,0.0,0.0,0.0,0.0,-1.561,-1.4322,-1.322,0.0,-1.2104,0.0,0.0,0.0,0.0,0.0,0.0,-1.3803,-1.4413,-1.5117,-1.5551,0.0,0.0,-1.507,-1.4689,-1.4295,-1.4035,-1.3928,-1.3661,-1.3607,-1.3774,-1.3794,-1.3848,-1.3935,-1.4041,-1.4088,-1.4082,-1.3975,-1.3988,-1.4082,-1.3975,-1.3988,-1.4088,-1.4088,-1.4088,-1.4108,-1.4295,-1.4616,-1.5095,-1.5625,-1.5784,-1.5784,-1.5784,-1.5784,-1.5784,-1.5784,-1.5784,-1.5784,-1.5784,-1.5784,-1.5784,-1.5784,-1.5784,-1.5784,-1.5784,-1.5784,-1.5784,-1.5784,-1.5784,-1.5784,-1.5784,-1.5784,-1.5925,-1.6219,-1.6359,-1.6593,-1.7125,-1.7199,-1.7306,-1.7549,-1.7582,-1.7582,-1.7582,-1.7582,-1.7542,-1.7494,-1.7213,-1.6837,-1.6348,-1.6172,-1.6032,-1.5791,-1.5784,-1.5878,-1.6139,-1.6039,-1.6186,-1.6636,-1.6636,-1.673,-1.6867,-1.6967,-1.6961]},{"header":{"parameterUnit":"m.s-1","parameterCategory":1,"la1":30.6,"la2":29.2853,"lo1":-89.7004,"lo2":-87.6739,"dy":0.0162,"dx":0.0183,"nx":112,"ny":82,"refTime":"2023-09-05T06:00:00:Z","depth":0,"parameterNumber":3,"parameterNumberName":"V-component_of_WINDS"},"data":[0.0,0.0,0.0,0.0,0.0,0.0,0.0,0.0,0.0,0.0,0.0,0.0,0.0,0.0,0.0,0.0,0.0,0.0,0.0,0.0,0.0,0.0,0.0,0.0,0.0,0.0,0.0,0.0,0.0,0.0,0.0,0.0,0.0,0.0,0.0,0.0,0.0,0.0,0.0,0.0,0.0,0.0,0.0,0.0,0.0,0.0,0.0,0.0,0.0,0.0,0.0,0.0,0.0,0.0,0.0,0.0,0.0,0.0,0.0,0.0,0.0,0.0,0.0,0.0,0.0,0.0,0.0,0.0,0.0,0.0,0.0,0.0,0.0,0.0,0.0,0.0,0.0,0.0,0.0,0.0,0.0,0.0,0.0,0.0,0.0,0.0,0.0,0.0,0.0,0.0,2.0291,1.7697,1.6035,1.4877,1.4338,1.5596,1.714,1.8915,0.0,0.0,0.0,0.0,0.0,0.0,0.0,0.0,0.0,0.0,0.0,0.0,0.0,0.0,0.0,0.0,0.0,0.0,0.0,0.0,0.0,0.0,0.0,0.0,0.0,0.0,0.0,0.0,0.0,0.0,0.0,0.0,0.0,0.0,0.0,0.0,0.0,0.0,0.0,0.0,0.0,0.0,0.0,0.0,0.0,0.0,0.0,0.0,0.0,0.0,0.0,0.0,0.0,0.0,0.0,0.0,0.0,0.0,0.0,0.0,0.0,0.0,0.0,0.0,0.0,0.0,0.0,0.0,0.0,0.0,0.0,0.0,0.0,0.0,0.0,0.0,0.0,0.0,0.0,0.0,0.0,0.0,0.0,0.0,0.0,0.0,0.0,0.0,0.0,0.0,0.0,0.0,0.0,0.0,0.0,0.0,0.0,0.0,0.0,0.0,0.0,0.0,0.0,0.0,1.9221,1.5277,1.4723,1.4536,1.4313,1.5596,1.7298,1.943,0.0,0.0,0.0,0.0,0.0,0.0,0.0,0.0,0.0,0.0,0.0,0.0,0.0,0.0,0.0,0.0,0.0,0.0,0.0,0.0,0.0,0.0,0.0,0.0,0.0,0.0,0.0,0.0,0.0,0.0,0.0,0.0,0.0,0.0,0.0,0.0,0.0,0.0,0.0,0.0,0.0,0.0,0.0,0.0,0.0,0.0,0.0,0.0,0.0,0.0,0.0,0.0,0.0,0.0,0.0,0.0,0.0,0.0,0.0,0.0,0.0,0.0,0.0,0.0,0.0,0.0,0.0,0.0,0.0,0.0,0.0,0.0,0.0,0.0,0.0,0.0,0.0,0.0,0.0,0.0,0.0,0.0,0.0,0.0,0.0,0.0,0.0,0.0,0.0,0.0,0.0,0.0,0.0,0.0,0.0,0.0,0.0,0.0,0.0,0.0,0.0,0.0,0.0,1.9942,1.7995,1.4857,1.4727,1.4594,1.3802,1.4963,1.6646,1.8817,1.9275,0.0,0.0,0.0,0.0,0.0,0.0,0.0,0.0,0.0,0.0,0.0,0.0,0.0,0.0,0.0,0.0,0.0,0.0,0.0,0.0,0.0,0.0,0.0,0.0,0.0,0.0,0.0,0.0,0.0,0.0,0.0,0.0,0.0,0.0,0.0,0.0,0.0,0.0,0.0,0.0,0.0,0.0,0.0,0.0,0.0,0.0,0.0,0.0,0.0,0.0,0.0,0.0,0.0,0.0,0.0,0.0,0.0,0.0,0.0,0.0,0.0,0.0,0.0,0.0,0.0,0.0,0.0,0.0,0.0,0.0,0.0,0.0,0.0,0.0,0.0,0.0,0.0,0.0,0.0,0.0,0.0,0.0,0.0,0.0,0.0,0.0,0.0,0.0,0.0,0.0,0.0,0.0,0.0,0.0,0.0,0.0,0.0,0.0,0.0,0.0,0.0,0.0,1.9613,1.7605,1.5274,1.5115,1.4768,1.3735,1.449,1.6039,1.836,1.8674,0.0,0.0,0.0,0.0,0.0,0.0,0.0,0.0,0.0,0.0,0.0,0.0,0.0,0.0,0.0,0.0,0.0,0.0,0.0,0.0,0.0,0.0,0.0,0.0,0.0,0.0,0.0,0.0,0.0,0.0,0.0,0.0,0.0,0.0,0.0,0.0,0.0,0.0,0.0,0.0,0.0,0.0,0.0,0.0,0.0,0.0,0.0,0.0,0.0,0.0,0.0,0.0,0.0,0.0,0.0,0.0,0.0,0.0,0.0,0.0,0.0,0.0,0.0,0.0,0.0,0.0,0.0,0.0,0.0,0.0,0.0,0.0,0.0,0.0,0.0,0.0,0.0,0.0,0.0,0.0,0.0,0.0,0.0,0.0,0.0,0.0,0.0,0.0,0.0,0.0,0.0,0.0,0.0,0.0,0.0,0.0,0.0,0.0,0.0,0.0,0.0,0.0,2.0257,1.8941,1.6279,1.5532,1.505,1.4643,1.4574,1.5861,1.8927,1.8635,0.0,0.0,0.0,0.0,0.0,0.0,0.0,0.0,0.0,0.0,0.0,0.0,0.0,0.0,0.0,0.0,0.0,0.0,0.0,0.0,0.0,0.0,0.0,0.0,0.0,0.0,0.0,0.0,0.0,0.0,0.0,0.0,0.0,0.0,0.0,0.0,0.0,0.0,0.0,0.0,0.0,0.0,0.0,0.0,0.0,0.0,0.0,0.0,0.0,0.0,0.0,0.0,0.0,0.0,0.0,0.0,0.0,0.0,0.0,0.0,0.0,0.0,0.0,0.0,0.0,0.0,0.0,0.0,0.0,0.0,0.0,0.0,0.0,0.0,0.0,0.0,0.0,0.0,0.0,0.0,0.0,0.0,0.0,0.0,0.0,0.0,0.0,0.0,0.0,0.0,0.0,0.0,0.0,0.0,0.0,0.0,0.0,0.0,0.0,0.0,0.0,0.0,2.0621,1.938,0.0,1.6519,1.552,1.4198,1.5123,1.6291,1.7378,0.0,0.0,0.0,0.0,0.0,0.0,0.0,0.0,0.0,0.0,0.0,0.0,0.0,0.0,0.0,0.0,0.0,0.0,0.0,0.0,0.0,0.0,0.0,0.0,0.0,0.0,0.0,0.0,0.0,0.0,0.0,0.0,0.0,0.0,0.0,0.0,0.0,0.0,0.0,0.0,0.0,0.0,0.0,0.0,0.0,0.0,0.0,0.0,0.0,0.0,0.0,0.0,0.0,0.0,0.0,0.0,0.0,0.0,0.0,0.0,0.0,0.0,0.0,0.0,0.0,0.0,0.0,0.0,0.0,0.0,0.0,0.0,0.0,0.0,0.0,0.0,0.0,0.0,0.0,0.0,0.0,0.0,0.0,0.0,0.0,0.0,0.0,0.0,0.0,0.0,0.0,0.0,0.0,0.0,0.0,0.0,0.0,0.0,0.0,0.0,0.0,0.0,2.2035,2.149,2.0448,0.0,1.7552,1.6357,1.4764,1.5566,1.6372,1.6871,0.0,0.0,0.0,0.0,0.0,0.0,0.0,0.0,0.0,0.0,0.0,0.0,0.0,0.0,0.0,0.0,0.0,0.0,0.0,0.0,0.0,0.0,0.0,0.0,0.0,0.0,0.0,0.0,0.0,0.0,0.0,0.0,0.0,0.0,0.0,0.0,0.0,0.0,0.0,0.0,0.0,0.0,0.0,0.0,0.0,0.0,0.0,0.0,0.0,0.0,0.0,0.0,0.0,0.0,0.0,0.0,0.0,0.0,0.0,0.0,0.0,0.0,0.0,0.0,0.0,0.0,0.0,0.0,0.0,0.0,0.0,0.0,0.0,0.0,0.0,0.0,0.0,0.0,0.0,0.0,0.0,0.0,0.0,0.0,0.0,0.0,0.0,0.0,0.0,0.0,0.0,0.0,0.0,0.0,0.0,0.0,0.0,0.0,0.0,0.0,0.0,0.0,2.2176,2.2858,2.2414,1.9614,1.8462,1.7557,1.6688,1.5803,1.6038,0.0,0.0,0.0,0.0,0.0,0.0,0.0,0.0,0.0,0.0,0.0,0.0,0.0,0.0,0.0,0.0,0.0,0.0,0.0,0.0,0.0,0.0,0.0,0.0,0.0,0.0,0.0,0.0,0.0,0.0,0.0,0.0,0.0,0.0,0.0,0.0,0.0,0.0,0.0,0.0,0.0,0.0,0.0,0.0,0.0,0.0,0.0,0.0,0.0,0.0,0.0,0.0,0.0,0.0,0.0,0.0,0.0,0.0,0.0,0.0,0.0,0.0,0.0,0.0,0.0,0.0,0.0,0.0,0.0,0.0,0.0,0.0,0.0,0.0,0.0,0.0,0.0,0.0,0.0,0.0,0.0,0.0,0.0,0.0,0.0,0.0,0.0,0.0,0.0,0.0,0.0,0.0,0.0,0.0,0.0,0.0,0.0,0.0,0.0,0.0,0.0,0.0,0.0,2.294,2.2853,2.2312,2.0664,1.9243,1.7888,1.6583,1.636,1.6345,1.6468,0.0,0.0,0.0,0.0,0.0,0.0,0.0,0.0,0.0,0.0,0.0,0.0,0.0,0.0,0.0,0.0,0.0,0.0,0.0,0.0,0.0,0.0,0.0,0.0,0.0,0.0,0.0,0.0,0.0,0.0,0.0,0.0,0.0,0.0,0.0,0.0,0.0,0.0,0.0,0.0,0.0,0.0,0.0,0.0,0.0,0.0,0.0,0.0,0.0,0.0,0.0,0.0,0.0,0.0,0.0,0.0,0.0,0.0,0.0,0.0,0.0,0.0,0.0,0.0,0.0,0.0,0.0,0.0,0.0,0.0,0.0,0.0,0.0,0.0,0.0,0.0,0.0,0.0,0.0,0.0,0.0,0.0,0.0,0.0,0.0,0.0,0.0,0.0,0.0,0.0,0.0,0.0,0.0,0.0,0.0,0.0,0.0,0.0,0.0,0.0,0.0,0.0,2.3261,2.2954,2.2394,2.1122,1.9935,1.8732,1.7513,1.7093,1.6761,1.645,0.0,0.0,0.0,0.0,0.0,0.0,0.0,0.0,0.0,0.0,0.0,0.0,0.0,0.0,0.0,0.0,0.0,0.0,0.0,0.0,0.0,0.0,0.0,0.0,0.0,0.0,0.0,0.0,0.0,0.0,0.0,0.0,0.0,0.0,0.0,0.0,0.0,0.0,0.0,0.0,0.0,0.0,0.0,0.0,0.0,0.0,0.0,0.0,0.0,0.0,0.0,0.0,0.0,0.0,0.0,0.0,0.0,0.0,0.0,0.0,0.0,0.0,0.0,0.0,0.0,0.0,0.0,0.0,0.0,0.0,0.0,0.0,0.0,0.0,0.0,0.0,0.0,0.0,0.0,0.0,0.0,0.0,0.0,0.0,0.0,0.0,0.0,0.0,0.0,0.0,0.0,0.0,0.0,0.0,0.0,0.0,0.0,0.0,0.0,0.0,0.0,0.0,2.3368,2.3215,2.269,2.1356,2.067,1.9954,1.9101,1.7989,1.7322,1.7275,0.0,0.0,0.0,0.0,0.0,0.0,0.0,0.0,0.0,0.0,0.0,0.0,0.0,0.0,0.0,0.0,0.0,0.0,0.0,0.0,0.0,0.0,0.0,0.0,0.0,0.0,0.0,0.0,0.0,0.0,0.0,0.0,0.0,0.0,0.0,0.0,0.0,0.0,0.0,0.0,0.0,0.0,0.0,0.0,0.0,0.0,0.0,0.0,0.0,0.0,0.0,0.0,0.0,0.0,0.0,0.0,0.0,0.0,0.0,0.0,2.6186,0.0,0.0,0.0,0.0,0.0,0.0,0.0,0.0,0.0,0.0,0.0,0.0,0.0,0.0,0.0,0.0,0.0,0.0,0.0,0.0,0.0,0.0,0.0,0.0,0.0,0.0,0.0,0.0,0.0,0.0,0.0,0.0,0.0,0.0,0.0,0.0,0.0,0.0,0.0,0.0,0.0,2.416,2.4031,2.3738,2.2985,2.1757,2.0748,2.0129,1.8936,1.8097,1.7847,1.7,0.0,0.0,0.0,0.0,0.0,0.0,0.0,0.0,0.0,0.0,0.0,0.0,0.0,0.0,0.0,0.0,0.0,0.0,0.0,0.0,0.0,0.0,0.0,0.0,0.0,0.0,0.0,0.0,0.0,0.0,0.0,0.0,0.0,0.0,0.0,0.0,0.0,0.0,0.0,0.0,0.0,0.0,0.0,0.0,0.0,0.0,0.0,0.0,0.0,0.0,0.0,0.0,0.0,0.0,0.0,0.0,0.0,0.0,0.0,0.0,2.8687,0.0,0.0,0.0,0.0,0.0,0.0,0.0,0.0,0.0,0.0,0.0,0.0,0.0,0.0,0.0,0.0,0.0,0.0,0.0,0.0,0.0,0.0,0.0,0.0,0.0,0.0,0.0,0.0,0.0,0.0,0.0,0.0,0.0,0.0,0.0,0.0,0.0,0.0,0.0,0.0,2.4789,2.4515,2.4284,2.3946,2.2732,2.169,2.1123,1.9843,1.8779,1.8087,1.74,0.0,0.0,0.0,0.0,0.0,0.0,0.0,0.0,0.0,0.0,0.0,0.0,0.0,0.0,0.0,0.0,0.0,0.0,0.0,0.0,0.0,0.0,0.0,0.0,0.0,0.0,0.0,0.0,0.0,0.0,0.0,0.0,0.0,0.0,0.0,0.0,0.0,0.0,0.0,0.0,0.0,0.0,0.0,0.0,0.0,0.0,0.0,0.0,0.0,0.0,0.0,0.0,0.0,3.5139,3.5342,3.6052,3.5508,3.5212,3.502,3.4043,3.309,3.2214,0.0,0.0,0.0,0.0,0.0,0.0,0.0,0.0,0.0,0.0,0.0,0.0,0.0,0.0,0.0,0.0,0.0,0.0,0.0,0.0,0.0,0.0,0.0,0.0,0.0,3.1213,3.029,0.0,0.0,0.0,0.0,0.0,0.0,0.0,0.0,0.0,0.0,0.0,0.0,2.5448,2.5052,2.4851,2.4851,2.3733,2.2791,2.2294,2.0875,1.9608,1.8574,1.8155,1.8058,0.0,0.0,0.0,0.0,0.0,0.0,0.0,0.0,0.0,0.0,0.0,0.0,0.0,0.0,0.0,0.0,0.0,0.0,0.0,0.0,0.0,0.0,0.0,0.0,0.0,0.0,0.0,0.0,0.0,0.0,0.0,0.0,3.1177,3.1666,0.0,0.0,0.0,0.0,0.0,0.0,0.0,0.0,0.0,0.0,0.0,0.0,0.0,3.7848,3.8411,3.9088,3.9187,3.8765,3.929,3.9009,3.8044,3.7955,3.7564,3.703,3.6852,0.0,3.339,3.3444,0.0,0.0,0.0,0.0,0.0,0.0,0.0,0.0,0.0,0.0,0.0,0.0,0.0,0.0,0.0,0.0,0.0,0.0,0.0,0.0,0.0,0.0,3.3786,3.3296,3.2132,3.1065,0.0,2.9935,2.9246,2.8647,2.8163,0.0,0.0,0.0,0.0,0.0,0.0,0.0,2.6388,2.6254,2.6234,2.6234,2.4985,2.4131,2.4051,2.2378,2.1017,2.022,1.9658,1.9219,1.8973,1.9355,0.0,0.0,0.0,0.0,0.0,0.0,0.0,0.0,0.0,0.0,0.0,0.0,0.0,0.0,0.0,0.0,0.0,0.0,0.0,0.0,0.0,0.0,0.0,0.0,0.0,0.0,0.0,0.0,0.0,3.3268,3.338,3.2544,3.2804,3.3093,0.0,0.0,0.0,0.0,0.0,0.0,0.0,0.0,0.0,3.991,4.0645,4.0779,4.0171,4.0847,4.0785,3.9963,3.9499,3.917,3.8945,3.8182,3.7689,3.7404,3.7404,3.6556,3.5215,3.5215,3.4376,3.3067,0.0,0.0,0.0,0.0,3.317,3.4086,3.5016,3.5392,0.0,3.5585,0.0,0.0,0.0,0.0,0.0,0.0,0.0,0.0,0.0,0.0,0.0,3.4113,3.3268,3.2472,3.2472,3.19,3.0955,0.0,2.9747,2.9943,2.8851,0.0,0.0,0.0,0.0,2.785,2.7535,2.7598,2.7538,2.7155,2.5883,2.4934,2.4592,2.3115,2.1931,2.1211,2.1288,2.1091,2.0533,2.1305,2.1885,0.0,0.0,0.0,0.0,0.0,0.0,0.0,0.0,0.0,0.0,0.0,0.0,0.0,0.0,0.0,0.0,0.0,0.0,0.0,0.0,0.0,0.0,0.0,0.0,0.0,0.0,0.0,0.0,3.5597,3.5779,3.4114,3.5453,3.5878,0.0,0.0,0.0,0.0,0.0,0.0,3.9622,4.1644,4.2956,4.3297,4.3606,4.3265,4.2286,4.2155,4.1658,4.0719,3.9561,3.9043,3.9125,3.8123,3.7567,3.7458,3.7458,3.7228,3.6814,3.6601,3.5644,3.4394,3.4394,3.3973,3.3345,3.3545,3.4394,3.5632,3.7149,3.7931,3.8256,3.8245,0.0,3.5606,3.4087,0.0,0.0,0.0,0.0,3.4845,3.5164,3.4741,3.4218,3.4218,3.3589,3.3036,3.3215,3.2721,3.1782,0.0,3.0864,3.1255,2.9893,0.0,0.0,0.0,0.0,2.8318,2.8144,2.8264,2.8143,2.7645,2.6393,2.5435,2.4961,2.3569,2.2569,2.2216,2.2662,2.2752,2.235,2.3218,2.3405,2.283,0.0,0.0,0.0,0.0,0.0,0.0,0.0,0.0,0.0,0.0,0.0,0.0,0.0,0.0,0.0,0.0,0.0,0.0,0.0,0.0,0.0,0.0,0.0,0.0,0.0,0.0,0.0,0.0,0.0,3.76,3.8408,0.0,0.0,0.0,0.0,3.9393,4.0228,4.1335,4.2877,4.3856,4.5014,4.6336,4.5679,4.5599,4.6192,4.4024,4.2487,4.1639,4.0931,3.9822,3.8437,3.8377,3.8058,3.7589,3.7589,3.7622,3.7655,3.6848,3.607,3.5424,3.5424,3.5392,3.5442,3.6134,3.6461,3.6724,3.819,3.8346,3.8043,3.9286,3.8778,3.7663,3.7552,3.7071,0.0,0.0,3.6028,3.5368,3.4707,3.4038,3.3544,3.3544,3.2557,3.178,3.2392,3.2019,3.1691,0.0,3.1393,3.0751,3.1275,0.0,2.9585,2.9588,2.9006,2.836,2.7729,2.7634,2.763,2.76,2.6393,2.5591,2.5553,2.3791,2.2953,2.3544,2.3578,2.3796,2.4334,2.4417,2.4354,2.4211,2.4511,0.0,0.0,0.0,0.0,0.0,0.0,0.0,0.0,0.0,0.0,0.0,0.0,0.0,0.0,0.0,0.0,0.0,0.0,0.0,0.0,0.0,0.0,0.0,0.0,0.0,0.0,0.0,0.0,3.998,4.2099,0.0,4.1039,4.1148,4.1531,4.196,4.3572,4.4578,4.4672,4.5967,4.6683,4.6733,4.6451,4.594,4.5166,4.4326,4.3218,4.1874,4.1211,4.0371,3.9342,3.8936,3.8371,3.7731,3.7731,3.7753,3.7751,3.6894,3.6411,3.6165,3.5701,3.5504,3.5587,3.6337,3.6878,3.7468,3.9072,3.9402,3.9076,3.9124,3.8531,3.7793,3.7793,3.763,3.7326,3.6751,3.6119,3.5428,3.4708,3.3679,3.2871,3.2871,3.2532,3.2153,3.1911,3.2048,3.214,3.1882,3.1809,3.1599,3.0943,3.0163,2.9606,2.9606,2.9026,2.8502,2.8263,2.8233,2.7904,2.7061,2.6138,2.5435,2.4993,2.3933,2.357,2.4235,2.4672,2.4943,2.514,2.5554,2.5335,2.4381,2.4914,2.5185,0.0,0.0,0.0,0.0,0.0,0.0,0.0,0.0,0.0,0.0,0.0,0.0,0.0,0.0,0.0,0.0,0.0,0.0,0.0,0.0,0.0,0.0,0.0,0.0,0.0,0.0,4.4678,4.2262,4.4922,4.5798,4.2848,4.3313,4.3974,4.4302,4.5733,4.6481,4.6331,4.7325,4.7564,4.6802,4.6279,4.5624,4.4837,4.4282,4.3375,4.2055,4.1617,4.0738,3.9518,3.9054,3.8608,3.8177,3.8177,3.8318,3.8513,3.7716,3.7395,3.7247,3.5975,3.5504,3.5587,3.6337,3.6894,3.7483,3.9113,3.9795,3.9821,3.9377,3.8933,3.8585,3.8585,3.8585,3.8353,3.7313,3.6353,3.5453,3.4409,3.3156,3.2153,3.2153,3.2216,3.2133,3.1608,3.2087,3.2311,3.1336,3.169,3.1795,3.0702,2.9998,2.9606,2.9606,2.8858,2.8338,2.8562,2.8397,2.7919,2.7046,2.6333,2.5764,2.5307,2.4866,2.4807,2.5255,2.5899,2.6243,2.6217,2.6645,2.6321,2.5125,2.536,2.5604,2.5839,0.0,0.0,0.0,0.0,0.0,0.0,0.0,0.0,0.0,0.0,0.0,0.0,0.0,0.0,0.0,0.0,0.0,0.0,0.0,0.0,0.0,0.0,0.0,4.4364,4.5532,4.5918,4.4586,4.6766,4.7052,4.37,4.4467,4.5593,4.6583,4.6566,4.6902,4.7774,4.7821,4.7466,4.6705,4.5183,4.4803,4.5612,4.4105,4.2973,4.2265,4.2248,4.1066,3.8923,3.8878,3.8897,3.8935,3.8935,3.9368,4.0045,3.9236,3.8908,3.869,3.6446,3.5569,3.5651,3.6384,3.6691,3.6918,3.8425,3.9463,4.0096,4.0096,4.0096,4.0096,4.0096,4.0096,3.9775,3.82,3.6836,3.542,3.3886,3.2507,3.1524,3.1524,3.1616,3.1662,3.1575,3.2135,3.2257,3.0867,3.1132,3.1329,3.0567,2.9953,2.9577,2.9574,2.8464,0.0,2.8524,2.8055,2.7635,2.7625,2.7055,2.6626,2.6587,2.6587,2.6587,2.6587,2.7195,2.7555,2.76,2.757,2.7225,2.6534,2.5874,2.5878,2.6532,0.0,0.0,0.0,0.0,0.0,0.0,0.0,0.0,0.0,0.0,0.0,0.0,0.0,0.0,0.0,0.0,0.0,0.0,0.0,0.0,0.0,0.0,4.5846,4.5137,4.7342,4.8679,4.7619,4.8729,4.9041,4.7538,4.7224,4.7252,4.7533,4.7029,4.6599,4.6317,4.6312,4.5677,4.4311,4.4436,4.4365,4.3949,4.4135,4.4152,4.3933,4.3351,4.2468,4.1321,4.0761,4.0261,3.9782,3.9782,3.9901,4.0045,3.9236,3.8908,3.8799,3.7632,3.7191,3.7265,3.8003,3.8646,3.9209,3.961,3.9927,4.0096,4.0096,4.0096,4.0096,4.0096,4.0096,3.9699,3.766,3.6469,3.5327,3.3293,3.2522,3.2299,3.2299,3.305,3.3645,3.3135,3.3574,3.3778,3.2934,3.2882,3.2189,2.9572,2.8981,2.8854,2.8807,2.8507,0.0,2.9101,2.9029,2.8756,2.8295,2.8093,2.7594,2.6681,2.6587,2.6587,2.6587,2.6318,2.6572,2.7555,2.7136,2.6782,2.6584,2.682,2.7049,0.0,0.0,0.0,0.0,0.0,0.0,0.0,0.0,0.0,0.0,0.0,0.0,0.0,0.0,0.0,0.0,0.0,0.0,0.0,0.0,0.0,0.0,4.7636,4.8478,4.8281,4.9589,5.0349,4.9826,4.9966,4.9796,4.9069,4.8054,4.7581,4.7872,4.7225,4.6481,4.5737,4.5991,4.5287,4.3369,4.3785,4.3814,4.3306,4.3814,4.4056,4.4079,4.3318,4.2557,4.1813,4.1068,4.0493,0.0,4.0096,4.0096,4.007,3.961,3.9394,0.0,0.0,0.0,0.0,0.0,3.8924,3.961,3.961,3.9808,4.0096,4.0096,4.0096,4.0096,4.0096,4.0096,3.9708,3.781,3.6767,3.5786,3.3857,3.3204,3.3013,3.3013,3.3836,3.4406,3.3735,3.435,3.4653,3.3425,3.3426,0.0,3.0301,2.9613,2.9322,2.8965,2.8673,2.8818,2.9715,2.956,2.9271,2.8919,2.8873,2.8482,2.747,2.7649,0.0,0.0,0.0,2.7452,2.7953,2.7604,0.0,0.0,0.0,2.7914,2.7888,0.0,0.0,0.0,3.0953,3.1348,0.0,0.0,0.0,0.0,0.0,0.0,0.0,0.0,0.0,0.0,0.0,0.0,0.0,0.0,0.0,0.0,5.0371,5.1589,5.2334,5.1809,5.1269,5.1202,5.049,4.9712,4.9069,4.7733,4.7192,4.7838,4.7141,4.6397,4.5737,0.0,0.0,0.0,0.0,4.3396,4.3306,4.3413,4.3431,4.3375,4.2642,4.1914,4.117,4.0451,4.0096,4.0096,4.0096,4.0096,4.0096,4.0096,4.0096,3.9952,3.8596,3.8064,3.8064,3.8064,3.8486,3.9032,3.9032,0.0,0.0,4.0096,4.0096,4.0096,4.0096,4.0096,3.9766,3.8222,3.7319,3.6455,3.4881,3.4112,3.371,3.371,3.4211,3.4568,3.3962,3.4752,3.5069,3.3275,3.3408,3.3406,3.2062,3.1144,3.0419,2.9808,2.9152,2.9124,3.0339,2.9971,2.9617,2.9608,0.0,0.0,2.8643,2.9095,2.8884,2.7695,2.8715,2.9115,2.8513,2.856,2.802,2.6814,2.806,2.8642,2.8501,2.9763,3.0679,3.1207,3.1329,3.2084,0.0,0.0,0.0,0.0,0.0,0.0,0.0,0.0,0.0,0.0,0.0,0.0,0.0,0.0,0.0,4.9593,5.1116,5.2367,5.3162,5.2587,5.1877,5.1252,5.0033,4.9171,4.9018,4.8206,4.7767,4.7872,4.6684,4.5855,4.572,4.5263,4.4498,4.3353,4.3977,4.4006,4.3306,4.4006,4.4024,4.3375,0.0,0.0,4.117,4.0451,4.0096,4.0096,4.0096,4.0096,4.0096,4.0096,4.0096,4.007,3.9756,3.9653,3.9653,3.9653,3.9731,3.9876,3.9876,3.9978,4.0096,4.0096,4.0096,4.0096,4.0096,4.0096,0.0,3.7603,3.6902,3.6353,3.4334,3.4112,3.4406,3.4406,3.4918,3.5362,3.5247,3.5424,3.5481,3.5109,3.5121,3.4795,3.3446,3.1756,3.0687,3.1001,3.0456,3.0277,3.0966,3.0922,3.0875,3.0926,3.0506,2.9951,2.9357,2.8987,2.8447,2.7645,2.8287,2.8607,2.8427,2.893,2.8869,2.8072,2.9302,2.9678,2.9141,3.0409,3.1075,3.119,3.1227,3.1688,0.0,0.0,0.0,0.0,0.0,0.0,0.0,0.0,0.0,0.0,0.0,4.5514,4.7018,0.0,4.9627,5.1505,5.208,5.2435,5.2841,5.2249,5.1623,5.1251,5.0219,4.9407,4.9035,4.8311,4.7889,4.7889,4.6887,4.6092,4.572,4.5348,4.4582,4.3353,4.4167,4.4196,4.3306,4.4167,4.4198,4.3375,4.2642,4.1914,4.117,4.0451,4.0096,4.0096,4.0096,4.0096,4.0096,4.0096,4.0096,4.0096,4.0096,4.0096,4.0096,4.0096,4.0096,4.0096,4.0096,4.0096,4.0096,4.0096,4.0096,4.0096,4.0096,4.0096,3.9783,3.8313,3.7652,3.7019,3.5571,3.5169,3.5098,3.5098,3.5362,3.56,3.56,3.56,3.56,3.56,3.56,3.5397,3.4722,3.3499,3.2329,3.1563,3.1169,3.1033,3.1259,3.1276,3.1278,3.1287,3.0729,3.0116,2.9493,2.862,2.8223,2.8487,2.8764,2.9066,2.9334,2.9675,2.9539,2.8906,2.982,3.0149,2.9807,3.0734,3.119,3.1207,3.1562,3.2158,0.0,0.0,0.0,0.0,0.0,0.0,0.0,4.5845,4.5926,4.6924,4.7026,4.7625,5.0073,5.0524,5.1133,5.2976,5.2723,5.2249,5.2114,5.1589,5.1134,5.1014,5.0456,4.9796,4.9069,4.8477,4.8041,4.7906,4.7225,4.6481,4.5737,4.5568,4.4891,4.3578,4.4224,4.4253,4.3562,4.4073,4.3961,4.32,4.2439,4.1694,4.0967,4.0383,4.0096,4.0096,4.0096,4.0096,4.0096,4.0096,4.0096,4.0096,4.0096,4.0096,4.0096,4.0096,4.0096,4.0096,4.0096,4.0096,4.0096,4.0096,4.0096,4.0096,4.0096,4.0096,3.9926,3.9022,3.8362,3.7702,3.6789,3.6096,3.56,3.56,3.56,3.56,3.56,3.56,3.56,3.56,3.56,3.56,3.56,3.5144,3.4131,3.2183,3.1775,3.1574,3.123,3.1276,3.122,3.0964,3.0451,2.9841,2.9111,2.8174,2.8052,2.9157,2.9339,2.9673,3.0288,3.0414,3.0251,2.9761,3.023,3.0477,3.0477,3.0958,3.119,3.1207,3.1955,3.2632,3.971,4.1984,4.5009,4.8233,4.8289,4.8933,0.0,5.2869,5.0928,5.233,5.2041,5.1643,5.2012,5.2046,5.2131,5.2384,5.2367,5.208,5.1437,5.1236,5.098,5.0287,5.0135,4.9796,4.9069,4.8934,4.8612,4.7939,4.7225,4.6481,4.5737,4.506,4.4626,4.4457,4.4542,4.4542,4.4457,4.3838,4.3166,4.2405,4.1677,4.0933,4.0231,4.0146,4.0096,4.0096,4.0096,4.0096,4.0096,4.0096,4.0096,4.0096,4.0096,4.0096,4.0096,4.0096,4.0096,4.0096,4.0096,4.0096,4.0096,4.0096,4.0096,4.0096,4.0096,4.0096,3.9808,3.8413,3.7973,3.7584,3.6107,3.5667,3.56,3.56,3.56,3.56,3.56,3.56,3.56,3.56,3.56,3.56,3.56,3.5554,3.4985,3.3498,3.2773,3.1933,3.0687,3.103,3.0934,2.9753,2.9596,2.9088,2.789,2.7685,2.7885,2.8559,2.9088,2.9673,3.0288,3.0818,3.1055,3.0995,3.1055,3.1112,3.1112,3.1171,3.119,3.1207,3.1955,3.2344,4.4551,4.602,4.7575,5.0034,5.1176,5.2251,5.4427,5.3992,5.3459,5.4576,5.4165,5.3656,5.3656,5.3305,5.301,0.0,5.2249,5.1555,5.1251,5.0828,5.0135,4.8968,4.9576,4.9796,4.9069,4.9001,4.8883,4.8578,4.7462,4.6667,4.6363,4.5241,4.4615,4.4615,4.4615,4.4615,4.4615,4.3809,4.3031,4.2286,4.1542,4.0798,4.0096,4.0096,4.0096,4.0096,4.0096,4.0096,4.0096,4.0096,4.0096,4.0096,4.0096,4.0096,4.0096,4.0096,4.0096,4.0096,4.0096,4.0096,4.0096,4.0096,4.0096,4.0096,4.0096,4.0096,3.9893,3.8819,3.8227,3.7652,3.6569,3.596,3.56,3.56,3.56,3.56,3.56,3.56,3.56,3.56,3.56,3.56,3.56,3.56,3.5261,3.4292,3.3575,3.2781,3.1803,3.1522,3.1052,3.0089,3.0006,2.9658,2.8732,2.8319,2.8519,2.9496,2.9451,2.9827,3.0781,3.1055,3.119,3.119,3.119,3.119,3.119,3.119,3.119,3.1207,3.1955,3.2073,4.6979,4.8372,4.9501,5.1309,5.3471,5.5075,5.4794,5.496,5.5328,5.59,5.5279,5.4589,5.4589,5.3994,5.3433,5.3213,5.2249,5.1369,5.0963,5.0253,4.9323,4.8041,4.8849,4.9272,4.8748,4.8883,4.8917,4.8714,4.7513,4.6701,4.6498,4.5309,4.4615,4.4615,4.4615,4.4496,4.4265,4.3487,4.2726,4.1982,4.1255,4.0612,4.0096,4.0096,4.0096,4.0096,4.0096,4.0096,4.0096,4.0096,4.0096,4.0096,4.0096,4.0096,4.0096,4.0096,4.0096,4.0096,4.0096,4.0096,4.0096,4.0096,4.0096,4.0096,4.0096,4.0096,3.991,3.8954,3.8311,3.7686,3.6721,3.6045,3.565,3.5893,3.5943,3.5943,3.5943,3.5943,3.5876,3.5633,3.5769,3.5943,3.5943,3.5943,3.5767,3.5281,3.4456,3.3569,3.2709,3.192,3.1244,3.0775,3.0535,3.0135,2.947,2.9012,2.9111,2.9995,2.9783,3.0038,3.0918,3.1112,3.119,3.119,3.119,3.119,3.119,3.119,3.1292,3.1532,3.2056,3.2124,4.4662,4.7442,5.0321,5.2556,5.4961,5.6923,5.7694,5.7328,5.6814,5.6869,5.5674,5.4589,5.4589,5.3994,5.3247,5.2469,5.23,5.1775,5.0321,4.9492,4.8748,4.7973,4.7922,4.7939,0.0,4.8595,4.8714,4.7973,4.7225,4.6481,4.5771,4.4993,4.4615,4.4615,4.4615,4.4215,4.3426,4.2692,4.1965,4.1221,4.0502,4.013,4.0096,4.0096,4.0096,4.0096,4.0096,4.0096,4.0096,4.0096,4.0096,4.0096,4.0096,4.0096,4.0096,4.0096,4.0096,4.0096,4.0096,4.0096,4.0096,4.0096,4.0096,4.0096,4.0096,4.0096,3.9808,3.8345,3.7922,3.7567,3.6022,3.5616,3.5785,3.6592,3.6761,3.6761,3.6761,3.6761,3.6518,3.5752,3.6231,3.6761,3.6761,3.6761,3.6761,3.6738,3.5495,3.4072,3.2753,3.1999,3.155,3.1478,3.0877,3.0188,2.9454,2.9384,2.9384,2.9429,2.9957,3.0293,3.033,3.0878,3.119,3.119,3.119,3.119,3.119,3.119,3.1582,3.2276,3.2293,3.2662,4.6535,4.9204,5.1712,5.3549,5.5409,5.6877,5.7152,5.7431,5.7637,5.7637,5.6017,5.4446,5.3982,5.2843,5.1911,5.1623,5.1166,5.0828,5.0828,4.9779,4.8731,4.7973,4.8311,0.0,0.0,0.0,0.0,4.8663,4.7953,4.7208,4.6464,4.5737,4.5094,4.4632,4.4615,4.4198,4.3392,4.2675,4.1931,4.1187,4.0468,4.0096,4.0096,4.0096,4.0096,4.0096,4.0096,4.0096,4.0096,4.0096,4.0096,4.0096,4.0096,4.0096,4.0096,4.0096,4.0096,4.0096,4.0096,4.0096,4.0096,4.0096,4.0096,4.0096,4.0096,4.0096,3.9893,3.8903,3.8278,3.7669,3.6654,3.64,3.6451,3.6745,3.7161,3.7533,3.7533,3.7168,3.6728,3.6434,3.6626,3.6643,3.6096,3.6434,3.6626,3.6079,3.5218,3.4276,3.3389,3.3072,3.2699,3.2159,3.1896,3.144,3.0676,3.023,3.0166,3.0559,3.0414,3.0477,3.0878,3.1075,3.119,3.119,3.119,3.119,3.119,3.119,3.1562,3.2293,3.2293,3.2699,4.7616,4.9903,5.1958,5.3573,5.4968,5.6088,5.6675,5.7207,5.7574,5.7574,5.598,5.4243,5.3247,5.2021,5.1009,5.0505,5.0236,5.0168,5.0388,4.9373,4.8443,4.7939,4.8342,4.8426,0.0,0.0,0.0,4.8646,4.7936,4.7192,4.6447,4.5703,4.5077,4.4615,4.4615,4.4079,4.3031,4.254,4.1796,4.0798,4.0333,4.0096,4.0096,4.0096,4.0096,4.0096,4.0096,4.0096,4.0096,4.0096,4.0096,4.0096,4.0096,4.0096,4.0096,4.0096,4.0096,4.0096,4.0096,4.0096,4.0096,4.0096,4.0096,4.0096,4.0096,4.0096,3.996,3.9191,3.8464,3.7736,3.6998,3.6795,3.688,3.7134,3.7753,3.8294,3.8294,3.7702,3.7134,3.6846,3.7015,3.6941,3.6163,3.6451,3.6626,3.6113,3.5415,3.48,3.4374,3.4072,3.3611,3.2824,3.2519,3.2059,3.1272,3.0838,3.0797,3.1171,3.0838,3.0797,3.119,3.119,3.119,3.119,3.119,3.119,3.119,3.1464,3.1972,3.2699,3.297,3.3474,4.7731,4.9499,5.1114,5.2616,5.3628,5.462,5.6143,5.6602,5.6675,5.6638,5.5418,5.3929,5.2447,5.1539,5.0599,4.9287,4.9675,4.9898,4.9221,4.8494,4.799,0.0,0.0,0.0,0.0,0.0,0.0,4.7939,0.0,4.6566,4.5805,4.5077,4.4682,4.4615,4.4615,4.3887,4.2354,4.2269,4.1534,4.0096,4.0096,4.0096,4.0096,4.0096,4.0096,4.0096,4.0096,4.0096,4.0096,4.0096,4.0096,4.0096,4.0096,4.0096,4.0096,4.0096,4.0096,4.0096,4.0096,4.0096,4.0096,4.0096,4.0096,4.0096,4.0096,4.0096,3.996,3.9242,3.8497,3.7736,3.7049,3.6863,3.7032,3.7736,3.8481,3.9056,3.9056,3.8481,3.7753,3.7049,3.7449,3.7702,3.7032,3.688,3.6846,3.6812,3.6146,3.565,3.56,3.4962,3.4218,3.3491,3.273,3.2005,3.1258,3.119,3.119,3.119,3.119,3.119,3.119,3.119,3.119,3.119,3.119,3.119,3.119,3.1938,3.2682,3.3423,3.415,3.4895,4.8042,4.9095,5.0014,5.0437,5.1114,5.183,5.2252,5.372,5.484,5.4252,5.3363,5.2264,5.0718,5.0339,5.0155,4.9808,5.0393,0.0,5.0676,4.9999,0.0,4.8781,4.8731,4.8731,4.8731,4.89,0.0,0.0,4.824,4.7885,4.6583,4.6329,4.5749,4.4632,4.4615,4.4113,4.3149,4.2033,4.1018,4.0096,4.0096,4.0096,4.0096,4.0096,4.0096,4.0096,4.0096,4.0096,4.0096,4.0096,4.0096,4.0096,4.0096,4.0096,4.0096,4.0096,4.0096,4.0096,4.0096,4.0096,4.0096,4.0096,4.0096,4.0096,4.0096,4.0096,4.0062,3.9876,3.8886,3.7872,3.7669,3.7618,3.7669,3.7872,3.887,3.9825,3.9825,3.9225,3.865,3.8464,3.8142,3.8024,3.8379,3.7973,3.7432,3.688,3.6643,3.6282,3.5667,3.4962,3.4218,3.3491,3.273,3.2005,3.1258,3.119,3.119,3.119,3.119,3.119,3.119,3.119,3.119,3.119,3.119,3.119,3.119,3.1938,3.2682,3.3423,3.415,3.4895,4.821,4.8655,4.9022,4.9022,4.9095,4.9311,4.9768,5.1135,5.2079,5.1375,5.1118,5.0548,4.9021,4.9637,5.0083,4.9132,5.0265,5.1117,5.0773,5.0084,4.9576,4.9492,4.9204,0.0,4.9001,4.9001,4.8832,0.0,4.8477,4.7885,4.6397,4.6312,4.5788,4.4649,4.4615,4.4198,4.3392,4.1627,4.0663,4.0561,4.0265,4.0096,4.0096,4.0096,4.0096,4.0096,0.0,4.0096,4.0096,4.0096,4.0096,4.0096,4.0096,4.0096,4.0096,4.0096,4.0096,4.0096,4.0096,4.0096,4.0096,4.0096,4.0096,4.0096,4.0096,4.0096,4.0096,4.0096,3.9259,3.8379,3.8379,3.8379,3.8379,3.8379,3.9242,4.0096,4.0096,3.9537,3.8988,3.8988,3.8396,3.8244,3.9317,3.8328,3.7381,3.7297,3.6705,3.6113,3.565,3.4962,3.4218,3.3491,3.273,3.2005,3.1258,3.119,3.119,3.119,3.119,3.119,3.119,3.1495,3.1532,3.1207,3.1532,3.1512,3.119,3.1938,3.2682,3.3423,3.415,3.4895,4.8306,4.8141,4.8012,4.8122,4.7461,4.7036,4.7992,4.8755,4.9069,4.8354,4.8867,4.9014,4.7614,4.9121,5.005,4.8522,4.9938,5.1058,5.0467,4.9842,4.9576,4.9898,4.9475,4.912,4.9018,4.9086,4.912,4.9018,4.8511,4.7564,4.6075,4.5906,4.5449,4.4632,4.4615,4.4198,4.3392,4.139,4.0646,4.1187,4.0468,4.0096,4.0096,4.0096,4.0096,4.0096,0.0,0.0,4.0096,4.0096,4.0096,4.0096,4.0096,4.0096,4.0096,4.0096,4.0096,4.0096,4.0096,4.0096,4.0096,4.0096,4.0096,4.0096,4.0096,4.0096,4.0096,4.0096,3.9571,3.8988,3.8988,3.8988,3.8988,3.8988,3.9571,4.0096,4.0096,3.9605,3.9106,3.9005,3.8565,3.8565,3.9757,3.8285,3.7144,3.7804,3.658,3.56,3.56,3.4962,3.4252,3.3609,3.2882,3.2158,3.1413,3.1343,3.1292,3.1207,3.119,3.1241,3.1326,3.1955,3.2056,3.1495,3.2124,3.2141,3.1478,3.2242,3.2936,3.3558,3.4303,3.4996,4.8306,4.7333,4.6489,4.7131,4.6195,4.5224,4.5637,4.6658,4.72,4.5961,4.7206,4.8231,4.731,4.807,4.9346,5.0993,5.1154,5.126,5.1911,5.1848,5.1099,4.939,4.961,4.9661,4.9069,4.9543,0.0,0.0,0.0,4.9069,4.7584,4.6938,4.5974,4.4649,4.4615,4.4198,4.3392,4.2405,4.1677,4.1187,4.0468,4.0096,4.0096,4.0096,4.0096,4.0096,4.0096,0.0,4.0096,4.0096,4.0096,4.0096,4.0096,4.0096,4.0096,4.0096,4.0096,4.0096,4.0096,4.0096,4.0096,4.0096,4.0096,4.0096,4.0096,4.0096,4.0096,4.0096,3.9571,3.8988,3.8988,3.8988,3.8988,3.8988,3.9571,4.0096,4.0096,4.0011,3.974,3.9106,3.9402,3.9622,3.9242,3.8362,3.7753,3.7889,3.658,3.56,3.56,3.4962,3.4438,3.432,3.3643,3.2899,3.2175,3.2107,3.1853,3.1241,3.119,3.1461,3.209,3.2226,3.253,3.3017,3.3136,3.3152,3.3034,3.3761,3.4167,3.432,3.5081,3.5481,4.7808,4.6963,4.6065,4.6086,4.5162,4.419,4.3996,4.4607,4.4967,4.404,4.5219,4.6324,4.592,4.723,4.8599,4.9393,5.0032,5.0568,5.1043,5.082,5.0338,4.9644,4.9864,4.9949,4.961,4.9881,4.9949,0.0,0.0,4.9052,4.7939,4.6853,4.572,4.4632,4.4181,4.3995,4.4012,4.2489,4.1745,4.1762,4.0654,4.0096,4.0096,4.0096,4.0096,4.0096,4.0096,0.0,4.0096,4.0096,4.0096,4.0096,4.0096,4.0096,4.0096,4.0096,4.0096,4.0096,4.0096,4.0096,4.0096,4.0096,4.0096,4.0096,4.0096,4.0096,4.0096,4.0096,3.9859,3.9571,3.9571,3.9571,3.9571,3.9571,3.9842,4.0096,4.0096,4.0096,3.9893,3.914,3.9276,3.9436,3.9056,3.8058,3.7584,3.8362,3.684,3.5752,3.618,3.5554,3.4928,3.4539,3.3846,3.3102,3.2361,3.1955,3.1562,3.1207,3.1546,3.1938,3.2293,3.3038,3.3423,3.3406,3.3778,3.3778,3.3406,3.3761,3.4117,3.4506,3.4861,3.5228,4.7467,4.6807,4.6079,4.5572,4.4524,4.3542,4.3221,4.3246,4.3214,4.2788,4.3761,4.4691,4.4691,4.625,4.7546,4.7678,4.8496,4.9388,5.0063,4.9633,4.939,4.9796,4.9999,0.0,4.9864,4.9999,0.0,0.0,0.0,0.0,4.7716,4.6583,4.5517,4.4632,4.3995,4.3961,4.4598,4.2489,4.1728,4.2269,4.0807,4.0096,4.0096,4.0096,4.0096,4.0096,4.0096,0.0,0.0,4.0096,4.0096,4.0096,4.0096,4.0096,4.0096,4.0096,4.0096,4.0096,4.0096,4.0096,4.0096,4.0096,4.0096,4.0096,4.0096,4.0096,4.0096,4.0096,4.0096,4.0096,4.0096,4.0096,4.0096,4.0096,3.9977,3.991,4.0079,3.9977,3.9706,3.9106,3.9123,3.9174,3.9022,3.7905,3.7438,3.8582,3.6975,3.5842,3.6451,3.5994,3.538,3.4793,3.4218,3.3575,3.2835,3.2242,3.1833,3.1681,3.2205,3.2615,3.2767,3.3863,3.4303,3.3897,3.4438,3.4455,3.3858,3.3858,3.4167,3.4742,3.4742,3.5148,4.7863,4.6807,4.6205,4.6264,4.4607,4.3142,4.3846,4.3358,4.2769,4.2711,4.3761,4.4691,4.4691,4.4874,4.5975,4.8815,4.7774,4.764,5.0593,5.0424,4.9779,4.9171,0.0,0.0,4.9171,4.9712,0.0,0.0,0.0,0.0,4.6938,4.6769,4.6041,4.4649,4.453,4.453,4.4615,4.2997,4.2219,4.2269,4.0807,4.0096,4.0096,4.0096,4.0096,4.0096,4.0096,0.0,0.0,4.0096,4.0096,4.0096,4.0096,4.0096,4.0096,4.0096,4.0096,4.0096,4.0096,4.0096,4.0096,4.0096,4.0096,4.0096,4.0096,4.0096,4.0096,4.0096,4.0096,4.0096,4.0096,4.0096,4.0096,4.0096,3.9605,3.9276,3.996,3.9571,3.9073,3.9005,3.9554,3.9791,3.9106,3.8328,3.7838,3.799,3.6614,3.5616,3.5701,3.565,3.5566,3.5498,3.543,3.5115,3.4353,3.4235,3.3914,3.3237,3.3271,3.3592,3.4269,3.4421,3.4776,3.538,3.5464,3.5464,3.5397,3.5397,3.543,3.5498,3.5498,3.5926,4.6846,4.6288,4.5562,4.4741,4.3803,4.3032,4.281,4.2459,4.2162,4.2162,4.2575,4.2951,4.2951,4.3241,4.3954,4.5297,4.4804,4.4888,4.6747,4.6865,4.6989,4.7597,4.8714,0.0,0.0,0.0,0.0,0.0,0.0,0.0,4.6836,4.638,4.5669,4.4632,4.4615,4.4615,4.4615,4.3064,4.2286,4.2269,4.0807,4.0096,4.0096,4.0096,4.0096,4.0096,4.0096,0.0,0.0,4.0096,4.0096,4.0096,4.0096,4.0096,4.0096,4.0096,4.0096,4.0096,4.0096,4.0096,4.0096,4.0096,4.0096,4.0096,4.0096,4.0096,4.0096,4.0096,4.0096,4.0096,4.0096,4.0096,4.0096,4.0096,3.9893,3.9757,4.0045,3.9876,3.9537,3.9089,3.9225,3.9326,3.9039,3.8007,3.7533,3.843,3.6874,3.5769,3.6265,3.591,3.56,3.56,3.5194,3.481,3.4523,3.4083,3.3711,3.3423,3.3829,3.4184,3.4472,3.4928,3.5295,3.5583,3.56,3.56,3.56,3.56,3.56,3.5616,3.6096,3.6485,4.6082,4.5894,4.5433,4.4026,4.3308,4.2825,4.2398,4.1901,4.1578,4.175,4.181,4.181,4.181,4.2142,4.2553,4.2885,4.2767,4.3121,4.4472,4.4619,4.5156,4.6616,0.0,4.8721,0.0,4.9947,0.0,0.0,0.0,0.0,4.6819,4.5889,4.5128,4.4632,4.4615,4.4615,4.4615,4.3064,4.2286,4.2269,4.0807,4.0096,4.0096,4.0096,4.0096,4.0096,0.0,0.0,0.0,4.0096,4.0096,4.0096,4.0096,4.0096,4.0096,4.0096,4.0096,4.0121,4.0286,4.0336,4.0336,4.0336,4.0466,4.0538,4.0204,4.0096,4.0096,4.0096,4.0096,4.0096,4.0096,4.0096,4.0096,4.0096,3.9943,3.9842,4.0045,3.9943,3.9622,3.9089,3.9174,3.9242,3.9039,3.8149,3.7743,3.8548,3.7127,3.6079,3.64,3.596,3.56,3.56,3.5148,3.4827,3.4827,3.4353,3.4066,3.4066,3.4539,3.4827,3.4827,3.5312,3.56,3.56,3.56,3.56,3.56,3.56,3.56,3.5616,3.6417,3.7032,4.5877,4.5782,4.6094,4.4879,4.342,4.2454,4.3044,4.2005,4.1087,4.1664,4.181,4.181,4.181,4.181,4.208,4.2863,4.2503,4.2888,4.5182,4.4971,4.5156,0.0,0.0,4.7379,4.8782,0.0,0.0,0.0,0.0,0.0,4.6786,4.5427,4.4615,4.4615,4.4615,4.4615,4.4615,4.3064,4.2286,4.2269,4.0807,4.0096,4.0096,4.0096,4.0096,0.0,0.0,0.0,0.0,4.0096,4.0096,4.0096,4.0096,4.0096,4.0096,4.0096,4.0096,4.0196,4.0726,4.088,4.088,4.088,4.1291,4.1556,4.0441,4.0096,4.0096,4.0096,4.0096,4.0096,4.0096,4.0096,4.0096,4.0096,3.9529,3.9208,3.9943,3.9537,3.9005,3.8988,3.9605,3.9859,3.9123,3.8988,3.8717,3.8024,3.7263,3.6485,3.5701,3.56,3.56,3.56,3.5583,3.5583,3.5583,3.5583,3.5583,3.5583,3.5583,3.5583,3.5583,3.56,3.56,3.56,3.56,3.56,3.56,3.56,3.56,3.5616,3.6417,3.7591,4.3974,4.3744,4.3347,4.2389,4.1858,4.1446,4.1054,4.0654,4.0417,4.0594,4.0642,4.0642,4.0642,4.0938,4.1499,4.2383,4.2275,4.2561,4.3892,4.4381,0.0,4.7341,4.9316,5.0317,0.0,0.0,0.0,0.0,0.0,0.0,0.0,4.5139,4.4615,4.4615,4.4615,4.4333,4.3792,4.2794,4.2049,4.1542,4.0544,4.0096,4.0096,4.0096,0.0,0.0,0.0,0.0,0.0,4.0096,4.0096,4.0096,4.0096,4.0096,4.0096,4.0096,4.0096,4.0196,4.0709,4.0655,4.0473,4.1246,4.138,4.111,4.0774,4.092,4.1173,4.0774,4.0392,4.0096,4.0096,4.0096,4.0096,4.0096,3.9926,3.9825,4.0045,3.9926,3.9757,3.9757,3.9537,3.9411,3.9706,3.8505,3.7584,3.7872,3.6806,3.5893,3.5633,3.56,3.56,3.56,3.56,3.56,3.56,3.56,3.56,3.56,3.56,3.56,3.56,3.56,3.56,3.56,3.56,3.56,3.56,3.6146,3.6941,3.7922,3.8176,3.8826,4.2569,4.2762,4.249,4.1704,4.1349,4.1057,4.0511,4.0225,4.0096,4.0096,4.0096,4.0096,4.0096,4.0368,4.0805,4.1366,4.1856,4.2425,4.3281,0.0,0.0,4.8033,0.0,0.0,0.0,0.0,0.0,0.0,0.0,0.0,0.0,4.4993,4.4574,4.4497,4.4268,4.391,4.3392,4.2609,4.1972,4.1528,4.0768,4.0417,4.0392,4.0179,0.0,0.0,0.0,0.0,0.0,4.0096,4.0096,4.0096,4.0096,4.0096,4.0096,4.0096,4.0096,4.0196,4.0709,4.0679,4.047,4.0909,4.0647,4.0317,4.1023,4.1201,4.1082,4.0703,4.0343,4.0096,4.0096,4.0096,4.0096,4.0096,4.0096,4.0096,4.0096,3.9893,3.9605,3.9309,3.8886,3.8717,3.9174,3.8125,3.7364,3.7838,3.6857,3.5943,3.5633,3.56,3.56,3.56,3.56,3.56,3.56,3.56,3.56,3.56,3.56,3.56,3.56,3.56,3.56,3.56,3.56,3.5735,3.6062,3.684,3.7821,3.8988,3.8988,3.9394,0.0,4.25,4.2913,4.2302,4.1627,4.1119,4.1119,4.0578,0.0,4.0096,4.0096,4.0096,4.0096,4.0096,4.013,4.018,4.1373,4.2561,0.0,4.5478,0.0,0.0,5.0374,0.0,0.0,0.0,0.0,0.0,0.0,0.0,0.0,4.5015,4.4538,4.4293,4.3748,4.342,4.3369,4.2573,4.2122,4.2022,4.1243,4.088,4.0827,4.0336,0.0,0.0,0.0,0.0,0.0,4.0096,4.0096,4.0096,4.0096,4.0096,4.0096,4.0096,4.0096,4.0196,4.0709,4.0845,4.0643,4.0019,3.9489,3.9474,4.1209,4.0961,4.0096,4.0146,4.0121,4.0096,4.0096,4.0096,4.0096,4.0096,4.0096,4.0096,4.0096,3.9537,3.8802,3.8125,3.7889,3.7838,3.7889,3.7821,3.777,3.7821,3.7178,3.6434,3.5701,3.565,3.565,3.56,3.565,3.565,3.56,3.565,3.5684,3.5684,3.5718,3.5735,3.5684,3.5735,3.5735,3.5684,3.5735,3.6163,3.6965,3.7635,3.8328,3.8988,3.9039,3.9436,4.0475,0.0,4.0806,4.0646,4.0502,4.0367,0.0,4.0231,4.0096,4.0096,4.0096,4.0096,4.0096,4.0096,4.0282,4.0849,4.2121,4.3337,4.419,0.0,0.0,4.9714,5.2018,0.0,0.0,0.0,0.0,0.0,0.0,4.5449,0.0,4.5138,4.4975,4.4318,4.4073,4.3635,4.3016,4.2826,4.2193,4.1197,4.099,4.0679,4.0286,4.0171,0.0,0.0,0.0,0.0,4.0096,4.0096,4.0096,4.0096,4.0096,4.0096,4.0096,4.0096,4.0096,4.0196,4.0709,4.027,3.9491,3.9727,4.0101,4.0549,4.1041,4.0683,4.0196,4.0601,4.0417,4.0096,4.0096,4.0096,4.0096,4.0096,4.0096,4.0096,4.0096,3.9537,3.8937,3.8768,3.7821,3.7229,3.7804,3.6918,3.6366,3.6958,3.6383,3.5802,3.5616,3.6146,3.6282,3.5667,3.6146,3.6265,3.565,3.6163,3.6502,3.6502,3.706,3.711,3.6535,3.706,3.7094,3.6518,3.7077,3.7736,3.8464,3.865,3.8819,3.9005,3.9588,3.9639,4.0096,4.0096,4.0096,4.0096,4.0096,4.0096,4.0096,4.0096,4.0096,4.0096,4.0096,4.0096,4.0096,4.0383,4.073,4.1136,4.2962,0.0,0.0,0.0,5.064,5.0838,5.2286,0.0,0.0,0.0,0.0,0.0,0.0,0.0,0.0,4.461,4.4547,4.3709,4.3855,4.3625,4.29,4.2842,4.2303,4.1313,4.1313,4.1013,4.0449,4.0204,4.0096,0.0,0.0,0.0,4.0096,4.0096,4.0096,4.0096,4.0096,4.0096,4.0096,4.0096,4.0096,4.0146,4.0424,3.9866,3.9112,3.9723,3.998,4.01,4.046,4.0353,4.0171,4.0449,4.0336,4.0096,4.0096,4.0096,4.0096,4.0096,4.0096,4.0096,4.0096,3.9537,3.8988,3.8988,3.7828,3.7151,3.821,3.6857,3.5988,3.7127,3.6332,3.56,3.56,3.6299,3.6643,3.6197,3.684,3.7127,3.6681,3.7364,3.7523,3.6846,3.7161,3.7364,3.7297,3.7702,3.7719,3.7313,3.8024,3.8599,3.8988,3.8988,3.8988,3.9005,3.9419,3.9377,4.0096,4.018,4.0248,4.013,4.0096,4.0096,4.0096,4.0096,4.0096,4.0096,4.0096,4.0172,4.0399,4.0841,4.1315,4.1605,0.0,0.0,4.9895,5.0214,5.061,5.186,0.0,0.0,0.0,0.0,0.0,0.0,0.0,0.0,0.0,4.407,4.3958,4.2935,4.3571,4.3636,4.3003,4.2883,4.2482,4.181,4.181,4.1446,4.0756,4.0311,4.0096,0.0,0.0,0.0,4.0096,4.0096,4.0096,4.0096,4.0096,4.0096,4.0096,4.0096,4.0096,4.0079,3.9977,3.9605,3.9242,3.9774,3.9605,3.9276,3.991,4.0096,4.0096,4.0096,4.0096,4.0096,4.0096,4.0096,4.0096,4.0096,4.0096,4.0096,4.0096,3.9537,3.8988,3.8988,3.7912,3.7371,3.8616,3.7144,3.6248,3.755,3.6535,3.56,3.56,3.64,3.6931,3.6812,3.755,3.8024,3.7922,3.8464,3.8345,3.7218,3.7252,3.7567,3.821,3.8125,3.8125,3.8227,3.8853,3.9157,3.9157,3.9157,3.9106,3.8988,3.8988,3.8988,4.0096,4.0544,4.0882,4.0265,4.0096,4.0096,4.0096,4.0096,4.0096,4.0096,4.0096,4.0458,4.1647,4.151,4.1766,4.3459,0.0,4.8604,0.0,0.0,5.1821,0.0,0.0,0.0,0.0,0.0,0.0,0.0,0.0,0.0,0.0,4.4458,4.4394,4.2953,4.3985,4.4181,4.3414,4.3394,4.2847,4.181,4.181,4.1241,4.0229,4.0146,4.0096,0.0,0.0,4.0096,4.0096,4.0096,4.0096,4.0096,4.0096,4.0096,4.0096,4.0096,4.0096,4.0011,3.9402,3.9503,3.9859,3.9326,3.952,3.996,4.0079,4.0096,4.0096,4.0096,4.0096,4.0096,4.0096,4.0096,4.0096,4.0096,4.0096,4.0096,4.0096,3.9537,3.8988,3.8988,3.8311,3.7804,3.8041,3.7263,3.6711,3.6948,3.6197,3.56,3.56,3.6857,3.7483,3.688,3.8031,3.8582,3.7956,3.8007,3.8244,3.8633,3.9249,3.9639,3.9757,3.9157,3.9106,3.9757,3.9876,3.9943,3.9943,3.9943,3.9622,3.8988,3.8988,3.8988,4.0528,4.1026,4.1545,4.1644,4.1187,4.0578,4.0197,4.0096,4.0096,4.0096,4.0096,4.0542,4.1947,4.262,4.3944,4.6872,0.0,4.9567,5.1655,5.1643,0.0,0.0,0.0,0.0,0.0,0.0,0.0,0.0,0.0,0.0,0.0,0.0,4.3448,4.2338,4.3447,4.3864,4.3515,4.3515,4.2922,4.181,4.181,4.1196,4.0096,4.0096,4.0262,4.0528,0.0,4.0528,4.0528,4.0528,4.0368,4.0096,4.0096,4.0096,4.0096,4.0096,4.0096,4.0045,3.9723,3.9825,3.9977,3.9225,3.9503,4.0028,3.9639,3.9791,4.0096,4.0096,4.0096,4.0096,4.0096,4.0096,4.0096,4.0096,4.0096,4.0096,4.0096,3.9842,3.9605,3.9605,3.8988,3.8616,3.9005,3.8142,3.7381,3.7381,3.6738,3.6248,3.6248,3.7229,3.7922,3.7997,3.8937,3.9469,3.9106,3.9089,3.9056,3.8988,3.9706,4.0096,4.0096,3.9774,3.9757,4.0096,4.0096,4.0096,4.0096,3.9706,3.9326,3.8988,3.8988,3.8988,4.1035,4.1475,4.2009,4.2572,4.1922,4.1078,4.0907,4.0595,4.0417,4.0587,4.073,4.1209,4.2421,4.415,4.6324,4.9219,5.0022,5.0569,5.1321,0.0,0.0,0.0,0.0,0.0,0.0,0.0,0.0,0.0,0.0,0.0,0.0,0.0,4.2633,4.2035,4.2995,4.3515,4.3515,4.3515,4.2922,4.181,4.181,4.1196,4.0096,4.0229,4.0504,4.0903,4.1064,4.111,4.111,4.0972,4.0655,4.0262,4.0146,4.0096,4.0096,4.0096,4.0096,4.0096,4.0096,4.0096,3.9977,3.9225,3.9503,3.9985,3.937,3.9708,4.0311,4.0466,4.049,4.0434,4.0171,4.0096,4.0096,4.0096,4.0096,4.0096,4.0096,4.0096,4.0096,4.0096,3.9656,3.9485,4.0177,3.9214,3.8319,3.8294,3.7689,3.7195,3.7002,3.7661,3.8379,3.8937,3.9673,4.0096,4.0096,4.0096,3.9909,3.9462,3.9849,4.0096,4.0096,4.0096,4.0096,4.0096,4.0096,4.0096,4.0096,3.9537,3.9242,3.9242,3.9073,3.9089,4.1384,4.1896,4.2062,4.1929,4.1401,4.1283,4.2732,4.2047,4.1322,4.1999,4.2629,4.3256,4.3842,4.6191,4.8174,4.8634,5.0481,5.2116,0.0,0.0,0.0,0.0,0.0,0.0,0.0,0.0,0.0,0.0,0.0,0.0,0.0,0.0,0.0,4.2634,4.3196,4.3515,4.3515,4.3515,4.2922,4.181,4.181,4.1196,4.0121,4.0625,4.0856,4.0926,4.149,4.1746,4.1686,4.1133,4.088,4.0803,4.0286,4.0096,4.0096,4.0096,4.0096,4.0096,4.0096,4.0096,3.9977,3.9225,3.9503,4.006,3.9824,4.0245,4.0949,4.1512,4.1682,4.1424,4.0385,4.0096,4.0096,4.0096,4.0096,4.0096,4.0096,4.0096,4.0096,4.0096,4.0062,4.0211,4.0756,4.0176,3.9599,3.9415,3.8922,3.83,3.7543,3.8303,3.8937,3.8988,3.9673,4.0096,4.0096,4.0096,4.0277,4.0758,4.0334,4.0096,4.0096,4.0096,4.0096,4.0096,4.0096,4.0096,4.0096,4.0045,4.0028,4.0011,3.9334,3.9385,4.2007,4.2658,4.3066,4.3497,4.2803,4.2221,4.2956,4.2773,4.2396,4.2257,4.317,4.4286,4.5279,4.7011,4.8505,4.9111,5.0369,5.1371,0.0,0.0,0.0,0.0,0.0,0.0,0.0,0.0,0.0,0.0,0.0,0.0,0.0,0.0,0.0,4.2692,4.3214,4.3515,4.3515,4.3515,4.3124,4.2362,4.2362,4.1955,4.115,4.1358,4.1664,4.2021,4.2262,4.2362,4.2322,4.1707,4.1246,4.085,4.0311,4.0096,4.0096,4.0096,4.0096,4.0096,4.0096,4.0096,3.9977,3.9225,3.9503,4.001,3.945,4.0047,4.0949,4.1178,4.1512,4.1703,4.1263,4.0891,4.0601,4.0601,4.0343,4.0096,4.0096,4.0096,4.0096,4.0096,4.0096,4.0171,4.0368,4.0178,3.9823,3.9261,3.902,3.8794,3.8457,3.8761,3.9174,3.9656,3.9943,4.0096,4.0096,4.0096,4.0196,4.0392,4.0204,4.0237,4.0577,4.0286,4.0096,4.0096,4.0096,4.0262,4.0601,4.0601,4.0797,4.1127,4.0498,4.0343,4.2443,4.2958,4.3178,4.4088,4.3688,4.3231,4.3789,4.3695,4.3428,4.3196,4.3915,4.4908,4.5974,4.7122,4.8122,0.0,4.9921,0.0,0.0,0.0,0.0,0.0,0.0,0.0,0.0,0.0,0.0,0.0,0.0,0.0,0.0,0.0,0.0,0.0,4.3303,4.3515,4.3515,4.3515,4.3322,4.2958,4.2958,4.2541,4.181,4.2018,4.2302,4.2711,4.2883,4.2958,4.2884,4.2103,4.1335,4.0625,4.0254,4.0096,4.0096,4.0096,4.0096,4.0096,4.0096,4.0096,3.9977,3.9225,3.9503,3.9985,3.9418,4.0164,4.1206,4.1424,4.1768,4.2062,4.2062,4.149,4.0874,4.0679,4.0368,4.0096,4.0096,4.0096,4.0096,4.0096,4.0096,4.0146,4.0336,4.0343,4.0161,3.9592,3.9559,3.9525,3.9238,3.9297,3.9554,4.0045,4.0096,4.0096,4.0096,4.0096,4.0154,4.0343,4.0179,4.0343,4.088,4.0392,4.0279,4.0618,4.0279,4.0466,4.1161,4.0995,4.1223,4.1789,4.138,4.1105,4.2632,4.2696,4.2103,4.3214,4.3706,4.426,4.559,4.4962,4.4342,4.508,4.5104,4.518,4.5792,4.6526,0.0,4.7076,0.0,0.0,0.0,0.0,0.0,0.0,0.0,0.0,0.0,0.0,0.0,0.0,0.0,0.0,0.0,0.0,0.0,0.0,4.3515,4.3515,4.3515,4.3515,4.3515,4.3515,4.3515,4.2922,4.1853,4.2422,4.2693,4.2732,4.3268,4.3496,4.3391,4.2286,4.1145,4.0138,4.0096,4.0096,4.0096,4.0096,4.0096,4.0096,4.0096,4.0096,3.9977,3.9242,3.9495,4.0068,3.9871,4.074,4.1916,4.2519,4.2692,4.2692,4.2674,4.181,4.0756,4.0229,4.0096,4.0096,4.0096,4.0121,4.0121,4.0096,4.0096,4.0262,4.0803,4.088,4.0826,4.0616,4.0757,4.0597,3.9824,3.9949,4.0096,4.0096,4.0096,4.0096,4.0096,4.0096,4.0336,4.088,4.0417,4.0343,4.088,4.0392,4.0642,4.1789,4.0689,4.0689,4.181,4.1223,4.1246,4.1832,4.181,4.149,4.2975,4.3249,4.3087,4.3427,4.3979,4.4565,4.4967,4.5296,4.5731,4.652,4.5363,4.4568,4.5682,4.5645,0.0,4.5406,0.0,0.0,0.0,0.0,0.0,0.0,0.0,0.0,0.0,0.0,0.0,0.0,0.0,0.0,0.0,0.0,0.0,0.0,4.3515,4.3515,4.3515,4.3515,4.3515,4.3515,4.3515,4.3321,4.2977,4.2595,4.2428,4.2428,4.2602,4.2653,4.2639,4.2479,4.1976,4.1263,4.0844,4.0655,4.0625,4.0254,4.0096,4.0096,4.0096,4.0096,4.0062,3.9842,3.9926,4.0087,4.0031,4.0554,4.1183,4.138,4.1729,4.1958,4.1534,4.1178,4.0856,4.0703,4.0655,4.0655,4.0655,4.1007,4.1173,4.075,4.0655,4.0601,4.0368,4.0336,4.0324,4.0271,4.0305,4.0251,4.0005,4.0043,4.0096,4.0096,4.0096,4.0254,4.07,4.0696,4.092,4.149,4.138,4.1375,4.1534,4.0967,4.1013,4.1789,4.1464,4.166,4.2422,4.2244,4.2444,4.2977,4.2617,4.2342,4.3084,4.3339,4.3305,4.3848,4.458,4.5186,4.5186,4.5604,4.617,4.6642,4.5393,4.4453,4.5278,4.5039,0.0,0.0,0.0,0.0,0.0,0.0,0.0,0.0,0.0,0.0,0.0,0.0,0.0,0.0,0.0,0.0,0.0,0.0,0.0,0.0,4.3515,4.3515,4.3515,4.3515,4.3515,4.3515,4.3167,4.302,4.3002,4.2525,4.2304,4.2304,4.2304,4.2166,4.1976,4.2482,4.2342,4.1729,4.1133,4.0903,4.085,4.0311,4.0096,4.0096,4.0096,4.0254,4.0417,4.0417,4.0594,4.0767,4.0767,4.1173,4.1621,4.1621,4.1874,4.2062,4.1707,4.1446,4.1201,4.0949,4.092,4.1007,4.1201,4.1534,4.1621,4.1018,4.0903,4.0733,4.0179,4.0096,4.0096,4.0096,4.0096,4.0096,4.0096,4.0096,4.0096,4.0096,4.0286,4.057,4.0932,4.115,4.1424,4.1789,4.181,4.1916,4.2142,4.1578,4.1625,4.2446,4.2041,4.2101,4.2711,4.246,4.2501,4.281,4.2501,4.2203,4.3031,4.3196,4.3173,4.44,4.5296,4.5883,4.581,4.5792,4.5792,4.5792,4.5223,4.4691,4.4691,4.4636,4.4599,0.0,0.0,0.0,0.0,0.0,0.0,0.0,0.0,0.0,0.0,0.0,0.0,0.0,0.0,0.0,0.0,0.0,0.0,4.3515,4.3515,4.3515,4.3515,4.3515,4.3515,0.0,4.2763,4.2415,4.2396,4.2176,4.2121,4.2194,4.2194,4.1955,4.1649,4.2444,4.2442,4.1877,4.1246,4.0972,4.0903,4.0311,4.0096,4.0096,4.0171,4.0497,4.0903,4.0972,4.1358,4.181,4.181,4.2183,4.2616,4.2616,4.2616,4.2616,4.2616,4.2203,4.1664,4.111,4.103,4.1185,4.1617,4.175,4.1621,4.1018,4.0903,4.0733,4.0179,4.0096,4.0096,4.0096,4.0096,4.0096,4.0096,4.0096,4.0121,4.0171,4.0625,4.0949,4.1064,4.1556,4.1895,4.194,4.194,4.2203,4.2751,4.2203,4.2386,4.3479,4.2465,4.2223,4.2769,4.2183,4.1874,4.1874,4.1832,4.1512,4.3389,4.3886,4.4345,4.4636,4.5296,4.5736,4.5112,4.4966,4.4966,4.4966,4.4837,4.4691,4.4691,4.4176,0.0,0.0,0.0,0.0,0.0,0.0,0.0,0.0,0.0,0.0,0.0,0.0,0.0,0.0,0.0,0.0,0.0,0.0,0.0,4.3515,4.3515,4.3515,4.3515,4.3515,4.3515,0.0,4.3331,4.3239,4.3167,4.1277,4.0763,4.1352,4.1352,4.1999,4.3065,4.3248,4.325,4.3014,4.2003,4.1599,4.1468,4.0466,4.0096,4.0171,4.0577,4.0803,4.0972,4.1446,4.1686,4.181,4.181,4.1895,4.1979,4.1979,4.1979,4.1979,4.1979,4.1895,4.1768,4.1643,4.1617,4.153,4.1178,4.1468,4.1621,4.1018,4.0903,4.0733,4.0179,4.0096,4.0096,4.0096,4.0096,4.0096,4.0096,4.0096,4.0262,4.0679,4.0833,4.1273,4.2223,4.244,4.2675,4.3105,4.3123,4.3196,4.3321,4.2808,4.2827,4.3497,4.3249,4.3196,4.3339,4.2789,4.25,4.25,4.2021,4.1729,4.402,4.4199,4.4415,4.4634,4.5021,4.5223,4.48,4.4415,4.4121,4.4121,4.4121,4.4121,4.4121,4.3773,0.0,0.0,0.0,0.0,0.0,0.0,0.0,0.0,0.0,0.0,0.0,0.0,0.0,0.0,0.0,0.0,0.0,4.3515,4.3515,4.3515,4.3515,4.3515,4.3515,4.3112,4.2928,4.291,4.2139,4.157,4.1203,4.1093,4.1075,4.1113,4.1499,4.2158,4.2947,4.3332,4.3515,4.3427,4.256,4.2223,4.2121,4.1258,4.0914,4.0938,4.1223,4.1512,4.1793,4.2142,4.2404,4.262,4.262,4.262,4.262,4.262,4.262,4.262,4.262,4.262,4.2542,4.2284,4.2,4.1707,4.1402,4.1578,4.1621,4.1018,4.1133,4.1082,4.0254,4.0096,4.0096,4.0096,4.0096,4.0096,4.0096,4.0336,4.0601,4.0856,4.1424,4.2018,4.2635,4.2939,4.3196,4.3479,4.3515,4.3515,4.3515,4.2976,4.2958,4.3479,4.325,4.3124,4.3124,4.2559,4.2121,4.1832,4.1512,4.138,4.4501,4.4472,4.4482,4.4733,4.4854,4.4855,4.4631,4.4008,4.3513,4.3563,4.3548,4.3515,4.3515,0.0,0.0,0.0,0.0,0.0,0.0,0.0,0.0,0.0,0.0,0.0,0.0,0.0,0.0,0.0,0.0,0.0,4.3515,4.3369,4.3368,4.3515,4.3369,4.3277,4.3277,4.2635,4.2231,4.2084,4.0744,3.9753,3.9203,4.1332,4.1864,4.1132,4.1956,4.2378,4.2561,4.3222,4.3515,4.3444,4.292,4.2711,4.2616,4.2021,4.181,4.1793,4.1916,4.2282,4.2731,4.2807,4.3142,4.3515,4.3515,4.3515,4.3515,4.3515,4.3515,4.3515,4.3515,4.3515,4.3356,4.2826,4.2322,4.1916,4.1832,4.1707,4.1534,4.1133,4.1468,4.1464,4.0417,4.0254,4.0204,4.0121,4.0096,4.0146,4.0229,4.0625,4.0972,4.1201,4.2101,4.275,4.2826,4.3232,4.3515,4.3515,4.3515,4.3515,4.3515,4.2976,4.292,4.3357,4.2827,4.2596,4.2711,4.2101,4.1599,4.1223,4.111,4.1064,4.4073,4.5056,4.5924,4.5281,4.5429,4.5458,4.4347,4.3802,4.358,0.0,4.3693,4.3515,0.0,0.0,0.0,0.0,0.0,0.0,0.0,0.0,0.0,0.0,0.0,0.0,0.0,0.0,0.0,0.0,4.3515,0.0,4.3515,4.2837,4.2782,4.3478,4.2818,4.2451,4.2451,4.2359,4.1956,4.126,4.104,4.0875,4.0802,4.1846,4.1864,4.1132,4.1956,4.269,4.3349,4.346,4.3515,4.3444,4.292,4.2711,4.2616,4.2021,4.181,4.1874,4.2382,4.2635,4.2788,4.3232,4.3444,4.3515,4.3515,4.3515,4.3515,4.3515,4.3515,4.3515,4.3515,4.3515,4.3356,4.2826,4.2635,4.244,4.1916,4.1402,4.1155,4.1599,4.1729,4.1578,4.0903,4.0803,4.0648,4.0154,4.0096,4.0262,4.0733,4.0874,4.1313,4.2342,4.2616,4.2883,4.3357,4.3444,4.3515,4.3515,4.3515,4.3515,4.3515,4.2976,4.2713,4.2807,4.2223,4.2183,4.2711,4.2101,4.2038,4.246,4.1916,4.1686,4.42,4.4995,4.5642,4.5557,4.5183,4.4821,4.4746,4.4073,4.3548,4.3677,4.3614,0.0,0.0,0.0,0.0,0.0,0.0,0.0,0.0,0.0,0.0,0.0,0.0,0.0,0.0,0.0,0.0,0.0,4.3515,4.3313,4.2837,4.2488,4.2268,4.2158,4.1809,4.1627,4.1627,4.1627,4.1222,4.0414,3.9974,3.9756,3.979,4.0598,4.1258,4.1827,4.2616,4.3167,4.3515,4.3515,4.3515,4.348,4.3232,4.316,4.3124,4.2865,4.2753,4.2791,4.3069,4.316,4.3196,4.3427,4.3515,4.3515,4.3515,4.3515,4.3515,4.3515,4.3515,4.3515,4.3515,4.3515,4.3444,4.3214,4.292,4.2713,4.2734,4.2044,4.1578,4.2183,4.2021,4.1725,4.1446,4.1133,4.0726,4.0179,4.0343,4.0631,4.0856,4.149,4.2121,4.2635,4.2976,4.3232,4.3479,4.3515,4.3515,4.3515,4.3515,4.3515,4.3515,4.2976,4.2711,4.2711,4.2101,4.2101,4.2711,4.2101,4.2121,4.2693,4.244,4.2302,4.4468,4.506,4.5441,4.5596,4.5194,4.4849,4.5171,4.4646,4.4047,0.0,4.3836,0.0,0.0,0.0,0.0,0.0,0.0,0.0,0.0,0.0,0.0,0.0,0.0,0.0,0.0,0.0,0.0,0.0,4.3185,4.2928,4.2323,4.1901,4.1515,4.1113,4.0893,4.0799,4.0799,4.0581,4.0194,3.9588,3.9001,3.8817,3.9038,3.9845,4.0855,4.2047,4.2837,4.3296,4.3515,4.3515,4.3515,4.3515,4.3515,4.3515,4.3515,4.3515,4.3515,4.3515,4.3515,4.3515,4.3515,4.3515,4.3515,4.3515,4.3515,4.3515,4.3515,4.3515,4.3515,4.3515,4.3515,4.3515,4.3515,4.3515,4.3196,4.2976,4.3232,4.2734,4.2364,4.2808,4.2541,4.2185,4.2041,4.1643,4.1155,4.0618,4.0868,4.1161,4.1335,4.2142,4.275,4.2883,4.325,4.3515,4.3515,4.3515,4.3515,4.3515,4.3515,4.3515,4.3515,4.3124,4.2845,4.2693,4.2262,4.2262,4.2711,4.2262,4.2324,4.2902,4.2902,4.2902,4.476,4.5646,4.6066,4.5322,4.5988,4.6539,4.5384,4.5407,4.5557,4.5106,0.0,0.0,0.0,0.0,0.0,0.0,0.0,0.0,0.0,0.0,0.0,0.0,0.0,0.0,0.0,0.0,0.0,0.0,4.2359,4.2341,4.2304,4.0855,4.0359,4.1077,4.0359,3.9955,3.9955,3.9203,3.8799,3.8762,3.8726,3.9093,3.9845,4.0671,4.1077,4.1205,4.2011,4.28,4.3515,4.3515,4.3515,4.3515,4.3515,4.3515,4.3515,4.3515,4.3515,4.3515,4.3515,4.3515,4.3515,4.3515,4.3515,4.3515,4.3515,4.3515,4.3515,4.3515,4.3515,4.3515,4.3515,4.3515,4.3515,4.3515,4.3479,4.3339,4.2845,4.3087,4.3427,4.3444,4.3427,4.325,4.2732,4.2616,4.2382,4.181,4.1746,4.1958,4.2519,4.2655,4.2902,4.341,4.3479,4.3515,4.3515,4.3515,4.3515,4.3515,4.3515,4.3515,4.3515,4.3462,4.3214,4.2711,4.2655,4.2655,4.2711,4.2655,4.2939,4.3444,4.3444,4.3444,4.3548,4.4346,4.5008,4.5994,4.6009,4.5798,4.5856,4.5418,4.499,4.4801,0.0,0.0,0.0,0.0,0.0,0.0,0.0,0.0,0.0,0.0,0.0,0.0,0.0,0.0,0.0,0.0,0.0,0.0,0.0,4.1313,4.0781,4.0212,3.979,3.957,3.9276,3.9386,3.9882,3.9093,3.8964,3.946,3.8946,3.9129,3.9882,3.9662,4.0104,4.1113,4.1389,4.1992,4.2763,4.3277,4.3515,4.3515,4.3515,4.3515,4.3515,4.3515,4.3515,4.3515,4.3515,4.3515,4.3515,4.3515,4.3515,4.3515,4.3515,4.3515,4.3515,4.3515,4.3515,4.3515,4.3515,4.3515,4.3515,4.3515,4.3515,4.3444,4.325,4.3356,4.3515,4.3515,4.3515,4.3321,4.2788,4.2711,4.25,4.1895,4.2142,4.246,4.2655,4.2995,4.3304,4.3479,4.3515,4.3515,4.3515,4.3515,4.3515,4.3515,4.3515,4.3515,4.3515,4.3515,4.341,4.3214,4.3214,4.3032,4.2711,4.2711,4.2976,4.3515,4.3515,4.3515,4.2412,4.3164,4.3924,4.583,4.5903,4.5606,4.5969,4.5718,4.5285,4.5,0.0,0.0,0.0,0.0,0.0,0.0,0.0,0.0,0.0,0.0,0.0,0.0,0.0,0.0,0.0,0.0,0.0,0.0,0.0,0.0,3.9918,3.9643,3.9239,3.8726,3.8707,3.8964,3.9478,3.8964,3.9093,3.9882,3.935,3.9515,4.0286,3.9753,3.9955,4.0726,4.0967,4.157,4.2359,4.3167,4.3515,4.3515,4.3515,4.3515,4.3515,4.3515,4.3515,4.3515,4.3515,4.3515,4.3515,4.3515,4.3515,4.3515,4.3515,4.3515,4.3515,4.3515,4.3515,4.3515,4.3515,4.3515,4.3515,4.3515,4.3515,4.3515,4.3515,4.3515,4.3515,4.3515,4.3515,4.3392,4.3032,4.2976,4.2846,4.2444,4.2714,4.2976,4.2976,4.3268,4.3515,4.3515,4.3515,4.3515,4.3515,4.3515,4.3515,4.3515,4.3515,4.3515,4.3515,4.3515,4.3515,4.3515,4.3515,4.3321,4.2976,4.2976,4.316,4.3515,4.3515,4.3515,0.0,0.0,0.0,4.4638,4.5679,4.6156,4.5695,0.0,4.6624,4.5768,0.0,0.0,0.0,0.0,0.0,0.0,0.0,0.0,0.0,0.0,0.0,0.0,0.0,0.0,0.0,0.0,0.0,0.0,3.9845,3.9845,3.9845,3.9129,3.8707,3.8707,3.8707,3.8707,3.8707,3.8707,3.9093,3.9845,3.9845,4.0286,4.1058,4.104,4.0616,3.9937,4.0726,4.1515,4.2286,4.3111,4.3441,4.3441,4.346,4.346,4.3478,4.3496,4.3515,4.3515,4.3515,4.3515,4.3515,4.3515,4.3515,4.3515,4.3515,4.3515,4.3515,4.3515,4.3515,4.3515,4.3515,4.3515,4.3515,4.3515,4.3515,4.3515,4.3515,4.3515,4.3515,4.3515,4.3515,4.3515,4.3515,4.3515,4.3515,4.3515,4.3515,4.3515,4.3533,4.3497,4.3515,4.3533,4.3497,4.3515,4.3533,4.3497,4.3515,4.3533,4.3497,4.3515,4.3515,4.3515,4.3515,4.3515,4.3515,4.3515,4.3515,4.3515,4.3515,4.3515,4.3515,4.3515,3.971,0.0,0.0,0.0,0.0,0.0,0.0,0.0,4.5893,4.5652,0.0,0.0,0.0,0.0,0.0,0.0,0.0,0.0,0.0,0.0,0.0,0.0,0.0,0.0,0.0,0.0,0.0,0.0,3.9038,3.9038,3.9038,3.8817,3.8707,3.8707,3.8707,3.8707,3.8707,3.8707,3.8817,3.9038,3.9038,3.9441,4.0212,3.9643,3.9551,3.99,4.0139,4.0359,4.0616,4.1442,4.1772,4.1827,4.2396,4.2635,4.269,4.3277,4.3515,4.3515,4.3515,4.3515,4.3515,4.3515,4.3515,4.3515,4.3515,4.3515,4.3515,4.3515,4.3515,4.3515,4.3515,4.3515,4.3515,4.3515,4.3515,4.3515,4.3515,4.3515,4.3515,4.3515,4.3515,4.3515,4.3515,4.3515,4.3515,4.3515,4.3515,4.3699,4.4287,4.3864,4.3718,4.4305,4.3846,4.3736,4.4323,4.3828,4.3736,4.4342,4.3809,4.3515,4.3515,4.3515,4.3515,4.3515,4.3515,4.3515,4.3515,4.3515,4.3515,4.3515,4.3515,4.3515,3.8255,3.93,4.0323,4.2328,0.0,0.0,4.4534,4.5142,4.5549,0.0,0.0,0.0,0.0,0.0,0.0,0.0,0.0,0.0,0.0,0.0,0.0,0.0,0.0,0.0,0.0,4.0396,4.0065,3.9258,3.9203,3.9056,3.8726,3.8707,3.8707,3.8707,3.8707,3.8542,3.8193,3.8524,3.8707,3.8707,3.9038,3.9441,3.9879,3.9405,3.9276,3.9405,3.9405,3.9405,3.9441,3.9918,4.0691,4.1662,4.2121,4.2506,4.2855,4.3331,4.3515,4.3515,4.3515,4.3515,4.3515,4.3515,4.3515,4.3515,4.3515,4.3515,4.3515,4.3515,4.3515,4.3515,4.3515,4.3515,4.3515,4.3515,4.3515,4.3515,4.3515,4.3515,4.3515,4.3515,4.3515,4.3515,4.3515,4.3515,4.3608,4.3956,4.3699,4.3791,4.4617,4.3993,4.368,4.4158,4.3773,4.3681,4.4158,4.3754,4.3699,4.4176,4.3754,4.3515,4.3515,4.3515,4.3515,4.3515,4.3515,4.3515,4.3515,4.3515,4.3515,4.3515,4.3515,4.3515,3.7107,3.7872,3.8774,4.064,0.0,0.0,4.3176,4.4454,4.5418,0.0,0.0,0.0,0.0,0.0,0.0,0.0,0.0,0.0,0.0,0.0,0.0,0.0,0.0,0.0,4.1313,4.1224,4.0873,3.9955,3.9808,3.9441,3.8744,3.8707,3.8707,3.8707,3.8615,3.8212,3.7511,3.812,3.8487,3.8579,3.9294,3.968,3.9772,3.9772,3.9386,3.8707,3.8707,3.8707,3.8707,3.8707,3.9974,4.1919,4.2103,4.2543,4.3129,4.3404,4.3441,4.3386,4.3478,4.3515,4.3515,4.3515,4.3515,4.3515,4.3515,4.3515,4.3515,4.3515,4.3515,4.3515,4.3515,4.3515,4.3515,4.3515,4.3515,4.3515,4.3515,4.3515,4.3515,4.3515,4.3515,4.3515,4.3515,4.3515,4.3736,4.447,4.3956,4.3791,4.4617,4.3993,4.3533,4.3608,4.3551,4.357,4.3753,4.368,4.3663,4.3772,4.368,4.3589,4.3515,4.3515,4.3515,4.3515,4.3515,4.3515,4.3515,4.3515,4.3515,4.3515,4.3515,4.3515,0.0,0.0,0.0,0.0,0.0,0.0,4.3427,4.418,4.4741,0.0,0.0,0.0,0.0,0.0,0.0,0.0,0.0,0.0,0.0,0.0,0.0,0.0,0.0,0.0,4.2173,4.2066,4.146,4.001,3.9294,3.8872,3.8707,3.8707,3.8707,3.8707,3.8065,3.7658,3.7492,3.7,3.7092,3.7749,3.7896,3.8319,3.8927,3.8927,3.8854,3.8707,3.8707,3.8707,3.8707,3.8707,3.8982,3.9533,4.082,4.1038,4.0836,4.278,4.3075,4.2635,4.3277,4.3515,4.3515,4.3515,4.3515,4.3515,4.3515,4.3515,4.3515,4.3515,4.3515,4.3515,4.3515,4.3515,4.3515,4.3515,4.3515,4.3515,4.3515,4.3515,4.3515,4.3515,4.3515,4.3515,4.3515,4.3515,4.3551,4.3699,4.3606,4.3791,4.4617,4.3993,4.3736,4.4397,4.3883,4.4011,4.5314,4.4837,4.4745,4.5388,4.4819,4.4176,4.3533,4.3515,4.3515,4.3515,4.3515,4.3515,4.3515,4.3515,4.3515,4.3515,4.3515,4.3515,0.0,0.0,0.0,3.8043,0.0,0.0,0.0,4.2366,4.333,4.3426,4.3907,4.4449,0.0,0.0,0.0,0.0,0.0,0.0,0.0,0.0,0.0,0.0,0.0,0.0,4.3015,4.3037,4.2588,4.1201,3.9974,3.9294,3.9294,3.8927,3.8524,3.8102,3.8102,3.7496,3.6266,3.7074,3.7294,3.6905,3.7716,3.8303,3.8707,3.8707,3.8707,3.8707,3.8707,3.8707,3.8707,3.8707,3.8707,3.8817,4.0029,4.0506,4.0689,4.2304,4.2653,4.2415,4.3222,4.3515,4.3515,4.3515,4.3515,4.3515,4.3515,4.3515,4.3515,4.3515,4.3515,4.3515,4.3515,4.3515,4.3515,4.3515,4.3515,4.3515,4.3515,4.3515,4.3515,4.3515,4.3515,4.3515,4.3515,4.3828,4.4232,4.4635,4.436,4.4525,4.5737,4.4837,4.425,4.4672,4.4709,4.4856,4.5278,4.4947,4.4856,4.5278,4.4544,4.392,4.3533,4.3515,4.3515,4.3515,4.3515,4.3515,4.3515,4.3515,4.3515,4.3515,4.3515,4.3515,0.0,0.0,0.0,0.0,0.0,3.8797,0.0,0.0,0.0,4.1244,0.0,0.0,0.0,0.0,0.0,0.0,0.0,0.0,0.0,0.0,0.0,0.0,0.0,0.0,0.0,4.3748,4.3364,4.2375,4.0946,4.0065,3.9916,3.9276,3.856,3.7768,3.8065,3.7349,3.55,3.7151,3.7496,3.6556,3.7845,3.856,3.8707,3.8707,3.8707,3.8707,3.8707,3.8707,3.8707,3.8707,3.8707,3.8781,3.9588,4.0194,4.0765,4.1901,4.2194,4.2213,4.3167,4.3515,4.3515,4.3515,4.3515,4.3515,4.3515,4.3515,4.3515,4.3515,4.3515,4.3515,4.3515,4.3515,4.3515,4.3515,4.3515,4.3515,4.3515,4.3515,4.3515,4.3515,4.3515,4.3515,4.3515,4.4176,4.4929,4.5571,4.5259,4.5406,4.6691,4.5718,4.4947,4.4947,4.5516,4.57,4.5186,4.5021,4.4947,4.4947,4.4176,4.3644,4.3515,4.3515,4.3515,4.3515,4.3515,4.3515,4.3515,4.3515,4.3515,4.3515,4.3515,4.3515,0.0,0.0,0.0,0.0,3.5386,0.0,0.0,0.0,3.9912,4.0552,0.0,0.0,0.0,0.0,0.0,0.0,0.0,0.0,0.0,0.0,0.0,0.0,0.0,0.0,0.0,4.3549,4.2767,4.2338,4.1462,4.0653,3.9937,3.9808,3.9386,3.8597,3.7276,3.678,3.7217,3.6013,3.6083,3.7364,3.7547,3.8025,3.8707,3.8707,3.8707,3.8707,3.8707,3.8707,3.8707,3.8707,3.8707,3.8781,3.9588,3.9515,3.9239,4.1479,4.1864,4.1444,4.2965,4.3515,4.3515,4.3515,4.3515,4.3515,4.3515,4.3515,4.3515,4.3515,4.3515,4.3515,4.3515,4.3515,4.3515,4.3515,4.3515,4.3515,4.3515,4.3515,4.3515,4.3515,4.3515,4.3515,4.3515,4.4176,4.4728,4.4837,4.5369,4.5828,4.6012,4.5883,4.5755,4.5755,4.5847,4.6159,4.6764,4.6177,4.5755,4.5755,4.5021,4.425,4.3533,4.3515,4.3515,4.3515,4.3515,4.3515,4.3515,4.3515,4.3515,4.3515,4.3515,4.3515,0.0,0.0,0.0,0.0,0.0,0.0,3.5591,0.0,3.7154,0.0,0.0,0.0,0.0,0.0,0.0,0.0,4.4051,0.0,0.0,0.0,0.0,0.0,0.0,0.0,0.0,0.0,0.0,0.0,4.2361,4.146,4.0653,4.0157,3.9313,3.8043,3.7345,3.6942,3.6813,3.6101,3.634,3.7492,3.7492,3.7918,3.8707,3.8707,3.8707,3.8707,3.8707,3.8707,3.8707,3.8707,3.8707,3.8726,3.9074,3.9001,3.8946,4.0891,4.1389,4.126,4.2415,4.3112,4.3515,4.3515,4.3515,4.3515,4.3515,4.3515,4.3515,4.3515,4.3515,4.3515,4.3515,4.3515,4.3515,4.3515,4.3515,4.3515,4.3515,4.3515,4.3515,4.3515,4.3515,4.3515,4.3515,4.4176,4.4874,4.5333,4.5681,4.6232,4.7168,4.6893,4.6599,4.6599,4.7021,4.7241,4.7113,4.6361,4.5902,4.5902,4.4709,4.3846,4.3497,4.3515,4.3515,4.3515,4.3515,4.3515,4.3515,4.3515,4.3515,4.3515,4.3975,4.3956,3.3282,0.0,0.0,0.0,0.0,0.0,0.0,0.0,0.0,0.0,0.0,0.0,0.0,0.0,0.0,0.0,0.0,4.3453,0.0,0.0,0.0,0.0,0.0,0.0,0.0,0.0,0.0,4.3881,4.3094,4.2286,4.1462,4.0671,3.9588,3.8208,3.7731,3.7217,3.6615,3.6615,3.6813,3.718,3.7621,3.801,3.8377,3.8597,3.8707,3.8707,3.8707,3.8707,3.8707,3.8707,3.8707,3.8726,3.8946,3.8891,3.8872,4.0267,4.0912,4.1224,4.2029,4.2818,4.3515,4.3515,4.3515,4.3515,4.3515,4.3515,4.3515,4.3515,4.3515,4.3515,4.3515,4.3515,4.3515,4.3515,4.3515,4.3515,4.3515,4.3515,4.3515,4.3515,4.3515,4.357,4.3791,4.4305,4.4984,4.5773,4.6085,4.6728,4.8122,4.7791,4.7424,4.7424,4.7957,4.8067,4.748,4.6489,4.57,4.5259,4.4157,4.3515,4.3515,4.3515,4.3515,4.3515,4.3515,4.3515,4.3515,4.3718,4.3828,4.3828,4.4195,4.4066,0.0,0.0,0.0,3.1322,0.0,0.0,0.0,0.0,3.2875,0.0,0.0,0.0,0.0,0.0,0.0,3.9531,0.0,0.0,0.0,0.0,0.0,0.0,0.0,0.0,0.0,0.0,0.0,4.3582,4.3478,4.3112,4.2304,4.1515,4.0689,3.9845,3.8319,3.7492,3.7456,3.7456,3.7088,3.6358,3.7918,3.8267,3.7566,3.834,3.8707,3.8707,3.8707,3.8707,3.8707,3.8707,3.8707,3.8781,3.9551,3.9386,3.8799,3.9625,4.0432,4.1224,4.2029,4.2818,4.3515,4.3515,4.3515,4.3515,4.3515,4.3515,4.3515,4.3515,4.3515,4.3515,4.3515,4.3515,4.3515,4.3515,4.3515,4.3515,4.3515,4.3515,4.3515,4.3515,4.3515,4.3736,4.4544,4.4673,4.4984,4.5773,4.6544,4.7351,4.8196,4.8288,4.8269,4.8269,4.8288,4.8306,4.8269,4.6819,4.5241,4.368,4.3533,4.3515,4.3515,4.3515,4.3515,4.3515,4.3515,4.3515,4.3515,4.4287,4.4672,4.4636,4.3883,4.3533,0.0,0.0,2.9388,3.0042,0.0,0.0,0.0,0.0,0.0,0.0,0.0,0.0,0.0,0.0,3.6269,3.8481,3.9074,0.0,0.0,0.0,0.0,0.0,0.0,0.0,0.0,0.0,0.0,4.3812,4.3133,4.2598,4.2304,4.2047,4.1277,3.9937,3.8854,3.8285,3.8285,3.7254,3.7092,3.79,3.79,3.8028,3.8303,3.8579,3.8707,3.8707,3.8707,3.8707,3.8707,3.8707,3.8707,3.8726,3.9001,3.8946,3.8799,3.9588,4.0414,4.1279,4.2635,4.3276,4.3515,4.3515,4.3515,4.3515,4.3515,4.3515,4.3515,4.3515,4.3515,4.3515,4.3515,4.3515,4.3515,4.3515,4.3515,4.3515,4.3515,4.3515,4.3515,4.3515,4.3515,4.3754,4.4562,4.4691,4.515,4.6489,4.6929,4.7388,4.8214,4.8306,4.8306,4.8306,4.8306,4.8306,4.8306,4.7296,4.6012,4.4397,4.4287,4.4066,4.3533,4.3515,4.3515,4.3515,4.3515,4.3754,4.4287,4.458,4.4984,4.5498,4.5223,4.5094,2.9958,2.9403,0.0,2.9435,2.94,0.0,3.0313,0.0,0.0,0.0,0.0,0.0,0.0,0.0,0.0,3.6552,3.7432,3.8393,0.0,4.0699,0.0,0.0,0.0,0.0,0.0,0.0,4.3282,4.3391,4.2986,4.2727,0.0,0.0,4.1405,4.0359,3.9276,3.856,3.8267,3.7533,3.7386,3.7845,3.79,3.8046,3.8285,3.8579,3.8707,3.8689,3.8395,3.8432,3.8689,3.8395,3.8432,3.8707,3.8707,3.8707,3.8762,3.9276,4.0157,4.1334,4.2928,4.3515,4.3515,4.3515,4.3515,4.3515,4.3515,4.3515,4.3515,4.3515,4.3515,4.3515,4.3515,4.3515,4.3515,4.3515,4.3515,4.3515,4.3515,4.3515,4.3515,4.3515,4.3515,4.3754,4.4562,4.4947,4.559,4.6892,4.7094,4.7388,4.8214,4.8306,4.8306,4.8306,4.8306,4.8196,4.7901,4.7131,4.6104,4.4764,4.4433,4.4048,4.3533,4.3515,4.3772,4.4342,4.4066,4.447,4.5553,4.5553,4.581,4.6342,4.6617,4.6599]}]]